Wetterdaten: Samstag, 12.03.2016
Datum Zeit Temp. A. Feuchte A. Luftdruck Regen Wind Richtung Richtung Sonnenschein ET UV Solar Taupunkt Windchill Windben Empfang
12.03.2016 00:00 3,9 C 96 % 1024,5 hPa 0,0 l/m 3,1 km/h (1 Bft) S-SW 198 0 min 0,000 mm 0,0 UV-I 0 W/m 3,3 C 3,9 C 6,4 km/h (2 Bft) 100,00 %
12.03.2016 00:02 3,9 C 96 % 1024,5 hPa 0,0 l/m 3,4 km/h (1 Bft) S-SW 198 0 min 0,000 mm 0,0 UV-I 0 W/m 3,3 C 3,9 C 6,4 km/h (2 Bft) 100,00 %
12.03.2016 00:03 3,9 C 96 % 1024,4 hPa 0,0 l/m 3,9 km/h (1 Bft) S-SW 198 0 min 0,000 mm 0,0 UV-I 0 W/m 3,3 C 3,9 C 4,8 km/h (1 Bft) 100,00 %
12.03.2016 00:04 3,9 C 96 % 1024,4 hPa 0,0 l/m 3,4 km/h (1 Bft) S-SW 200 0 min 0,000 mm 0,0 UV-I 0 W/m 3,3 C 3,9 C 4,8 km/h (1 Bft) 100,00 %
12.03.2016 00:05 3,9 C 96 % 1024,4 hPa 0,0 l/m 3,6 km/h (1 Bft) S-SW 195 0 min 0,000 mm 0,0 UV-I 0 W/m 3,3 C 3,9 C 4,8 km/h (1 Bft) 100,00 %
12.03.2016 00:06 3,9 C 96 % 1024,4 hPa 0,0 l/m 3,0 km/h (1 Bft) S-SW 196 0 min 0,000 mm 0,0 UV-I 0 W/m 3,3 C 3,9 C 4,8 km/h (1 Bft) 100,00 %
12.03.2016 00:07 3,9 C 96 % 1024,5 hPa 0,0 l/m 1,9 km/h (1 Bft) S-SW 196 0 min 0,000 mm 0,0 UV-I 0 W/m 3,3 C 3,9 C 3,2 km/h (1 Bft) 95,83 %
12.03.2016 00:08 3,9 C 96 % 1024,4 hPa 0,0 l/m 3,8 km/h (1 Bft) S-SW 194 0 min 0,000 mm 0,0 UV-I 0 W/m 3,3 C 3,9 C 4,8 km/h (1 Bft) 100,00 %
12.03.2016 00:09 3,9 C 96 % 1024,4 hPa 0,0 l/m 5,3 km/h (1 Bft) S-SW 194 0 min 0,000 mm 0,0 UV-I 0 W/m 3,3 C 3,9 C 6,4 km/h (2 Bft) 95,83 %
12.03.2016 00:10 3,9 C 96 % 1024,5 hPa 0,0 l/m 4,2 km/h (1 Bft) S-SW 195 0 min 0,000 mm 0,0 UV-I 0 W/m 3,3 C 3,9 C 6,4 km/h (2 Bft) 100,00 %
12.03.2016 00:11 3,9 C 96 % 1024,4 hPa 0,0 l/m 2,6 km/h (1 Bft) S-SW 195 0 min 0,000 mm 0,0 UV-I 0 W/m 3,3 C 3,9 C 3,2 km/h (1 Bft) 100,00 %
12.03.2016 00:12 3,9 C 96 % 1024,4 hPa 0,0 l/m 3,7 km/h (1 Bft) S-SW 194 0 min 0,000 mm 0,0 UV-I 0 W/m 3,3 C 3,9 C 4,8 km/h (1 Bft) 94,12 %
12.03.2016 00:13 3,9 C 96 % 1024,5 hPa 0,0 l/m 4,9 km/h (1 Bft) S-SW 197 0 min 0,000 mm 0,0 UV-I 0 W/m 3,3 C 3,9 C 8,0 km/h (2 Bft) 100,00 %
12.03.2016 00:14 3,9 C 96 % 1024,4 hPa 0,0 l/m 4,0 km/h (1 Bft) S 180 0 min 0,000 mm 0,0 UV-I 0 W/m 3,3 C 3,9 C 4,8 km/h (1 Bft) 100,00 %
12.03.2016 00:15 3,9 C 96 % 1024,4 hPa 0,0 l/m 3,8 km/h (1 Bft) S-SW 195 0 min 0,000 mm 0,0 UV-I 0 W/m 3,3 C 3,9 C 6,4 km/h (2 Bft) 100,00 %
12.03.2016 00:16 3,9 C 96 % 1024,4 hPa 0,0 l/m 2,0 km/h (1 Bft) S-SW 195 0 min 0,000 mm 0,0 UV-I 0 W/m 3,3 C 3,9 C 3,2 km/h (1 Bft) 100,00 %
12.03.2016 00:17 3,9 C 96 % 1024,4 hPa 0,0 l/m 2,3 km/h (1 Bft) S-SW 196 0 min 0,000 mm 0,0 UV-I 0 W/m 3,3 C 3,9 C 3,2 km/h (1 Bft) 100,00 %
12.03.2016 00:18 3,9 C 96 % 1024,4 hPa 0,0 l/m 4,5 km/h (1 Bft) S-SW 202 0 min 0,000 mm 0,0 UV-I 0 W/m 3,3 C 3,9 C 4,8 km/h (1 Bft) 100,00 %
12.03.2016 00:19 3,9 C 96 % 1024,4 hPa 0,0 l/m 3,4 km/h (1 Bft) S-SW 198 0 min 0,000 mm 0,0 UV-I 0 W/m 3,3 C 3,9 C 4,8 km/h (1 Bft) 100,00 %
12.03.2016 00:20 3,9 C 96 % 1024,4 hPa 0,0 l/m 3,7 km/h (1 Bft) S-SW 196 0 min 0,000 mm 0,0 UV-I 0 W/m 3,3 C 3,9 C 4,8 km/h (1 Bft) 100,00 %
12.03.2016 00:21 3,9 C 96 % 1024,4 hPa 0,0 l/m 5,3 km/h (1 Bft) S-SW 196 0 min 0,000 mm 0,0 UV-I 0 W/m 3,3 C 3,9 C 6,4 km/h (2 Bft) 100,00 %
12.03.2016 00:22 3,9 C 96 % 1024,4 hPa 0,0 l/m 4,3 km/h (1 Bft) S-SW 196 0 min 0,000 mm 0,0 UV-I 0 W/m 3,3 C 3,9 C 6,4 km/h (2 Bft) 100,00 %
12.03.2016 00:23 3,9 C 96 % 1024,4 hPa 0,0 l/m 4,5 km/h (1 Bft) S 189 0 min 0,000 mm 0,0 UV-I 0 W/m 3,3 C 3,9 C 6,4 km/h (2 Bft) 96,15 %
12.03.2016 00:24 3,9 C 96 % 1024,4 hPa 0,0 l/m 2,2 km/h (1 Bft) S 189 0 min 0,000 mm 0,0 UV-I 0 W/m 3,3 C 3,9 C 3,2 km/h (1 Bft) 91,67 %
12.03.2016 00:25 3,9 C 96 % 1024,4 hPa 0,0 l/m 2,0 km/h (1 Bft) S 189 0 min 0,000 mm 0,0 UV-I 0 W/m 3,3 C 3,9 C 3,2 km/h (1 Bft) 100,00 %
12.03.2016 00:26 3,9 C 96 % 1024,5 hPa 0,0 l/m 1,4 km/h (1 Bft) S 189 0 min 0,000 mm 0,0 UV-I 0 W/m 3,3 C 3,9 C 3,2 km/h (1 Bft) 91,67 %
12.03.2016 00:27 3,9 C 96 % 1024,5 hPa 0,0 l/m 2,5 km/h (1 Bft) S 189 0 min 0,000 mm 0,0 UV-I 0 W/m 3,3 C 3,9 C 3,2 km/h (1 Bft) 96,15 %
12.03.2016 00:28 3,9 C 96 % 1024,4 hPa 0,0 l/m 2,7 km/h (1 Bft) S 189 0 min 0,000 mm 0,0 UV-I 0 W/m 3,3 C 3,9 C 3,2 km/h (1 Bft) 95,83 %
12.03.2016 00:29 3,9 C 96 % 1024,4 hPa 0,0 l/m 2,7 km/h (1 Bft) S 189 0 min 0,000 mm 0,0 UV-I 0 W/m 3,3 C 3,9 C 3,2 km/h (1 Bft) 100,00 %
12.03.2016 00:30 3,9 C 96 % 1024,4 hPa 0,0 l/m 1,5 km/h (1 Bft) S 189 0 min 0,000 mm 0,0 UV-I 0 W/m 3,3 C 3,9 C 3,2 km/h (1 Bft) 95,83 %
12.03.2016 00:31 3,9 C 96 % 1024,4 hPa 0,0 l/m 2,8 km/h (1 Bft) S 189 0 min 0,000 mm 0,0 UV-I 0 W/m 3,3 C 3,9 C 4,8 km/h (1 Bft) 92,31 %
12.03.2016 00:32 3,9 C 96 % 1024,4 hPa 0,0 l/m 1,8 km/h (1 Bft) S 189 0 min 0,000 mm 0,0 UV-I 0 W/m 3,3 C 3,9 C 3,2 km/h (1 Bft) 100,00 %
12.03.2016 00:33 3,9 C 96 % 1024,4 hPa 0,0 l/m 3,3 km/h (1 Bft) S 189 0 min 0,000 mm 0,0 UV-I 0 W/m 3,3 C 3,9 C 4,8 km/h (1 Bft) 95,65 %
12.03.2016 00:34 3,9 C 96 % 1024,4 hPa 0,0 l/m 4,6 km/h (1 Bft) S 189 0 min 0,000 mm 0,0 UV-I 0 W/m 3,3 C 3,9 C 4,8 km/h (1 Bft) 100,00 %
12.03.2016 00:35 3,9 C 96 % 1024,4 hPa 0,0 l/m 3,2 km/h (1 Bft) S 189 0 min 0,000 mm 0,0 UV-I 0 W/m 3,3 C 3,9 C 4,8 km/h (1 Bft) 91,67 %
12.03.2016 00:36 3,9 C 96 % 1024,4 hPa 0,0 l/m 2,1 km/h (1 Bft) S 189 0 min 0,000 mm 0,0 UV-I 0 W/m 3,3 C 3,9 C 3,2 km/h (1 Bft) 100,00 %
12.03.2016 00:37 3,9 C 96 % 1024,5 hPa 0,0 l/m 3,1 km/h (1 Bft) S 189 0 min 0,000 mm 0,0 UV-I 0 W/m 3,3 C 3,9 C 4,8 km/h (1 Bft) 95,83 %
12.03.2016 00:38 3,9 C 96 % 1024,5 hPa 0,0 l/m 2,7 km/h (1 Bft) S 189 0 min 0,000 mm 0,0 UV-I 0 W/m 3,3 C 3,9 C 3,2 km/h (1 Bft) 100,00 %
12.03.2016 00:39 3,9 C 96 % 1024,5 hPa 0,0 l/m 2,6 km/h (1 Bft) S 189 0 min 0,000 mm 0,0 UV-I 0 W/m 3,3 C 3,9 C 3,2 km/h (1 Bft) 93,33 %
12.03.2016 00:40 3,9 C 96 % 1024,5 hPa 0,0 l/m 2,5 km/h (1 Bft) S 189 0 min 0,000 mm 0,0 UV-I 0 W/m 3,3 C 3,9 C 3,2 km/h (1 Bft) 100,00 %
12.03.2016 00:41 3,9 C 96 % 1024,5 hPa 0,0 l/m 2,1 km/h (1 Bft) S 189 0 min 0,000 mm 0,0 UV-I 0 W/m 3,3 C 3,9 C 3,2 km/h (1 Bft) 96,30 %
12.03.2016 00:42 3,9 C 96 % 1024,6 hPa 0,0 l/m 1,9 km/h (1 Bft) S 189 0 min 0,000 mm 0,0 UV-I 0 W/m 3,3 C 3,9 C 3,2 km/h (1 Bft) 100,00 %
12.03.2016 00:43 3,9 C 96 % 1024,6 hPa 0,0 l/m 1,4 km/h (1 Bft) S 189 0 min 0,000 mm 0,0 UV-I 0 W/m 3,3 C 3,9 C 3,2 km/h (1 Bft) 95,83 %
12.03.2016 00:44 3,9 C 96 % 1024,6 hPa 0,0 l/m 0,7 km/h (0 Bft) S 189 0 min 0,000 mm 0,0 UV-I 0 W/m 3,3 C 3,9 C 1,6 km/h (1 Bft) 96,15 %
12.03.2016 00:45 3,9 C 96 % 1024,5 hPa 0,0 l/m 2,5 km/h (1 Bft) S 189 0 min 0,000 mm 0,0 UV-I 0 W/m 3,3 C 3,9 C 3,2 km/h (1 Bft) 96,67 %
12.03.2016 00:46 3,9 C 96 % 1024,5 hPa 0,0 l/m 2,3 km/h (1 Bft) S 189 0 min 0,000 mm 0,0 UV-I 0 W/m 3,3 C 3,9 C 3,2 km/h (1 Bft) 95,65 %
12.03.2016 00:47 3,9 C 96 % 1024,6 hPa 0,0 l/m 1,7 km/h (1 Bft) S 189 0 min 0,000 mm 0,0 UV-I 0 W/m 3,3 C 3,9 C 3,2 km/h (1 Bft) 95,83 %
12.03.2016 00:48 3,9 C 96 % 1024,6 hPa 0,0 l/m 2,4 km/h (1 Bft) S 189 0 min 0,000 mm 0,0 UV-I 0 W/m 3,3 C 3,9 C 3,2 km/h (1 Bft) 90,91 %
12.03.2016 00:49 3,9 C 96 % 1024,6 hPa 0,0 l/m 2,2 km/h (1 Bft) S 189 0 min 0,000 mm 0,0 UV-I 0 W/m 3,3 C 3,9 C 3,2 km/h (1 Bft) 100,00 %
12.03.2016 00:50 3,9 C 96 % 1024,6 hPa 0,0 l/m 2,7 km/h (1 Bft) S 189 0 min 0,000 mm 0,0 UV-I 0 W/m 3,3 C 3,9 C 3,2 km/h (1 Bft) 96,15 %
12.03.2016 00:51 3,9 C 96 % 1024,6 hPa 0,0 l/m 3,0 km/h (1 Bft) S 189 0 min 0,000 mm 0,0 UV-I 0 W/m 3,3 C 3,9 C 3,2 km/h (1 Bft) 95,83 %
12.03.2016 00:52 3,9 C 96 % 1024,6 hPa 0,0 l/m 2,5 km/h (1 Bft) S 189 0 min 0,000 mm 0,0 UV-I 0 W/m 3,3 C 3,9 C 3,2 km/h (1 Bft) 100,00 %
12.03.2016 00:53 3,9 C 96 % 1024,5 hPa 0,0 l/m 2,3 km/h (1 Bft) S 189 0 min 0,000 mm 0,0 UV-I 0 W/m 3,3 C 3,9 C 3,2 km/h (1 Bft) 96,30 %
12.03.2016 00:54 3,9 C 96 % 1024,5 hPa 0,0 l/m 2,2 km/h (1 Bft) S 189 0 min 0,000 mm 0,0 UV-I 0 W/m 3,3 C 3,9 C 3,2 km/h (1 Bft) 100,00 %
12.03.2016 00:55 3,9 C 96 % 1024,5 hPa 0,0 l/m 1,8 km/h (1 Bft) S 189 0 min 0,000 mm 0,0 UV-I 0 W/m 3,3 C 3,9 C 3,2 km/h (1 Bft) 96,15 %
12.03.2016 00:56 3,9 C 96 % 1024,5 hPa 0,0 l/m 1,1 km/h (1 Bft) S 189 0 min 0,000 mm 0,0 UV-I 0 W/m 3,3 C 3,9 C 1,6 km/h (1 Bft) 100,00 %
12.03.2016 00:57 3,9 C 96 % 1024,6 hPa 0,0 l/m 2,0 km/h (1 Bft) S 189 0 min 0,000 mm 0,0 UV-I 0 W/m 3,3 C 3,9 C 3,2 km/h (1 Bft) 96,15 %
12.03.2016 00:58 3,9 C 96 % 1024,5 hPa 0,0 l/m 3,0 km/h (1 Bft) S 189 0 min 0,000 mm 0,0 UV-I 0 W/m 3,3 C 3,9 C 3,2 km/h (1 Bft) 100,00 %
12.03.2016 00:59 3,9 C 96 % 1024,5 hPa 0,0 l/m 3,6 km/h (1 Bft) S 190 0 min 0,000 mm 0,0 UV-I 0 W/m 3,3 C 3,9 C 4,8 km/h (1 Bft) 100,00 %
12.03.2016 01:00 3,9 C 96 % 1024,5 hPa 0,0 l/m 3,6 km/h (1 Bft) S 190 0 min 0,000 mm 0,0 UV-I 0 W/m 3,3 C 3,9 C 4,8 km/h (1 Bft) 100,00 %
12.03.2016 01:01 3,9 C 96 % 1024,5 hPa 0,0 l/m 3,0 km/h (1 Bft) S 190 0 min 0,000 mm 0,0 UV-I 0 W/m 3,3 C 3,9 C 4,8 km/h (1 Bft) 100,00 %
12.03.2016 01:02 3,9 C 96 % 1024,5 hPa 0,0 l/m 0,8 km/h (0 Bft) S 190 0 min 0,000 mm 0,0 UV-I 0 W/m 3,3 C 3,9 C 1,6 km/h (1 Bft) 93,33 %
12.03.2016 01:03 3,9 C 96 % 1024,5 hPa 0,0 l/m 1,9 km/h (1 Bft) S 190 0 min 0,000 mm 0,0 UV-I 0 W/m 3,3 C 3,9 C 3,2 km/h (1 Bft) 100,00 %
12.03.2016 01:04 3,9 C 96 % 1024,5 hPa 0,0 l/m 0,6 km/h (0 Bft) S 190 0 min 0,000 mm 0,0 UV-I 0 W/m 3,3 C 3,9 C 1,6 km/h (1 Bft) 100,00 %
12.03.2016 01:05 3,9 C 96 % 1024,5 hPa 0,0 l/m 0,0 km/h (0 Bft) S 190 0 min 0,000 mm 0,0 UV-I 0 W/m 3,3 C 3,9 C 0,0 km/h (0 Bft) 100,00 %
12.03.2016 01:06 3,9 C 96 % 1024,6 hPa 0,0 l/m 0,1 km/h (0 Bft) S 190 0 min 0,000 mm 0,0 UV-I 0 W/m 3,3 C 3,9 C 1,6 km/h (1 Bft) 100,00 %
12.03.2016 01:07 3,9 C 96 % 1024,6 hPa 0,0 l/m 0,9 km/h (0 Bft) S 190 0 min 0,000 mm 0,0 UV-I 0 W/m 3,3 C 3,9 C 1,6 km/h (1 Bft) 100,00 %
12.03.2016 01:08 3,9 C 96 % 1024,6 hPa 0,0 l/m 0,0 km/h (0 Bft) S 190 0 min 0,000 mm 0,0 UV-I 0 W/m 3,3 C 3,9 C 0,0 km/h (0 Bft) 100,00 %
12.03.2016 01:09 3,9 C 96 % 1024,6 hPa 0,0 l/m 0,0 km/h (0 Bft) S 190 0 min 0,000 mm 0,0 UV-I 0 W/m 3,3 C 3,9 C 0,0 km/h (0 Bft) 100,00 %
12.03.2016 01:10 3,8 C 96 % 1024,5 hPa 0,0 l/m 0,2 km/h (0 Bft) S 190 0 min 0,000 mm 0,0 UV-I 0 W/m 3,2 C 3,8 C 1,6 km/h (1 Bft) 100,00 %
12.03.2016 01:12 3,8 C 96 % 1024,5 hPa 0,0 l/m 1,7 km/h (1 Bft) S-SW 207 0 min 0,000 mm 0,0 UV-I 0 W/m 3,2 C 3,8 C 4,8 km/h (1 Bft) 98,11 %
12.03.2016 01:13 3,8 C 96 % 1024,5 hPa 0,0 l/m 3,9 km/h (1 Bft) S-SW 211 0 min 0,000 mm 0,0 UV-I 0 W/m 3,2 C 3,8 C 4,8 km/h (1 Bft) 96,15 %
12.03.2016 01:14 3,9 C 96 % 1024,5 hPa 0,0 l/m 3,5 km/h (1 Bft) S-SW 211 0 min 0,000 mm 0,0 UV-I 0 W/m 3,3 C 3,9 C 4,8 km/h (1 Bft) 100,00 %
12.03.2016 01:15 3,8 C 96 % 1024,5 hPa 0,0 l/m 3,3 km/h (1 Bft) S-SW 211 0 min 0,000 mm 0,0 UV-I 0 W/m 3,2 C 3,8 C 4,8 km/h (1 Bft) 100,00 %
12.03.2016 01:16 3,8 C 96 % 1024,5 hPa 0,0 l/m 3,0 km/h (1 Bft) S-SW 211 0 min 0,000 mm 0,0 UV-I 0 W/m 3,2 C 3,8 C 3,2 km/h (1 Bft) 100,00 %
12.03.2016 01:17 3,8 C 96 % 1024,5 hPa 0,0 l/m 1,9 km/h (1 Bft) S-SW 211 0 min 0,000 mm 0,0 UV-I 0 W/m 3,2 C 3,8 C 3,2 km/h (1 Bft) 100,00 %
12.03.2016 01:18 3,8 C 96 % 1024,4 hPa 0,0 l/m 2,8 km/h (1 Bft) S-SW 211 0 min 0,000 mm 0,0 UV-I 0 W/m 3,2 C 3,8 C 4,8 km/h (1 Bft) 100,00 %
12.03.2016 01:19 3,8 C 96 % 1024,5 hPa 0,0 l/m 2,4 km/h (1 Bft) S-SW 211 0 min 0,000 mm 0,0 UV-I 0 W/m 3,2 C 3,8 C 3,2 km/h (1 Bft) 100,00 %
12.03.2016 01:20 3,8 C 96 % 1024,5 hPa 0,0 l/m 2,9 km/h (1 Bft) S-SW 207 0 min 0,000 mm 0,0 UV-I 0 W/m 3,2 C 3,8 C 4,8 km/h (1 Bft) 100,00 %
12.03.2016 01:21 3,8 C 96 % 1024,5 hPa 0,0 l/m 3,3 km/h (1 Bft) S-SW 207 0 min 0,000 mm 0,0 UV-I 0 W/m 3,2 C 3,8 C 4,8 km/h (1 Bft) 100,00 %
12.03.2016 01:22 3,8 C 96 % 1024,5 hPa 0,0 l/m 3,0 km/h (1 Bft) S-SW 207 0 min 0,000 mm 0,0 UV-I 0 W/m 3,2 C 3,8 C 3,2 km/h (1 Bft) 100,00 %
12.03.2016 01:23 3,8 C 96 % 1024,4 hPa 0,0 l/m 2,5 km/h (1 Bft) S-SW 207 0 min 0,000 mm 0,0 UV-I 0 W/m 3,2 C 3,8 C 3,2 km/h (1 Bft) 100,00 %
12.03.2016 01:24 3,8 C 96 % 1024,6 hPa 0,0 l/m 3,3 km/h (1 Bft) S-SW 207 0 min 0,000 mm 0,0 UV-I 0 W/m 3,2 C 3,8 C 4,8 km/h (1 Bft) 100,00 %
12.03.2016 01:25 3,8 C 96 % 1024,5 hPa 0,0 l/m 3,3 km/h (1 Bft) S-SW 207 0 min 0,000 mm 0,0 UV-I 0 W/m 3,2 C 3,8 C 4,8 km/h (1 Bft) 100,00 %
12.03.2016 01:26 3,8 C 96 % 1024,5 hPa 0,0 l/m 2,7 km/h (1 Bft) S-SW 207 0 min 0,000 mm 0,0 UV-I 0 W/m 3,2 C 3,8 C 3,2 km/h (1 Bft) 100,00 %
12.03.2016 01:27 3,8 C 96 % 1024,5 hPa 0,0 l/m 1,5 km/h (1 Bft) S-SW 207 0 min 0,000 mm 0,0 UV-I 0 W/m 3,2 C 3,8 C 1,6 km/h (1 Bft) 100,00 %
12.03.2016 01:28 3,8 C 96 % 1024,6 hPa 0,0 l/m 1,7 km/h (1 Bft) S-SW 207 0 min 0,000 mm 0,0 UV-I 0 W/m 3,2 C 3,8 C 3,2 km/h (1 Bft) 100,00 %
12.03.2016 01:29 3,8 C 96 % 1024,6 hPa 0,0 l/m 2,7 km/h (1 Bft) S-SW 207 0 min 0,000 mm 0,0 UV-I 0 W/m 3,2 C 3,8 C 3,2 km/h (1 Bft) 100,00 %
12.03.2016 01:30 3,8 C 96 % 1024,5 hPa 0,0 l/m 2,6 km/h (1 Bft) S-SW 207 0 min 0,000 mm 0,0 UV-I 0 W/m 3,2 C 3,8 C 3,2 km/h (1 Bft) 100,00 %
12.03.2016 01:31 3,8 C 96 % 1024,6 hPa 0,0 l/m 2,1 km/h (1 Bft) S-SW 207 0 min 0,000 mm 0,0 UV-I 0 W/m 3,2 C 3,8 C 3,2 km/h (1 Bft) 100,00 %
12.03.2016 01:32 3,8 C 96 % 1024,5 hPa 0,0 l/m 1,2 km/h (1 Bft) S-SW 207 0 min 0,000 mm 0,0 UV-I 0 W/m 3,2 C 3,8 C 1,6 km/h (1 Bft) 100,00 %
12.03.2016 01:33 3,8 C 96 % 1024,5 hPa 0,0 l/m 1,4 km/h (1 Bft) S-SW 207 0 min 0,000 mm 0,0 UV-I 0 W/m 3,2 C 3,8 C 1,6 km/h (1 Bft) 100,00 %
12.03.2016 01:34 3,8 C 96 % 1024,6 hPa 0,0 l/m 2,6 km/h (1 Bft) S-SW 207 0 min 0,000 mm 0,0 UV-I 0 W/m 3,2 C 3,8 C 4,8 km/h (1 Bft) 95,65 %
12.03.2016 01:35 3,8 C 96 % 1024,6 hPa 0,0 l/m 2,4 km/h (1 Bft) S-SW 207 0 min 0,000 mm 0,0 UV-I 0 W/m 3,2 C 3,8 C 3,2 km/h (1 Bft) 100,00 %
12.03.2016 01:36 3,8 C 96 % 1024,6 hPa 0,0 l/m 1,1 km/h (1 Bft) S-SW 207 0 min 0,000 mm 0,0 UV-I 0 W/m 3,2 C 3,8 C 1,6 km/h (1 Bft) 100,00 %
12.03.2016 01:37 3,8 C 96 % 1024,6 hPa 0,0 l/m 2,9 km/h (1 Bft) S-SW 207 0 min 0,000 mm 0,0 UV-I 0 W/m 3,2 C 3,8 C 4,8 km/h (1 Bft) 100,00 %
12.03.2016 01:38 3,8 C 96 % 1024,6 hPa 0,0 l/m 2,8 km/h (1 Bft) S-SW 207 0 min 0,000 mm 0,0 UV-I 0 W/m 3,2 C 3,8 C 3,2 km/h (1 Bft) 100,00 %
12.03.2016 01:39 3,8 C 96 % 1024,6 hPa 0,0 l/m 2,0 km/h (1 Bft) S-SW 207 0 min 0,000 mm 0,0 UV-I 0 W/m 3,2 C 3,8 C 3,2 km/h (1 Bft) 100,00 %
12.03.2016 01:40 3,8 C 96 % 1024,6 hPa 0,0 l/m 1,1 km/h (1 Bft) S-SW 207 0 min 0,000 mm 0,0 UV-I 0 W/m 3,2 C 3,8 C 3,2 km/h (1 Bft) 100,00 %
12.03.2016 01:41 3,8 C 96 % 1024,6 hPa 0,0 l/m 0,8 km/h (0 Bft) S-SW 207 0 min 0,000 mm 0,0 UV-I 0 W/m 3,2 C 3,8 C 1,6 km/h (1 Bft) 96,15 %
12.03.2016 01:42 3,8 C 96 % 1024,6 hPa 0,0 l/m 1,2 km/h (1 Bft) S-SW 207 0 min 0,000 mm 0,0 UV-I 0 W/m 3,2 C 3,8 C 3,2 km/h (1 Bft) 100,00 %
12.03.2016 01:43 3,8 C 96 % 1024,6 hPa 0,0 l/m 1,4 km/h (1 Bft) S-SW 207 0 min 0,000 mm 0,0 UV-I 0 W/m 3,2 C 3,8 C 3,2 km/h (1 Bft) 100,00 %
12.03.2016 01:44 3,8 C 96 % 1024,6 hPa 0,0 l/m 1,0 km/h (0 Bft) S-SW 207 0 min 0,000 mm 0,0 UV-I 0 W/m 3,2 C 3,8 C 1,6 km/h (1 Bft) 100,00 %
12.03.2016 01:45 3,8 C 96 % 1024,6 hPa 0,0 l/m 0,3 km/h (0 Bft) S-SW 207 0 min 0,000 mm 0,0 UV-I 0 W/m 3,2 C 3,8 C 1,6 km/h (1 Bft) 100,00 %
12.03.2016 01:46 3,8 C 96 % 1024,6 hPa 0,0 l/m 1,0 km/h (0 Bft) S-SW 207 0 min 0,000 mm 0,0 UV-I 0 W/m 3,2 C 3,8 C 1,6 km/h (1 Bft) 100,00 %
12.03.2016 01:47 3,8 C 96 % 1024,6 hPa 0,0 l/m 1,5 km/h (1 Bft) S-SW 207 0 min 0,000 mm 0,0 UV-I 0 W/m 3,2 C 3,8 C 3,2 km/h (1 Bft) 100,00 %
12.03.2016 01:48 3,8 C 96 % 1024,6 hPa 0,0 l/m 1,3 km/h (1 Bft) S-SW 207 0 min 0,000 mm 0,0 UV-I 0 W/m 3,2 C 3,8 C 3,2 km/h (1 Bft) 100,00 %
12.03.2016 01:49 3,8 C 96 % 1024,6 hPa 0,0 l/m 2,1 km/h (1 Bft) S-SW 207 0 min 0,000 mm 0,0 UV-I 0 W/m 3,2 C 3,8 C 3,2 km/h (1 Bft) 100,00 %
12.03.2016 01:50 3,9 C 96 % 1024,6 hPa 0,0 l/m 2,6 km/h (1 Bft) S-SW 207 0 min 0,000 mm 0,0 UV-I 0 W/m 3,3 C 3,9 C 3,2 km/h (1 Bft) 100,00 %
12.03.2016 01:51 3,9 C 96 % 1024,6 hPa 0,0 l/m 3,0 km/h (1 Bft) S-SW 207 0 min 0,000 mm 0,0 UV-I 0 W/m 3,3 C 3,9 C 4,8 km/h (1 Bft) 100,00 %
12.03.2016 01:52 3,9 C 96 % 1024,6 hPa 0,0 l/m 1,9 km/h (1 Bft) S-SW 207 0 min 0,000 mm 0,0 UV-I 0 W/m 3,3 C 3,9 C 3,2 km/h (1 Bft) 100,00 %
12.03.2016 01:53 3,8 C 96 % 1024,6 hPa 0,2 l/m 0,8 km/h (0 Bft) S-SW 207 0 min 0,000 mm 0,0 UV-I 0 W/m 3,2 C 3,8 C 1,6 km/h (1 Bft) 100,00 %
12.03.2016 01:54 3,9 C 96 % 1024,6 hPa 0,0 l/m 0,2 km/h (0 Bft) S-SW 207 0 min 0,000 mm 0,0 UV-I 0 W/m 3,3 C 3,9 C 1,6 km/h (1 Bft) 100,00 %
12.03.2016 01:55 3,9 C 96 % 1024,6 hPa 0,0 l/m 1,0 km/h (0 Bft) S-SW 207 0 min 0,000 mm 0,0 UV-I 0 W/m 3,3 C 3,9 C 1,6 km/h (1 Bft) 100,00 %
12.03.2016 01:56 3,9 C 96 % 1024,6 hPa 0,0 l/m 1,6 km/h (1 Bft) S-SW 207 0 min 0,000 mm 0,0 UV-I 0 W/m 3,3 C 3,9 C 3,2 km/h (1 Bft) 100,00 %
12.03.2016 01:57 3,9 C 96 % 1024,6 hPa 0,0 l/m 1,7 km/h (1 Bft) S-SW 207 0 min 0,000 mm 0,0 UV-I 0 W/m 3,3 C 3,9 C 3,2 km/h (1 Bft) 100,00 %
12.03.2016 01:58 3,9 C 96 % 1024,6 hPa 0,0 l/m 0,3 km/h (0 Bft) S-SW 207 0 min 0,000 mm 0,0 UV-I 0 W/m 3,3 C 3,9 C 1,6 km/h (1 Bft) 100,00 %
12.03.2016 01:59 3,9 C 96 % 1024,5 hPa 0,0 l/m 0,1 km/h (0 Bft) S-SW 207 0 min 0,000 mm 0,0 UV-I 0 W/m 3,3 C 3,9 C 1,6 km/h (1 Bft) 100,00 %
12.03.2016 02:00 3,9 C 96 % 1024,5 hPa 0,0 l/m 0,3 km/h (0 Bft) S-SW 207 0 min 0,000 mm 0,0 UV-I 0 W/m 3,3 C 3,9 C 1,6 km/h (1 Bft) 95,65 %
12.03.2016 02:01 3,9 C 96 % 1024,5 hPa 0,0 l/m 0,1 km/h (0 Bft) S-SW 207 0 min 0,000 mm 0,0 UV-I 0 W/m 3,3 C 3,9 C 1,6 km/h (1 Bft) 95,83 %
12.03.2016 02:02 3,9 C 96 % 1024,5 hPa 0,0 l/m 1,3 km/h (1 Bft) S-SW 207 0 min 0,000 mm 0,0 UV-I 0 W/m 3,3 C 3,9 C 3,2 km/h (1 Bft) 100,00 %
12.03.2016 02:03 3,9 C 96 % 1024,6 hPa 0,0 l/m 0,9 km/h (0 Bft) S-SW 207 0 min 0,000 mm 0,0 UV-I 0 W/m 3,3 C 3,9 C 3,2 km/h (1 Bft) 100,00 %
12.03.2016 02:04 3,9 C 96 % 1024,6 hPa 0,0 l/m 1,3 km/h (1 Bft) S-SW 207 0 min 0,000 mm 0,0 UV-I 0 W/m 3,3 C 3,9 C 3,2 km/h (1 Bft) 100,00 %
12.03.2016 02:05 3,9 C 96 % 1024,6 hPa 0,0 l/m 0,3 km/h (0 Bft) S-SW 207 0 min 0,000 mm 0,0 UV-I 0 W/m 3,3 C 3,9 C 1,6 km/h (1 Bft) 92,59 %
12.03.2016 02:06 3,9 C 96 % 1024,6 hPa 0,0 l/m 0,1 km/h (0 Bft) S-SW 207 0 min 0,000 mm 0,0 UV-I 0 W/m 3,3 C 3,9 C 1,6 km/h (1 Bft) 100,00 %
12.03.2016 02:07 3,8 C 96 % 1024,6 hPa 0,0 l/m 0,0 km/h (0 Bft) S-SW 207 0 min 0,000 mm 0,0 UV-I 0 W/m 3,2 C 3,8 C 0,0 km/h (0 Bft) 100,00 %
12.03.2016 02:08 3,8 C 96 % 1024,6 hPa 0,0 l/m 0,0 km/h (0 Bft) S-SW 207 0 min 0,000 mm 0,0 UV-I 0 W/m 3,2 C 3,8 C 0,0 km/h (0 Bft) 100,00 %
12.03.2016 02:09 3,9 C 96 % 1024,6 hPa 0,0 l/m 0,0 km/h (0 Bft) S-SW 207 0 min 0,000 mm 0,0 UV-I 0 W/m 3,3 C 3,9 C 0,0 km/h (0 Bft) 100,00 %
12.03.2016 02:10 3,8 C 96 % 1024,6 hPa 0,0 l/m 1,6 km/h (1 Bft) N-NW 345 0 min 0,000 mm 0,0 UV-I 0 W/m 3,2 C 3,8 C 4,8 km/h (1 Bft) 100,00 %
12.03.2016 02:11 3,8 C 96 % 1024,6 hPa 0,0 l/m 1,1 km/h (1 Bft) N-NW 345 0 min 0,000 mm 0,0 UV-I 0 W/m 3,2 C 3,8 C 1,6 km/h (1 Bft) 100,00 %
12.03.2016 02:12 3,9 C 96 % 1024,6 hPa 0,0 l/m 0,4 km/h (0 Bft) N-NW 345 0 min 0,000 mm 0,0 UV-I 0 W/m 3,3 C 3,9 C 1,6 km/h (1 Bft) 100,00 %
12.03.2016 02:13 3,8 C 96 % 1024,5 hPa 0,0 l/m 0,2 km/h (0 Bft) N-NW 345 0 min 0,000 mm 0,0 UV-I 0 W/m 3,2 C 3,8 C 1,6 km/h (1 Bft) 100,00 %
12.03.2016 02:14 3,9 C 96 % 1024,6 hPa 0,0 l/m 0,0 km/h (0 Bft) N-NW 345 0 min 0,000 mm 0,0 UV-I 0 W/m 3,3 C 3,9 C 0,0 km/h (0 Bft) 100,00 %
12.03.2016 02:15 3,9 C 96 % 1024,5 hPa 0,0 l/m 0,0 km/h (0 Bft) N-NW 345 0 min 0,000 mm 0,0 UV-I 0 W/m 3,3 C 3,9 C 0,0 km/h (0 Bft) 100,00 %
12.03.2016 02:16 3,9 C 96 % 1024,5 hPa 0,0 l/m 0,0 km/h (0 Bft) N-NW 345 0 min 0,000 mm 0,0 UV-I 0 W/m 3,3 C 3,9 C 0,0 km/h (0 Bft) 100,00 %
12.03.2016 02:17 3,9 C 96 % 1024,5 hPa 0,0 l/m 0,0 km/h (0 Bft) N-NW 345 0 min 0,000 mm 0,0 UV-I 0 W/m 3,3 C 3,9 C 0,0 km/h (0 Bft) 100,00 %
12.03.2016 02:18 3,9 C 96 % 1024,5 hPa 0,0 l/m 0,0 km/h (0 Bft) N-NW 345 0 min 0,000 mm 0,0 UV-I 0 W/m 3,3 C 3,9 C 0,0 km/h (0 Bft) 95,65 %
12.03.2016 02:19 3,9 C 96 % 1024,4 hPa 0,0 l/m 0,0 km/h (0 Bft) N-NW 345 0 min 0,000 mm 0,0 UV-I 0 W/m 3,3 C 3,9 C 0,0 km/h (0 Bft) 100,00 %
12.03.2016 02:20 3,9 C 96 % 1024,5 hPa 0,0 l/m 0,0 km/h (0 Bft) N-NW 345 0 min 0,000 mm 0,0 UV-I 0 W/m 3,3 C 3,9 C 0,0 km/h (0 Bft) 100,00 %
12.03.2016 02:21 3,9 C 96 % 1024,4 hPa 0,0 l/m 0,3 km/h (0 Bft) N-NW 345 0 min 0,000 mm 0,0 UV-I 0 W/m 3,3 C 3,9 C 1,6 km/h (1 Bft) 100,00 %
12.03.2016 02:22 3,9 C 96 % 1024,4 hPa 0,0 l/m 0,3 km/h (0 Bft) N-NW 345 0 min 0,000 mm 0,0 UV-I 0 W/m 3,3 C 3,9 C 1,6 km/h (1 Bft) 100,00 %
12.03.2016 02:23 3,9 C 96 % 1024,4 hPa 0,0 l/m 1,2 km/h (1 Bft) N-NW 345 0 min 0,000 mm 0,0 UV-I 0 W/m 3,3 C 3,9 C 1,6 km/h (1 Bft) 100,00 %
12.03.2016 02:24 3,9 C 96 % 1024,4 hPa 0,0 l/m 1,2 km/h (1 Bft) N-NW 345 0 min 0,000 mm 0,0 UV-I 0 W/m 3,3 C 3,9 C 1,6 km/h (1 Bft) 100,00 %
12.03.2016 02:25 3,9 C 96 % 1024,4 hPa 0,0 l/m 0,8 km/h (0 Bft) N-NW 345 0 min 0,000 mm 0,0 UV-I 0 W/m 3,3 C 3,9 C 1,6 km/h (1 Bft) 100,00 %
12.03.2016 02:26 3,9 C 96 % 1024,4 hPa 0,0 l/m 0,8 km/h (0 Bft) N-NW 345 0 min 0,000 mm 0,0 UV-I 0 W/m 3,3 C 3,9 C 1,6 km/h (1 Bft) 100,00 %
12.03.2016 02:27 3,9 C 96 % 1024,4 hPa 0,0 l/m 1,8 km/h (1 Bft) N-NW 345 0 min 0,000 mm 0,0 UV-I 0 W/m 3,3 C 3,9 C 3,2 km/h (1 Bft) 96,15 %
12.03.2016 02:28 3,9 C 96 % 1024,4 hPa 0,0 l/m 1,7 km/h (1 Bft) N-NW 345 0 min 0,000 mm 0,0 UV-I 0 W/m 3,3 C 3,9 C 3,2 km/h (1 Bft) 96,30 %
12.03.2016 02:29 3,9 C 96 % 1024,3 hPa 0,0 l/m 0,0 km/h (0 Bft) N-NW 345 0 min 0,000 mm 0,0 UV-I 0 W/m 3,3 C 3,9 C 0,0 km/h (0 Bft) 100,00 %
12.03.2016 02:30 3,9 C 96 % 1024,3 hPa 0,0 l/m 0,0 km/h (0 Bft) N-NW 345 0 min 0,000 mm 0,0 UV-I 0 W/m 3,3 C 3,9 C 0,0 km/h (0 Bft) 95,83 %
12.03.2016 02:31 3,8 C 96 % 1024,3 hPa 0,0 l/m 0,0 km/h (0 Bft) N-NW 345 0 min 0,000 mm 0,0 UV-I 0 W/m 3,2 C 3,8 C 0,0 km/h (0 Bft) 98,83 %
12.03.2016 02:32 3,9 C 96 % 1024,3 hPa 0,0 l/m 0,0 km/h (0 Bft) N-NW 345 0 min 0,000 mm 0,0 UV-I 0 W/m 3,3 C 3,9 C 0,0 km/h (0 Bft) 97,56 %
12.03.2016 02:33 3,8 C 96 % 1024,3 hPa 0,0 l/m 0,0 km/h (0 Bft) N-NW 345 0 min 0,000 mm 0,0 UV-I 0 W/m 3,2 C 3,8 C 0,0 km/h (0 Bft) 95,83 %
12.03.2016 02:34 3,8 C 96 % 1024,3 hPa 0,0 l/m 0,0 km/h (0 Bft) N-NW 345 0 min 0,000 mm 0,0 UV-I 0 W/m 3,2 C 3,8 C 0,0 km/h (0 Bft) 95,65 %
12.03.2016 02:35 3,8 C 96 % 1024,3 hPa 0,0 l/m 0,0 km/h (0 Bft) N-NW 345 0 min 0,000 mm 0,0 UV-I 0 W/m 3,2 C 3,8 C 0,0 km/h (0 Bft) 95,83 %
12.03.2016 02:36 3,9 C 96 % 1024,2 hPa 0,0 l/m 1,3 km/h (1 Bft) N-NW 345 0 min 0,000 mm 0,0 UV-I 0 W/m 3,3 C 3,9 C 3,2 km/h (1 Bft) 100,00 %
12.03.2016 02:37 3,8 C 96 % 1024,2 hPa 0,0 l/m 0,9 km/h (0 Bft) N-NW 345 0 min 0,000 mm 0,0 UV-I 0 W/m 3,2 C 3,8 C 1,6 km/h (1 Bft) 92,59 %
12.03.2016 02:38 3,8 C 96 % 1024,2 hPa 0,0 l/m 0,0 km/h (0 Bft) N-NW 345 0 min 0,000 mm 0,0 UV-I 0 W/m 3,2 C 3,8 C 0,0 km/h (0 Bft) 96,15 %
12.03.2016 02:39 3,8 C 96 % 1024,2 hPa 0,0 l/m 0,0 km/h (0 Bft) N-NW 345 0 min 0,000 mm 0,0 UV-I 0 W/m 3,2 C 3,8 C 0,0 km/h (0 Bft) 96,15 %
12.03.2016 02:40 3,8 C 96 % 1024,2 hPa 0,0 l/m 0,0 km/h (0 Bft) N-NW 345 0 min 0,000 mm 0,0 UV-I 0 W/m 3,2 C 3,8 C 0,0 km/h (0 Bft) 100,00 %
12.03.2016 02:41 3,8 C 96 % 1024,2 hPa 0,0 l/m 0,1 km/h (0 Bft) N-NW 345 0 min 0,000 mm 0,0 UV-I 0 W/m 3,2 C 3,8 C 1,6 km/h (1 Bft) 95,83 %
12.03.2016 02:42 3,8 C 96 % 1024,2 hPa 0,0 l/m 1,3 km/h (1 Bft) N-NW 345 0 min 0,000 mm 0,0 UV-I 0 W/m 3,2 C 3,8 C 1,6 km/h (1 Bft) 96,15 %
12.03.2016 02:43 3,8 C 96 % 1024,2 hPa 0,0 l/m 0,5 km/h (0 Bft) N-NW 345 0 min 0,000 mm 0,0 UV-I 0 W/m 3,2 C 3,8 C 1,6 km/h (1 Bft) 100,00 %
12.03.2016 02:44 3,8 C 96 % 1024,2 hPa 0,0 l/m 0,0 km/h (0 Bft) N-NW 345 0 min 0,000 mm 0,0 UV-I 0 W/m 3,2 C 3,8 C 0,0 km/h (0 Bft) 95,65 %
12.03.2016 02:45 3,8 C 96 % 1024,2 hPa 0,0 l/m 0,1 km/h (0 Bft) N-NW 345 0 min 0,000 mm 0,0 UV-I 0 W/m 3,2 C 3,8 C 1,6 km/h (1 Bft) 100,00 %
12.03.2016 02:46 3,8 C 96 % 1024,2 hPa 0,0 l/m 0,0 km/h (0 Bft) N-NW 345 0 min 0,000 mm 0,0 UV-I 0 W/m 3,2 C 3,8 C 0,0 km/h (0 Bft) 95,65 %
12.03.2016 02:47 3,8 C 96 % 1024,2 hPa 0,0 l/m 0,0 km/h (0 Bft) N-NW 345 0 min 0,000 mm 0,0 UV-I 0 W/m 3,2 C 3,8 C 0,0 km/h (0 Bft) 95,83 %
12.03.2016 02:48 3,8 C 96 % 1024,2 hPa 0,0 l/m 0,0 km/h (0 Bft) N-NW 345 0 min 0,000 mm 0,0 UV-I 0 W/m 3,2 C 3,8 C 0,0 km/h (0 Bft) 91,30 %
12.03.2016 02:49 3,8 C 96 % 1024,2 hPa 0,0 l/m 0,0 km/h (0 Bft) N-NW 345 0 min 0,000 mm 0,0 UV-I 0 W/m 3,2 C 3,8 C 0,0 km/h (0 Bft) 95,83 %
12.03.2016 02:50 3,8 C 96 % 1024,1 hPa 0,0 l/m 0,0 km/h (0 Bft) N-NW 345 0 min 0,000 mm 0,0 UV-I 0 W/m 3,2 C 3,8 C 0,0 km/h (0 Bft) 92,86 %
12.03.2016 02:51 3,8 C 96 % 1024,1 hPa 0,0 l/m 0,0 km/h (0 Bft) N-NW 345 0 min 0,000 mm 0,0 UV-I 0 W/m 3,2 C 3,8 C 0,0 km/h (0 Bft) 96,30 %
12.03.2016 02:52 3,8 C 96 % 1024,1 hPa 0,0 l/m 0,0 km/h (0 Bft) N-NW 345 0 min 0,000 mm 0,0 UV-I 0 W/m 3,2 C 3,8 C 0,0 km/h (0 Bft) 100,00 %
12.03.2016 02:53 3,8 C 96 % 1024,1 hPa 0,0 l/m 0,0 km/h (0 Bft) N-NW 345 0 min 0,000 mm 0,0 UV-I 0 W/m 3,2 C 3,8 C 0,0 km/h (0 Bft) 93,33 %
12.03.2016 02:54 3,8 C 96 % 1024,1 hPa 0,0 l/m 0,0 km/h (0 Bft) N-NW 345 0 min 0,000 mm 0,0 UV-I 0 W/m 3,2 C 3,8 C 0,0 km/h (0 Bft) 100,00 %
12.03.2016 02:55 3,7 C 96 % 1024,1 hPa 0,0 l/m 0,0 km/h (0 Bft) N-NW 345 0 min 0,000 mm 0,0 UV-I 0 W/m 3,1 C 3,7 C 0,0 km/h (0 Bft) 95,83 %
12.03.2016 02:56 3,7 C 96 % 1024,1 hPa 0,0 l/m 0,0 km/h (0 Bft) N-NW 345 0 min 0,000 mm 0,0 UV-I 0 W/m 3,1 C 3,7 C 0,0 km/h (0 Bft) 100,00 %
12.03.2016 02:57 3,7 C 96 % 1024,1 hPa 0,0 l/m 0,0 km/h (0 Bft) N-NW 345 0 min 0,000 mm 0,0 UV-I 0 W/m 3,1 C 3,7 C 0,0 km/h (0 Bft) 97,37 %
12.03.2016 02:58 3,7 C 96 % 1024,1 hPa 0,0 l/m 0,0 km/h (0 Bft) N-NW 345 0 min 0,000 mm 0,0 UV-I 0 W/m 3,1 C 3,7 C 0,0 km/h (0 Bft) 100,00 %
12.03.2016 02:59 3,7 C 96 % 1024,1 hPa 0,0 l/m 0,0 km/h (0 Bft) N-NW 345 0 min 0,000 mm 0,0 UV-I 0 W/m 3,1 C 3,7 C 0,0 km/h (0 Bft) 95,65 %
12.03.2016 03:00 3,7 C 96 % 1024,1 hPa 0,0 l/m 0,0 km/h (0 Bft) N-NW 345 0 min 0,000 mm 0,0 UV-I 0 W/m 3,1 C 3,7 C 0,0 km/h (0 Bft) 95,83 %
12.03.2016 03:02 3,7 C 96 % 1024,1 hPa 0,0 l/m 0,0 km/h (0 Bft) N-NW 345 0 min 0,000 mm 0,0 UV-I 0 W/m 3,1 C 3,7 C 0,0 km/h (0 Bft) 100,00 %
12.03.2016 03:03 3,7 C 96 % 1024,1 hPa 0,0 l/m 0,0 km/h (0 Bft) N-NW 345 0 min 0,000 mm 0,0 UV-I 0 W/m 3,1 C 3,7 C 0,0 km/h (0 Bft) 100,00 %
12.03.2016 03:04 3,7 C 96 % 1024,1 hPa 0,0 l/m 0,0 km/h (0 Bft) N-NW 345 0 min 0,000 mm 0,0 UV-I 0 W/m 3,1 C 3,7 C 0,0 km/h (0 Bft) 100,00 %
12.03.2016 03:05 3,7 C 96 % 1024,1 hPa 0,0 l/m 0,0 km/h (0 Bft) N-NW 345 0 min 0,000 mm 0,0 UV-I 0 W/m 3,1 C 3,7 C 0,0 km/h (0 Bft) 100,00 %
12.03.2016 03:06 3,7 C 96 % 1024,1 hPa 0,0 l/m 0,0 km/h (0 Bft) N-NW 345 0 min 0,000 mm 0,0 UV-I 0 W/m 3,1 C 3,7 C 0,0 km/h (0 Bft) 100,00 %
12.03.2016 03:07 3,7 C 96 % 1024,1 hPa 0,0 l/m 0,0 km/h (0 Bft) N-NW 345 0 min 0,000 mm 0,0 UV-I 0 W/m 3,1 C 3,7 C 0,0 km/h (0 Bft) 96,15 %
12.03.2016 03:08 3,7 C 96 % 1024,1 hPa 0,0 l/m 0,0 km/h (0 Bft) N-NW 345 0 min 0,000 mm 0,0 UV-I 0 W/m 3,1 C 3,7 C 0,0 km/h (0 Bft) 100,00 %
12.03.2016 03:09 3,7 C 96 % 1024,1 hPa 0,0 l/m 0,0 km/h (0 Bft) N-NW 345 0 min 0,000 mm 0,0 UV-I 0 W/m 3,1 C 3,7 C 0,0 km/h (0 Bft) 100,00 %
12.03.2016 03:10 3,6 C 96 % 1024,1 hPa 0,0 l/m 0,0 km/h (0 Bft) N-NW 345 0 min 0,000 mm 0,0 UV-I 0 W/m 3,0 C 3,6 C 0,0 km/h (0 Bft) 100,00 %
12.03.2016 03:12 3,6 C 96 % 1024,1 hPa 0,0 l/m 0,0 km/h (0 Bft) N-NW 345 0 min 0,000 mm 0,0 UV-I 0 W/m 3,0 C 3,6 C 0,0 km/h (0 Bft) 100,00 %
12.03.2016 03:13 3,6 C 96 % 1024,1 hPa 0,0 l/m 0,0 km/h (0 Bft) N-NW 345 0 min 0,000 mm 0,0 UV-I 0 W/m 3,0 C 3,6 C 0,0 km/h (0 Bft) 91,30 %
12.03.2016 03:14 3,6 C 96 % 1024,1 hPa 0,0 l/m 0,0 km/h (0 Bft) N-NW 345 0 min 0,000 mm 0,0 UV-I 0 W/m 3,0 C 3,6 C 0,0 km/h (0 Bft) 100,00 %
12.03.2016 03:15 3,6 C 96 % 1024,1 hPa 0,0 l/m 0,0 km/h (0 Bft) N-NW 345 0 min 0,000 mm 0,0 UV-I 0 W/m 3,0 C 3,6 C 0,0 km/h (0 Bft) 100,00 %
12.03.2016 03:16 3,6 C 96 % 1024,1 hPa 0,0 l/m 0,0 km/h (0 Bft) N-NW 345 0 min 0,000 mm 0,0 UV-I 0 W/m 3,0 C 3,6 C 0,0 km/h (0 Bft) 100,00 %
12.03.2016 03:17 3,6 C 96 % 1024,1 hPa 0,0 l/m 0,0 km/h (0 Bft) N-NW 345 0 min 0,000 mm 0,0 UV-I 0 W/m 3,0 C 3,6 C 0,0 km/h (0 Bft) 100,00 %
12.03.2016 03:18 3,6 C 96 % 1024,1 hPa 0,0 l/m 0,0 km/h (0 Bft) N-NW 345 0 min 0,000 mm 0,0 UV-I 0 W/m 3,0 C 3,6 C 0,0 km/h (0 Bft) 100,00 %
12.03.2016 03:19 3,6 C 96 % 1024,2 hPa 0,0 l/m 0,0 km/h (0 Bft) N-NW 345 0 min 0,000 mm 0,0 UV-I 0 W/m 3,0 C 3,6 C 0,0 km/h (0 Bft) 100,00 %
12.03.2016 03:20 3,6 C 96 % 1024,1 hPa 0,0 l/m 0,0 km/h (0 Bft) N-NW 345 0 min 0,000 mm 0,0 UV-I 0 W/m 3,0 C 3,6 C 0,0 km/h (0 Bft) 100,00 %
12.03.2016 03:21 3,6 C 96 % 1024,1 hPa 0,0 l/m 0,0 km/h (0 Bft) N-NW 345 0 min 0,000 mm 0,0 UV-I 0 W/m 3,0 C 3,6 C 0,0 km/h (0 Bft) 100,00 %
12.03.2016 03:22 3,6 C 96 % 1024,1 hPa 0,0 l/m 0,0 km/h (0 Bft) N-NW 345 0 min 0,000 mm 0,0 UV-I 0 W/m 3,0 C 3,6 C 0,0 km/h (0 Bft) 100,00 %
12.03.2016 03:23 3,6 C 96 % 1024,1 hPa 0,0 l/m 0,0 km/h (0 Bft) N-NW 345 0 min 0,000 mm 0,0 UV-I 0 W/m 3,0 C 3,6 C 0,0 km/h (0 Bft) 100,00 %
12.03.2016 03:24 3,6 C 96 % 1024,1 hPa 0,0 l/m 0,0 km/h (0 Bft) N-NW 345 0 min 0,000 mm 0,0 UV-I 0 W/m 3,0 C 3,6 C 0,0 km/h (0 Bft) 100,00 %
12.03.2016 03:25 3,6 C 96 % 1024,1 hPa 0,0 l/m 0,0 km/h (0 Bft) N-NW 345 0 min 0,000 mm 0,0 UV-I 0 W/m 3,0 C 3,6 C 0,0 km/h (0 Bft) 95,83 %
12.03.2016 03:26 3,6 C 96 % 1024,2 hPa 0,0 l/m 0,0 km/h (0 Bft) N-NW 345 0 min 0,000 mm 0,0 UV-I 0 W/m 3,0 C 3,6 C 0,0 km/h (0 Bft) 100,00 %
12.03.2016 03:27 3,6 C 96 % 1024,2 hPa 0,0 l/m 0,0 km/h (0 Bft) N-NW 345 0 min 0,000 mm 0,0 UV-I 0 W/m 3,0 C 3,6 C 0,0 km/h (0 Bft) 100,00 %
12.03.2016 03:28 3,6 C 96 % 1024,1 hPa 0,0 l/m 0,0 km/h (0 Bft) N-NW 345 0 min 0,000 mm 0,0 UV-I 0 W/m 3,0 C 3,6 C 0,0 km/h (0 Bft) 100,00 %
12.03.2016 03:29 3,6 C 96 % 1024,2 hPa 0,0 l/m 0,0 km/h (0 Bft) N-NW 345 0 min 0,000 mm 0,0 UV-I 0 W/m 3,0 C 3,6 C 0,0 km/h (0 Bft) 100,00 %
12.03.2016 03:30 3,6 C 96 % 1024,2 hPa 0,0 l/m 0,0 km/h (0 Bft) N-NW 345 0 min 0,000 mm 0,0 UV-I 0 W/m 3,0 C 3,6 C 0,0 km/h (0 Bft) 96,15 %
12.03.2016 03:31 3,7 C 96 % 1024,1 hPa 0,0 l/m 0,0 km/h (0 Bft) N-NW 345 0 min 0,000 mm 0,0 UV-I 0 W/m 3,1 C 3,7 C 0,0 km/h (0 Bft) 100,00 %
12.03.2016 03:32 3,7 C 96 % 1024,1 hPa 0,0 l/m 0,0 km/h (0 Bft) N-NW 345 0 min 0,000 mm 0,0 UV-I 0 W/m 3,1 C 3,7 C 0,0 km/h (0 Bft) 95,65 %
12.03.2016 03:33 3,7 C 96 % 1024,1 hPa 0,0 l/m 0,0 km/h (0 Bft) N-NW 345 0 min 0,000 mm 0,0 UV-I 0 W/m 3,1 C 3,7 C 0,0 km/h (0 Bft) 100,00 %
12.03.2016 03:34 3,7 C 96 % 1024,2 hPa 0,0 l/m 0,1 km/h (0 Bft) N-NW 345 0 min 0,000 mm 0,0 UV-I 0 W/m 3,1 C 3,7 C 1,6 km/h (1 Bft) 95,83 %
12.03.2016 03:35 3,7 C 96 % 1024,2 hPa 0,0 l/m 0,1 km/h (0 Bft) N-NW 345 0 min 0,000 mm 0,0 UV-I 0 W/m 3,1 C 3,7 C 1,6 km/h (1 Bft) 95,65 %
12.03.2016 03:36 3,7 C 96 % 1024,2 hPa 0,0 l/m 0,1 km/h (0 Bft) N-NW 345 0 min 0,000 mm 0,0 UV-I 0 W/m 3,1 C 3,7 C 1,6 km/h (1 Bft) 100,00 %
12.03.2016 03:37 3,7 C 96 % 1024,1 hPa 0,0 l/m 0,1 km/h (0 Bft) N-NW 345 0 min 0,000 mm 0,0 UV-I 0 W/m 3,1 C 3,7 C 1,6 km/h (1 Bft) 100,00 %
12.03.2016 03:38 3,7 C 96 % 1024,2 hPa 0,0 l/m 0,0 km/h (0 Bft) N-NW 345 0 min 0,000 mm 0,0 UV-I 0 W/m 3,1 C 3,7 C 0,0 km/h (0 Bft) 100,00 %
12.03.2016 03:39 3,7 C 96 % 1024,2 hPa 0,0 l/m 0,0 km/h (0 Bft) N-NW 345 0 min 0,000 mm 0,0 UV-I 0 W/m 3,1 C 3,7 C 0,0 km/h (0 Bft) 100,00 %
12.03.2016 03:40 3,7 C 96 % 1024,2 hPa 0,0 l/m 0,9 km/h (0 Bft) N-NW 345 0 min 0,000 mm 0,0 UV-I 0 W/m 3,1 C 3,7 C 1,6 km/h (1 Bft) 100,00 %
12.03.2016 03:41 3,7 C 96 % 1024,2 hPa 0,0 l/m 2,1 km/h (1 Bft) N-NO 12 0 min 0,000 mm 0,0 UV-I 0 W/m 3,1 C 3,7 C 4,8 km/h (1 Bft) 95,65 %
12.03.2016 03:42 3,7 C 96 % 1024,2 hPa 0,0 l/m 0,8 km/h (0 Bft) N-NO 12 0 min 0,000 mm 0,0 UV-I 0 W/m 3,1 C 3,7 C 3,2 km/h (1 Bft) 100,00 %
12.03.2016 03:43 3,7 C 95 % 1024,2 hPa 0,0 l/m 1,0 km/h (0 Bft) N-NO 12 0 min 0,000 mm 0,0 UV-I 0 W/m 3,0 C 3,7 C 1,6 km/h (1 Bft) 100,00 %
12.03.2016 03:44 3,7 C 95 % 1024,2 hPa 0,0 l/m 1,0 km/h (0 Bft) N-NO 12 0 min 0,000 mm 0,0 UV-I 0 W/m 3,0 C 3,7 C 3,2 km/h (1 Bft) 100,00 %
12.03.2016 03:45 3,7 C 95 % 1024,3 hPa 0,0 l/m 2,5 km/h (1 Bft) N-NO 12 0 min 0,000 mm 0,0 UV-I 0 W/m 3,0 C 3,7 C 3,2 km/h (1 Bft) 100,00 %
12.03.2016 03:46 3,7 C 95 % 1024,2 hPa 0,0 l/m 1,5 km/h (1 Bft) N-NO 13 0 min 0,000 mm 0,0 UV-I 0 W/m 3,0 C 3,7 C 4,8 km/h (1 Bft) 100,00 %
12.03.2016 03:47 3,7 C 95 % 1024,2 hPa 0,0 l/m 3,2 km/h (1 Bft) N-NO 15 0 min 0,000 mm 0,0 UV-I 0 W/m 3,0 C 3,7 C 4,8 km/h (1 Bft) 100,00 %
12.03.2016 03:48 3,8 C 94 % 1024,2 hPa 0,0 l/m 3,4 km/h (1 Bft) N-NO 16 0 min 0,000 mm 0,0 UV-I 0 W/m 2,9 C 3,8 C 4,8 km/h (1 Bft) 100,00 %
12.03.2016 03:49 3,8 C 94 % 1024,2 hPa 0,0 l/m 3,5 km/h (1 Bft) N-NO 16 0 min 0,000 mm 0,0 UV-I 0 W/m 2,9 C 3,8 C 4,8 km/h (1 Bft) 100,00 %
12.03.2016 03:50 3,8 C 94 % 1024,2 hPa 0,0 l/m 2,4 km/h (1 Bft) N-NO 15 0 min 0,000 mm 0,0 UV-I 0 W/m 2,9 C 3,8 C 3,2 km/h (1 Bft) 100,00 %
12.03.2016 03:51 3,8 C 94 % 1024,2 hPa 0,0 l/m 2,9 km/h (1 Bft) N-NO 15 0 min 0,000 mm 0,0 UV-I 0 W/m 2,9 C 3,8 C 4,8 km/h (1 Bft) 100,00 %
12.03.2016 03:52 3,8 C 94 % 1024,2 hPa 0,0 l/m 3,1 km/h (1 Bft) N-NO 17 0 min 0,000 mm 0,0 UV-I 0 W/m 2,9 C 3,8 C 3,2 km/h (1 Bft) 100,00 %
12.03.2016 03:53 3,8 C 94 % 1024,2 hPa 0,0 l/m 3,2 km/h (1 Bft) N-NO 27 0 min 0,000 mm 0,0 UV-I 0 W/m 2,9 C 3,8 C 4,8 km/h (1 Bft) 100,00 %
12.03.2016 03:54 3,8 C 94 % 1024,2 hPa 0,0 l/m 1,6 km/h (1 Bft) N-NO 27 0 min 0,000 mm 0,0 UV-I 0 W/m 2,9 C 3,8 C 3,2 km/h (1 Bft) 96,15 %
12.03.2016 03:55 3,9 C 94 % 1024,2 hPa 0,0 l/m 3,3 km/h (1 Bft) N-NO 27 0 min 0,000 mm 0,0 UV-I 0 W/m 3,0 C 3,9 C 4,8 km/h (1 Bft) 93,33 %
12.03.2016 03:56 3,8 C 94 % 1024,2 hPa 0,0 l/m 2,5 km/h (1 Bft) N-NO 28 0 min 0,000 mm 0,0 UV-I 0 W/m 2,9 C 3,8 C 3,2 km/h (1 Bft) 100,00 %
12.03.2016 03:57 3,9 C 94 % 1024,2 hPa 0,0 l/m 2,9 km/h (1 Bft) N-NO 28 0 min 0,000 mm 0,0 UV-I 0 W/m 3,0 C 3,9 C 4,8 km/h (1 Bft) 100,00 %
12.03.2016 03:58 3,8 C 94 % 1024,2 hPa 0,0 l/m 2,7 km/h (1 Bft) N-NO 28 0 min 0,000 mm 0,0 UV-I 0 W/m 2,9 C 3,8 C 4,8 km/h (1 Bft) 100,00 %
12.03.2016 03:59 3,8 C 94 % 1024,3 hPa 0,0 l/m 0,0 km/h (0 Bft) N-NO 28 0 min 0,000 mm 0,0 UV-I 0 W/m 2,9 C 3,8 C 0,0 km/h (0 Bft) 100,00 %
12.03.2016 04:00 3,8 C 94 % 1024,2 hPa 0,0 l/m 0,0 km/h (0 Bft) N-NO 28 0 min 0,000 mm 0,0 UV-I 0 W/m 2,9 C 3,8 C 0,0 km/h (0 Bft) 96,15 %
12.03.2016 04:02 3,8 C 94 % 1024,2 hPa 0,0 l/m 0,0 km/h (0 Bft) N-NO 28 0 min 0,000 mm 0,0 UV-I 0 W/m 2,9 C 3,8 C 1,6 km/h (1 Bft) 96,15 %
12.03.2016 04:03 3,8 C 94 % 1024,3 hPa 0,0 l/m 0,8 km/h (0 Bft) N-NO 28 0 min 0,000 mm 0,0 UV-I 0 W/m 2,9 C 3,8 C 1,6 km/h (1 Bft) 100,00 %
12.03.2016 04:04 3,8 C 94 % 1024,2 hPa 0,0 l/m 0,3 km/h (0 Bft) N-NO 28 0 min 0,000 mm 0,0 UV-I 0 W/m 2,9 C 3,8 C 1,6 km/h (1 Bft) 92,86 %
12.03.2016 04:05 3,8 C 94 % 1024,2 hPa 0,0 l/m 1,3 km/h (1 Bft) N-NO 28 0 min 0,000 mm 0,0 UV-I 0 W/m 2,9 C 3,8 C 4,8 km/h (1 Bft) 100,00 %
12.03.2016 04:06 3,8 C 94 % 1024,2 hPa 0,0 l/m 2,3 km/h (1 Bft) N-NO 28 0 min 0,000 mm 0,0 UV-I 0 W/m 2,9 C 3,8 C 4,8 km/h (1 Bft) 100,00 %
12.03.2016 04:07 3,8 C 94 % 1024,2 hPa 0,0 l/m 2,2 km/h (1 Bft) N-NO 28 0 min 0,000 mm 0,0 UV-I 0 W/m 2,9 C 3,8 C 3,2 km/h (1 Bft) 100,00 %
12.03.2016 04:08 3,8 C 94 % 1024,2 hPa 0,0 l/m 2,0 km/h (1 Bft) N-NO 25 0 min 0,000 mm 0,0 UV-I 0 W/m 2,9 C 3,8 C 3,2 km/h (1 Bft) 100,00 %
12.03.2016 04:09 3,8 C 93 % 1024,2 hPa 0,0 l/m 4,7 km/h (1 Bft) N-NO 25 0 min 0,000 mm 0,0 UV-I 0 W/m 2,8 C 3,8 C 4,8 km/h (1 Bft) 100,00 %
12.03.2016 04:10 3,8 C 93 % 1024,2 hPa 0,0 l/m 3,1 km/h (1 Bft) N-NO 25 0 min 0,000 mm 0,0 UV-I 0 W/m 2,8 C 3,8 C 4,8 km/h (1 Bft) 100,00 %
12.03.2016 04:11 3,8 C 93 % 1024,3 hPa 0,0 l/m 4,2 km/h (1 Bft) N-NO 25 0 min 0,000 mm 0,0 UV-I 0 W/m 2,8 C 3,8 C 4,8 km/h (1 Bft) 99,05 %
12.03.2016 04:12 3,8 C 93 % 1024,3 hPa 0,0 l/m 3,8 km/h (1 Bft) N-NO 25 0 min 0,000 mm 0,0 UV-I 0 W/m 2,8 C 3,8 C 6,4 km/h (2 Bft) 100,00 %
12.03.2016 04:13 3,8 C 93 % 1024,2 hPa 0,0 l/m 3,4 km/h (1 Bft) N-NO 25 0 min 0,000 mm 0,0 UV-I 0 W/m 2,8 C 3,8 C 4,8 km/h (1 Bft) 100,00 %
12.03.2016 04:14 3,8 C 93 % 1024,2 hPa 0,0 l/m 3,4 km/h (1 Bft) N-NO 25 0 min 0,000 mm 0,0 UV-I 0 W/m 2,8 C 3,8 C 4,8 km/h (1 Bft) 100,00 %
12.03.2016 04:15 3,8 C 93 % 1024,2 hPa 0,0 l/m 3,4 km/h (1 Bft) N-NO 25 0 min 0,000 mm 0,0 UV-I 0 W/m 2,8 C 3,8 C 6,4 km/h (2 Bft) 95,83 %
12.03.2016 04:16 3,8 C 93 % 1024,2 hPa 0,0 l/m 3,3 km/h (1 Bft) N-NO 25 0 min 0,000 mm 0,0 UV-I 0 W/m 2,8 C 3,8 C 4,8 km/h (1 Bft) 100,00 %
12.03.2016 04:17 3,9 C 93 % 1024,2 hPa 0,0 l/m 2,8 km/h (1 Bft) N-NO 25 0 min 0,000 mm 0,0 UV-I 0 W/m 2,9 C 3,9 C 4,8 km/h (1 Bft) 100,00 %
12.03.2016 04:18 3,9 C 93 % 1024,2 hPa 0,0 l/m 1,9 km/h (1 Bft) N-NO 25 0 min 0,000 mm 0,0 UV-I 0 W/m 2,9 C 3,9 C 3,2 km/h (1 Bft) 100,00 %
12.03.2016 04:19 3,8 C 93 % 1024,2 hPa 0,0 l/m 1,1 km/h (1 Bft) N-NO 25 0 min 0,000 mm 0,0 UV-I 0 W/m 2,8 C 3,8 C 3,2 km/h (1 Bft) 100,00 %
12.03.2016 04:20 3,8 C 93 % 1024,2 hPa 0,0 l/m 1,1 km/h (1 Bft) N-NO 25 0 min 0,000 mm 0,0 UV-I 0 W/m 2,8 C 3,8 C 3,2 km/h (1 Bft) 100,00 %
12.03.2016 04:21 3,8 C 93 % 1024,2 hPa 0,0 l/m 1,7 km/h (1 Bft) N-NO 25 0 min 0,000 mm 0,0 UV-I 0 W/m 2,8 C 3,8 C 3,2 km/h (1 Bft) 95,65 %
12.03.2016 04:22 3,8 C 93 % 1024,2 hPa 0,0 l/m 1,7 km/h (1 Bft) N-NO 25 0 min 0,000 mm 0,0 UV-I 0 W/m 2,8 C 3,8 C 3,2 km/h (1 Bft) 95,83 %
12.03.2016 04:23 3,8 C 93 % 1024,2 hPa 0,0 l/m 2,3 km/h (1 Bft) N-NO 25 0 min 0,000 mm 0,0 UV-I 0 W/m 2,8 C 3,8 C 3,2 km/h (1 Bft) 100,00 %
12.03.2016 04:24 3,8 C 93 % 1024,2 hPa 0,0 l/m 2,3 km/h (1 Bft) N-NO 25 0 min 0,000 mm 0,0 UV-I 0 W/m 2,8 C 3,8 C 3,2 km/h (1 Bft) 100,00 %
12.03.2016 04:25 3,8 C 93 % 1024,2 hPa 0,0 l/m 3,1 km/h (1 Bft) N-NO 25 0 min 0,000 mm 0,0 UV-I 0 W/m 2,8 C 3,8 C 3,2 km/h (1 Bft) 96,15 %
12.03.2016 04:26 3,8 C 93 % 1024,3 hPa 0,0 l/m 2,1 km/h (1 Bft) N-NO 25 0 min 0,000 mm 0,0 UV-I 0 W/m 2,8 C 3,8 C 3,2 km/h (1 Bft) 100,00 %
12.03.2016 04:27 3,8 C 93 % 1024,2 hPa 0,0 l/m 2,3 km/h (1 Bft) N-NO 25 0 min 0,000 mm 0,0 UV-I 0 W/m 2,8 C 3,8 C 3,2 km/h (1 Bft) 95,65 %
12.03.2016 04:28 3,8 C 93 % 1024,2 hPa 0,0 l/m 1,8 km/h (1 Bft) N-NO 25 0 min 0,000 mm 0,0 UV-I 0 W/m 2,8 C 3,8 C 3,2 km/h (1 Bft) 95,83 %
12.03.2016 04:29 3,8 C 93 % 1024,2 hPa 0,0 l/m 1,5 km/h (1 Bft) N-NO 25 0 min 0,000 mm 0,0 UV-I 0 W/m 2,8 C 3,8 C 3,2 km/h (1 Bft) 100,00 %
12.03.2016 04:30 3,8 C 93 % 1024,2 hPa 0,0 l/m 1,7 km/h (1 Bft) N-NO 25 0 min 0,000 mm 0,0 UV-I 0 W/m 2,8 C 3,8 C 3,2 km/h (1 Bft) 95,83 %
12.03.2016 04:31 3,8 C 93 % 1024,3 hPa 0,0 l/m 1,8 km/h (1 Bft) N-NO 25 0 min 0,000 mm 0,0 UV-I 0 W/m 2,8 C 3,8 C 3,2 km/h (1 Bft) 100,00 %
12.03.2016 04:32 3,7 C 94 % 1024,3 hPa 0,0 l/m 2,4 km/h (1 Bft) N-NO 25 0 min 0,000 mm 0,0 UV-I 0 W/m 2,8 C 3,7 C 3,2 km/h (1 Bft) 95,83 %
12.03.2016 04:33 3,8 C 94 % 1024,3 hPa 0,0 l/m 1,9 km/h (1 Bft) N-NO 25 0 min 0,000 mm 0,0 UV-I 0 W/m 2,9 C 3,8 C 3,2 km/h (1 Bft) 95,65 %
12.03.2016 04:34 3,8 C 93 % 1024,2 hPa 0,0 l/m 3,1 km/h (1 Bft) N-NO 25 0 min 0,000 mm 0,0 UV-I 0 W/m 2,8 C 3,8 C 4,8 km/h (1 Bft) 91,67 %
12.03.2016 04:35 3,7 C 93 % 1024,3 hPa 0,0 l/m 2,3 km/h (1 Bft) N-NO 25 0 min 0,000 mm 0,0 UV-I 0 W/m 2,7 C 3,7 C 3,2 km/h (1 Bft) 94,74 %
12.03.2016 04:36 3,7 C 93 % 1024,3 hPa 0,0 l/m 2,7 km/h (1 Bft) N-NO 25 0 min 0,000 mm 0,0 UV-I 0 W/m 2,7 C 3,7 C 4,8 km/h (1 Bft) 100,00 %
12.03.2016 04:37 3,7 C 93 % 1024,3 hPa 0,0 l/m 1,6 km/h (1 Bft) N-NO 25 0 min 0,000 mm 0,0 UV-I 0 W/m 2,7 C 3,7 C 1,6 km/h (1 Bft) 91,67 %
12.03.2016 04:38 3,8 C 93 % 1024,3 hPa 0,0 l/m 1,3 km/h (1 Bft) N-NO 25 0 min 0,000 mm 0,0 UV-I 0 W/m 2,8 C 3,8 C 3,2 km/h (1 Bft) 100,00 %
12.03.2016 04:39 3,8 C 93 % 1024,2 hPa 0,0 l/m 2,7 km/h (1 Bft) N-NO 25 0 min 0,000 mm 0,0 UV-I 0 W/m 2,8 C 3,8 C 4,8 km/h (1 Bft) 96,30 %
12.03.2016 04:40 3,8 C 93 % 1024,3 hPa 0,0 l/m 2,2 km/h (1 Bft) N-NO 25 0 min 0,000 mm 0,0 UV-I 0 W/m 2,8 C 3,8 C 3,2 km/h (1 Bft) 100,00 %
12.03.2016 04:42 3,8 C 93 % 1024,3 hPa 0,0 l/m 2,9 km/h (1 Bft) N-NO 25 0 min 0,000 mm 0,0 UV-I 0 W/m 2,8 C 3,8 C 4,8 km/h (1 Bft) 96,43 %
12.03.2016 04:43 3,8 C 93 % 1024,3 hPa 0,0 l/m 4,2 km/h (1 Bft) N-NO 25 0 min 0,000 mm 0,0 UV-I 0 W/m 2,8 C 3,8 C 4,8 km/h (1 Bft) 100,00 %
12.03.2016 04:44 3,7 C 93 % 1024,3 hPa 0,0 l/m 3,4 km/h (1 Bft) N-NO 25 0 min 0,000 mm 0,0 UV-I 0 W/m 2,7 C 3,7 C 4,8 km/h (1 Bft) 95,65 %
12.03.2016 04:45 3,8 C 93 % 1024,2 hPa 0,0 l/m 4,8 km/h (1 Bft) N-NO 32 0 min 0,000 mm 0,0 UV-I 0 W/m 2,8 C 3,8 C 6,4 km/h (2 Bft) 100,00 %
12.03.2016 04:46 3,7 C 93 % 1024,2 hPa 0,0 l/m 3,1 km/h (1 Bft) N-NO 32 0 min 0,000 mm 0,0 UV-I 0 W/m 2,7 C 3,7 C 4,8 km/h (1 Bft) 91,30 %
12.03.2016 04:47 3,7 C 93 % 1024,3 hPa 0,0 l/m 5,8 km/h (2 Bft) NO 38 0 min 0,000 mm 0,0 UV-I 0 W/m 2,7 C 3,7 C 9,7 km/h (2 Bft) 100,00 %
12.03.2016 04:48 3,7 C 92 % 1024,3 hPa 0,0 l/m 6,1 km/h (2 Bft) N-NO 28 0 min 0,000 mm 0,0 UV-I 0 W/m 2,5 C 3,7 C 8,0 km/h (2 Bft) 92,86 %
12.03.2016 04:49 3,8 C 92 % 1024,2 hPa 0,0 l/m 3,5 km/h (1 Bft) N-NO 26 0 min 0,000 mm 0,0 UV-I 0 W/m 2,6 C 3,8 C 4,8 km/h (1 Bft) 100,00 %
12.03.2016 04:50 3,8 C 92 % 1024,3 hPa 0,0 l/m 3,0 km/h (1 Bft) N-NO 26 0 min 0,000 mm 0,0 UV-I 0 W/m 2,6 C 3,8 C 6,4 km/h (2 Bft) 92,31 %
12.03.2016 04:51 3,8 C 92 % 1024,2 hPa 0,0 l/m 4,0 km/h (1 Bft) N-NO 29 0 min 0,000 mm 0,0 UV-I 0 W/m 2,6 C 3,8 C 6,4 km/h (2 Bft) 100,00 %
12.03.2016 04:52 3,8 C 92 % 1024,3 hPa 0,0 l/m 5,0 km/h (1 Bft) N-NO 30 0 min 0,000 mm 0,0 UV-I 0 W/m 2,6 C 3,8 C 6,4 km/h (2 Bft) 95,83 %
12.03.2016 04:53 3,8 C 92 % 1024,2 hPa 0,0 l/m 8,4 km/h (2 Bft) NO 38 0 min 0,000 mm 0,0 UV-I 0 W/m 2,6 C 2,0 C 9,7 km/h (2 Bft) 92,31 %
12.03.2016 04:54 3,8 C 92 % 1024,2 hPa 0,0 l/m 7,4 km/h (2 Bft) NO 46 0 min 0,000 mm 0,0 UV-I 0 W/m 2,6 C 2,9 C 11,3 km/h (2 Bft) 100,00 %
12.03.2016 04:55 3,8 C 91 % 1024,2 hPa 0,0 l/m 7,1 km/h (2 Bft) NO 48 0 min 0,000 mm 0,0 UV-I 0 W/m 2,5 C 3,2 C 11,3 km/h (2 Bft) 92,59 %
12.03.2016 04:56 3,8 C 91 % 1024,2 hPa 0,0 l/m 8,2 km/h (2 Bft) N-NO 29 0 min 0,000 mm 0,0 UV-I 0 W/m 2,5 C 2,2 C 12,9 km/h (3 Bft) 100,00 %
12.03.2016 04:57 3,8 C 91 % 1024,2 hPa 0,0 l/m 6,7 km/h (2 Bft) N-NO 33 0 min 0,000 mm 0,0 UV-I 0 W/m 2,5 C 3,5 C 9,7 km/h (2 Bft) 96,15 %
12.03.2016 04:58 3,8 C 91 % 1024,2 hPa 0,0 l/m 7,4 km/h (2 Bft) NO 36 0 min 0,000 mm 0,0 UV-I 0 W/m 2,5 C 2,9 C 11,3 km/h (2 Bft) 100,00 %
12.03.2016 04:59 3,8 C 91 % 1024,2 hPa 0,0 l/m 7,4 km/h (2 Bft) N 10 0 min 0,000 mm 0,0 UV-I 0 W/m 2,5 C 2,9 C 9,7 km/h (2 Bft) 100,00 %
12.03.2016 05:00 3,8 C 92 % 1024,2 hPa 0,0 l/m 6,4 km/h (2 Bft) N-NO 16 0 min 0,000 mm 0,0 UV-I 0 W/m 2,6 C 3,8 C 8,0 km/h (2 Bft) 96,30 %
12.03.2016 05:01 3,8 C 92 % 1024,2 hPa 0,0 l/m 6,0 km/h (2 Bft) N-NO 29 0 min 0,000 mm 0,0 UV-I 0 W/m 2,6 C 3,8 C 8,0 km/h (2 Bft) 100,00 %
12.03.2016 05:02 3,8 C 92 % 1024,1 hPa 0,0 l/m 4,3 km/h (1 Bft) NO 39 0 min 0,000 mm 0,0 UV-I 0 W/m 2,6 C 3,8 C 6,4 km/h (2 Bft) 96,30 %
12.03.2016 05:03 3,8 C 92 % 1024,1 hPa 0,0 l/m 7,0 km/h (2 Bft) NO 54 0 min 0,000 mm 0,0 UV-I 0 W/m 2,6 C 3,3 C 9,7 km/h (2 Bft) 100,00 %
12.03.2016 05:04 3,7 C 92 % 1024,1 hPa 0,0 l/m 6,1 km/h (2 Bft) N-NO 28 0 min 0,000 mm 0,0 UV-I 0 W/m 2,5 C 3,7 C 8,0 km/h (2 Bft) 96,30 %
12.03.2016 05:05 3,7 C 92 % 1024,2 hPa 0,0 l/m 4,9 km/h (1 Bft) NO 41 0 min 0,000 mm 0,0 UV-I 0 W/m 2,5 C 3,7 C 8,0 km/h (2 Bft) 100,00 %
12.03.2016 05:06 3,7 C 91 % 1024,2 hPa 0,0 l/m 5,1 km/h (1 Bft) NO 41 0 min 0,000 mm 0,0 UV-I 0 W/m 2,4 C 3,7 C 6,4 km/h (2 Bft) 100,00 %
12.03.2016 05:07 3,8 C 91 % 1024,2 hPa 0,0 l/m 3,0 km/h (1 Bft) NO 41 0 min 0,000 mm 0,0 UV-I 0 W/m 2,5 C 3,8 C 4,8 km/h (1 Bft) 100,00 %
12.03.2016 05:08 3,8 C 91 % 1024,2 hPa 0,0 l/m 4,2 km/h (1 Bft) NO 46 0 min 0,000 mm 0,0 UV-I 0 W/m 2,5 C 3,8 C 6,4 km/h (2 Bft) 97,87 %
12.03.2016 05:09 3,8 C 91 % 1024,1 hPa 0,0 l/m 4,7 km/h (1 Bft) O-NO 57 0 min 0,000 mm 0,0 UV-I 0 W/m 2,5 C 3,8 C 6,4 km/h (2 Bft) 97,73 %
12.03.2016 05:10 3,8 C 91 % 1024,2 hPa 0,0 l/m 3,3 km/h (1 Bft) O-NO 57 0 min 0,000 mm 0,0 UV-I 0 W/m 2,5 C 3,8 C 4,8 km/h (1 Bft) 100,00 %
12.03.2016 05:11 3,8 C 90 % 1024,2 hPa 0,0 l/m 2,7 km/h (1 Bft) O-NO 57 0 min 0,000 mm 0,0 UV-I 0 W/m 2,3 C 3,8 C 4,8 km/h (1 Bft) 100,00 %
12.03.2016 05:12 3,8 C 90 % 1024,1 hPa 0,0 l/m 4,6 km/h (1 Bft) O-NO 60 0 min 0,000 mm 0,0 UV-I 0 W/m 2,3 C 3,8 C 6,4 km/h (2 Bft) 100,00 %
12.03.2016 05:13 3,8 C 90 % 1024,1 hPa 0,0 l/m 5,1 km/h (1 Bft) O-NO 67 0 min 0,000 mm 0,0 UV-I 0 W/m 2,3 C 3,8 C 6,4 km/h (2 Bft) 96,15 %
12.03.2016 05:14 3,8 C 90 % 1024,2 hPa 0,0 l/m 4,9 km/h (1 Bft) O-NO 66 0 min 0,000 mm 0,0 UV-I 0 W/m 2,3 C 3,8 C 6,4 km/h (2 Bft) 100,00 %
12.03.2016 05:15 3,8 C 90 % 1024,2 hPa 0,0 l/m 6,1 km/h (2 Bft) O-NO 67 0 min 0,000 mm 0,0 UV-I 0 W/m 2,3 C 3,8 C 8,0 km/h (2 Bft) 100,00 %
12.03.2016 05:16 3,8 C 90 % 1024,2 hPa 0,0 l/m 4,8 km/h (1 Bft) O-NO 63 0 min 0,000 mm 0,0 UV-I 0 W/m 2,3 C 3,8 C 6,4 km/h (2 Bft) 100,00 %
12.03.2016 05:17 3,8 C 90 % 1024,2 hPa 0,0 l/m 3,5 km/h (1 Bft) O-NO 63 0 min 0,000 mm 0,0 UV-I 0 W/m 2,3 C 3,8 C 4,8 km/h (1 Bft) 100,00 %
12.03.2016 05:18 3,8 C 90 % 1024,2 hPa 0,0 l/m 3,7 km/h (1 Bft) O-NO 63 0 min 0,000 mm 0,0 UV-I 0 W/m 2,3 C 3,8 C 4,8 km/h (1 Bft) 100,00 %
12.03.2016 05:19 3,8 C 90 % 1024,2 hPa 0,0 l/m 3,0 km/h (1 Bft) O-NO 63 0 min 0,000 mm 0,0 UV-I 0 W/m 2,3 C 3,8 C 4,8 km/h (1 Bft) 100,00 %
12.03.2016 05:20 3,8 C 90 % 1024,2 hPa 0,0 l/m 3,0 km/h (1 Bft) O-NO 63 0 min 0,000 mm 0,0 UV-I 0 W/m 2,3 C 3,8 C 4,8 km/h (1 Bft) 100,00 %
12.03.2016 05:21 3,8 C 90 % 1024,2 hPa 0,0 l/m 4,3 km/h (1 Bft) O-NO 62 0 min 0,000 mm 0,0 UV-I 0 W/m 2,3 C 3,8 C 6,4 km/h (2 Bft) 100,00 %
12.03.2016 05:22 3,8 C 90 % 1024,2 hPa 0,0 l/m 3,6 km/h (1 Bft) O-NO 61 0 min 0,000 mm 0,0 UV-I 0 W/m 2,3 C 3,8 C 4,8 km/h (1 Bft) 100,00 %
12.03.2016 05:23 3,8 C 90 % 1024,2 hPa 0,0 l/m 2,7 km/h (1 Bft) O-NO 61 0 min 0,000 mm 0,0 UV-I 0 W/m 2,3 C 3,8 C 3,2 km/h (1 Bft) 100,00 %
12.03.2016 05:24 3,8 C 91 % 1024,2 hPa 0,0 l/m 3,4 km/h (1 Bft) O-NO 61 0 min 0,000 mm 0,0 UV-I 0 W/m 2,5 C 3,8 C 4,8 km/h (1 Bft) 100,00 %
12.03.2016 05:25 3,8 C 91 % 1024,3 hPa 0,0 l/m 4,1 km/h (1 Bft) O-NO 61 0 min 0,000 mm 0,0 UV-I 0 W/m 2,5 C 3,8 C 6,4 km/h (2 Bft) 100,00 %
12.03.2016 05:26 3,8 C 91 % 1024,3 hPa 0,0 l/m 4,2 km/h (1 Bft) O-NO 67 0 min 0,000 mm 0,0 UV-I 0 W/m 2,5 C 3,8 C 6,4 km/h (2 Bft) 100,00 %
12.03.2016 05:27 3,8 C 91 % 1024,2 hPa 0,0 l/m 2,8 km/h (1 Bft) O-NO 67 0 min 0,000 mm 0,0 UV-I 0 W/m 2,5 C 3,8 C 4,8 km/h (1 Bft) 100,00 %
12.03.2016 05:28 3,7 C 91 % 1024,3 hPa 0,0 l/m 2,9 km/h (1 Bft) O-NO 67 0 min 0,000 mm 0,0 UV-I 0 W/m 2,4 C 3,7 C 4,8 km/h (1 Bft) 100,00 %
12.03.2016 05:29 3,7 C 91 % 1024,2 hPa 0,0 l/m 2,5 km/h (1 Bft) O-NO 67 0 min 0,000 mm 0,0 UV-I 0 W/m 2,4 C 3,7 C 3,2 km/h (1 Bft) 100,00 %
12.03.2016 05:30 3,7 C 92 % 1024,3 hPa 0,0 l/m 2,2 km/h (1 Bft) O-NO 67 0 min 0,000 mm 0,0 UV-I 0 W/m 2,5 C 3,7 C 3,2 km/h (1 Bft) 98,30 %
12.03.2016 05:31 3,7 C 92 % 1024,3 hPa 0,0 l/m 2,0 km/h (1 Bft) O-NO 67 0 min 0,000 mm 0,0 UV-I 0 W/m 2,5 C 3,7 C 3,2 km/h (1 Bft) 100,00 %
12.03.2016 05:32 3,7 C 92 % 1024,3 hPa 0,0 l/m 1,5 km/h (1 Bft) O-NO 67 0 min 0,000 mm 0,0 UV-I 0 W/m 2,5 C 3,7 C 3,2 km/h (1 Bft) 100,00 %
12.03.2016 05:33 3,6 C 92 % 1024,2 hPa 0,0 l/m 1,0 km/h (0 Bft) O-NO 67 0 min 0,000 mm 0,0 UV-I 0 W/m 2,4 C 3,6 C 3,2 km/h (1 Bft) 95,65 %
12.03.2016 05:34 3,6 C 92 % 1024,2 hPa 0,0 l/m 2,0 km/h (1 Bft) O-NO 67 0 min 0,000 mm 0,0 UV-I 0 W/m 2,4 C 3,6 C 3,2 km/h (1 Bft) 100,00 %
12.03.2016 05:35 3,6 C 93 % 1024,3 hPa 0,0 l/m 2,3 km/h (1 Bft) O-NO 67 0 min 0,000 mm 0,0 UV-I 0 W/m 2,6 C 3,6 C 3,2 km/h (1 Bft) 95,65 %
12.03.2016 05:36 3,6 C 93 % 1024,3 hPa 0,0 l/m 2,3 km/h (1 Bft) O-NO 67 0 min 0,000 mm 0,0 UV-I 0 W/m 2,6 C 3,6 C 3,2 km/h (1 Bft) 100,00 %
12.03.2016 05:37 3,5 C 93 % 1024,3 hPa 0,0 l/m 2,4 km/h (1 Bft) O-NO 67 0 min 0,000 mm 0,0 UV-I 0 W/m 2,5 C 3,5 C 3,2 km/h (1 Bft) 100,00 %
12.03.2016 05:38 3,5 C 93 % 1024,2 hPa 0,0 l/m 3,3 km/h (1 Bft) O-NO 67 0 min 0,000 mm 0,0 UV-I 0 W/m 2,5 C 3,5 C 4,8 km/h (1 Bft) 100,00 %
12.03.2016 05:39 3,5 C 94 % 1024,3 hPa 0,0 l/m 3,2 km/h (1 Bft) O-NO 67 0 min 0,000 mm 0,0 UV-I 0 W/m 2,6 C 3,5 C 3,2 km/h (1 Bft) 100,00 %
12.03.2016 05:40 3,4 C 94 % 1024,2 hPa 0,0 l/m 3,1 km/h (1 Bft) O-NO 67 0 min 0,000 mm 0,0 UV-I 0 W/m 2,5 C 3,4 C 4,8 km/h (1 Bft) 95,83 %
12.03.2016 05:41 3,4 C 94 % 1024,2 hPa 0,0 l/m 2,7 km/h (1 Bft) O-NO 67 0 min 0,000 mm 0,0 UV-I 0 W/m 2,5 C 3,4 C 3,2 km/h (1 Bft) 100,00 %
12.03.2016 05:42 3,4 C 94 % 1024,3 hPa 0,0 l/m 1,9 km/h (1 Bft) O-NO 67 0 min 0,000 mm 0,0 UV-I 0 W/m 2,5 C 3,4 C 3,2 km/h (1 Bft) 100,00 %
12.03.2016 05:43 3,4 C 94 % 1024,3 hPa 0,0 l/m 2,9 km/h (1 Bft) O-NO 67 0 min 0,000 mm 0,0 UV-I 0 W/m 2,5 C 3,4 C 4,8 km/h (1 Bft) 100,00 %
12.03.2016 05:44 3,4 C 94 % 1024,3 hPa 0,0 l/m 3,2 km/h (1 Bft) O-NO 67 0 min 0,000 mm 0,0 UV-I 0 W/m 2,5 C 3,4 C 4,8 km/h (1 Bft) 100,00 %
12.03.2016 05:45 3,4 C 94 % 1024,3 hPa 0,0 l/m 3,4 km/h (1 Bft) O-NO 67 0 min 0,000 mm 0,0 UV-I 0 W/m 2,5 C 3,4 C 4,8 km/h (1 Bft) 100,00 %
12.03.2016 05:46 3,4 C 94 % 1024,3 hPa 0,0 l/m 3,8 km/h (1 Bft) O-NO 67 0 min 0,000 mm 0,0 UV-I 0 W/m 2,5 C 3,4 C 4,8 km/h (1 Bft) 100,00 %
12.03.2016 05:47 3,4 C 94 % 1024,3 hPa 0,0 l/m 2,4 km/h (1 Bft) O-NO 67 0 min 0,000 mm 0,0 UV-I 0 W/m 2,5 C 3,4 C 3,2 km/h (1 Bft) 100,00 %
12.03.2016 05:48 3,4 C 93 % 1024,3 hPa 0,0 l/m 2,8 km/h (1 Bft) O-NO 67 0 min 0,000 mm 0,0 UV-I 0 W/m 2,4 C 3,4 C 3,2 km/h (1 Bft) 100,00 %
12.03.2016 05:49 3,4 C 93 % 1024,3 hPa 0,0 l/m 3,6 km/h (1 Bft) O-NO 67 0 min 0,000 mm 0,0 UV-I 0 W/m 2,4 C 3,4 C 4,8 km/h (1 Bft) 100,00 %
12.03.2016 05:50 3,4 C 93 % 1024,3 hPa 0,0 l/m 2,4 km/h (1 Bft) O-NO 67 0 min 0,000 mm 0,0 UV-I 0 W/m 2,4 C 3,4 C 3,2 km/h (1 Bft) 100,00 %
12.03.2016 05:51 3,4 C 93 % 1024,3 hPa 0,0 l/m 2,2 km/h (1 Bft) O-NO 67 0 min 0,000 mm 0,0 UV-I 0 W/m 2,4 C 3,4 C 3,2 km/h (1 Bft) 100,00 %
12.03.2016 05:52 3,4 C 93 % 1024,3 hPa 0,0 l/m 2,2 km/h (1 Bft) O-NO 67 0 min 0,000 mm 0,0 UV-I 0 W/m 2,4 C 3,4 C 3,2 km/h (1 Bft) 100,00 %
12.03.2016 05:53 3,4 C 93 % 1024,3 hPa 0,0 l/m 2,3 km/h (1 Bft) O-NO 67 0 min 0,000 mm 0,0 UV-I 0 W/m 2,4 C 3,4 C 3,2 km/h (1 Bft) 100,00 %
12.03.2016 05:54 3,4 C 93 % 1024,3 hPa 0,0 l/m 2,0 km/h (1 Bft) O-NO 67 0 min 0,000 mm 0,0 UV-I 0 W/m 2,4 C 3,4 C 3,2 km/h (1 Bft) 96,55 %
12.03.2016 05:55 3,4 C 93 % 1024,3 hPa 0,0 l/m 2,9 km/h (1 Bft) O-NO 67 0 min 0,000 mm 0,0 UV-I 0 W/m 2,4 C 3,4 C 4,8 km/h (1 Bft) 100,00 %
12.03.2016 05:56 3,4 C 93 % 1024,3 hPa 0,0 l/m 3,7 km/h (1 Bft) O-NO 67 0 min 0,000 mm 0,0 UV-I 0 W/m 2,4 C 3,4 C 4,8 km/h (1 Bft) 93,33 %
12.03.2016 05:57 3,4 C 93 % 1024,3 hPa 0,0 l/m 3,2 km/h (1 Bft) O-NO 67 0 min 0,000 mm 0,0 UV-I 0 W/m 2,4 C 3,4 C 4,8 km/h (1 Bft) 100,00 %
12.03.2016 05:58 3,4 C 93 % 1024,4 hPa 0,0 l/m 3,3 km/h (1 Bft) O-NO 67 0 min 0,000 mm 0,0 UV-I 0 W/m 2,4 C 3,4 C 4,8 km/h (1 Bft) 100,00 %
12.03.2016 05:59 3,4 C 93 % 1024,4 hPa 0,0 l/m 3,6 km/h (1 Bft) O-NO 67 0 min 0,000 mm 0,0 UV-I 0 W/m 2,4 C 3,4 C 4,8 km/h (1 Bft) 91,67 %
12.03.2016 06:00 3,4 C 93 % 1024,4 hPa 0,0 l/m 3,0 km/h (1 Bft) O-NO 67 0 min 0,000 mm 0,0 UV-I 0 W/m 2,4 C 3,4 C 4,8 km/h (1 Bft) 95,65 %
12.03.2016 06:01 3,5 C 93 % 1024,3 hPa 0,0 l/m 4,1 km/h (1 Bft) O-NO 67 0 min 0,000 mm 0,0 UV-I 0 W/m 2,5 C 3,5 C 4,8 km/h (1 Bft) 100,00 %
12.03.2016 06:02 3,5 C 92 % 1024,3 hPa 0,0 l/m 2,0 km/h (1 Bft) O-NO 67 0 min 0,000 mm 0,0 UV-I 0 W/m 2,3 C 3,5 C 3,2 km/h (1 Bft) 100,00 %
12.03.2016 06:03 3,5 C 93 % 1024,3 hPa 0,0 l/m 1,8 km/h (1 Bft) O-NO 67 0 min 0,000 mm 0,0 UV-I 0 W/m 2,5 C 3,5 C 3,2 km/h (1 Bft) 100,00 %
12.03.2016 06:04 3,5 C 93 % 1024,4 hPa 0,0 l/m 5,3 km/h (1 Bft) O-NO 67 0 min 0,000 mm 0,0 UV-I 0 W/m 2,5 C 3,5 C 6,4 km/h (2 Bft) 96,55 %
12.03.2016 06:05 3,5 C 92 % 1024,3 hPa 0,0 l/m 4,8 km/h (1 Bft) O-NO 69 0 min 0,000 mm 0,0 UV-I 0 W/m 2,3 C 3,5 C 6,4 km/h (2 Bft) 100,00 %
12.03.2016 06:06 3,5 C 92 % 1024,3 hPa 0,0 l/m 6,0 km/h (2 Bft) O-NO 61 0 min 0,000 mm 0,0 UV-I 0 W/m 2,3 C 3,5 C 8,0 km/h (2 Bft) 100,00 %
12.03.2016 06:07 3,5 C 92 % 1024,3 hPa 0,0 l/m 5,0 km/h (1 Bft) O-NO 63 0 min 0,000 mm 0,0 UV-I 0 W/m 2,3 C 3,5 C 6,4 km/h (2 Bft) 100,00 %
12.03.2016 06:08 3,5 C 92 % 1024,3 hPa 0,0 l/m 5,5 km/h (1 Bft) O-NO 63 0 min 0,000 mm 0,0 UV-I 0 W/m 2,3 C 3,5 C 8,0 km/h (2 Bft) 100,00 %
12.03.2016 06:09 3,6 C 92 % 1024,3 hPa 0,0 l/m 5,2 km/h (1 Bft) O-NO 65 0 min 0,000 mm 0,0 UV-I 0 W/m 2,4 C 3,6 C 6,4 km/h (2 Bft) 100,00 %
12.03.2016 06:10 3,6 C 92 % 1024,3 hPa 0,0 l/m 5,6 km/h (1 Bft) O-NO 71 0 min 0,000 mm 0,0 UV-I 0 W/m 2,4 C 3,6 C 8,0 km/h (2 Bft) 100,00 %
12.03.2016 06:11 3,6 C 91 % 1024,3 hPa 0,0 l/m 5,1 km/h (1 Bft) O-NO 63 0 min 0,000 mm 0,0 UV-I 0 W/m 2,3 C 3,6 C 6,4 km/h (2 Bft) 95,83 %
12.03.2016 06:12 3,6 C 91 % 1024,4 hPa 0,0 l/m 4,7 km/h (1 Bft) O-NO 63 0 min 0,000 mm 0,0 UV-I 0 W/m 2,3 C 3,6 C 6,4 km/h (2 Bft) 100,00 %
12.03.2016 06:13 3,6 C 91 % 1024,3 hPa 0,0 l/m 6,0 km/h (2 Bft) O-NO 63 0 min 0,000 mm 0,0 UV-I 0 W/m 2,3 C 3,6 C 8,0 km/h (2 Bft) 100,00 %
12.03.2016 06:14 3,6 C 91 % 1024,3 hPa 0,0 l/m 6,5 km/h (2 Bft) O-NO 59 0 min 0,000 mm 0,0 UV-I 0 W/m 2,3 C 3,5 C 8,0 km/h (2 Bft) 100,00 %
12.03.2016 06:15 3,6 C 91 % 1024,3 hPa 0,0 l/m 6,8 km/h (2 Bft) O-NO 69 0 min 0,000 mm 0,0 UV-I 0 W/m 2,3 C 3,2 C 9,7 km/h (2 Bft) 100,00 %
12.03.2016 06:16 3,6 C 90 % 1024,3 hPa 0,0 l/m 6,1 km/h (2 Bft) O-NO 60 0 min 0,000 mm 0,0 UV-I 0 W/m 2,1 C 3,6 C 8,0 km/h (2 Bft) 100,00 %
12.03.2016 06:17 3,6 C 90 % 1024,3 hPa 0,0 l/m 5,1 km/h (1 Bft) O-NO 67 0 min 0,000 mm 0,0 UV-I 0 W/m 2,1 C 3,6 C 6,4 km/h (2 Bft) 100,00 %
12.03.2016 06:18 3,6 C 90 % 1024,3 hPa 0,0 l/m 5,0 km/h (1 Bft) O-NO 63 0 min 0,000 mm 0,0 UV-I 0 W/m 2,1 C 3,6 C 6,4 km/h (2 Bft) 100,00 %
12.03.2016 06:19 3,6 C 90 % 1024,3 hPa 0,0 l/m 5,6 km/h (1 Bft) NO 53 0 min 0,000 mm 0,0 UV-I 0 W/m 2,1 C 3,6 C 6,4 km/h (2 Bft) 100,00 %
12.03.2016 06:20 3,6 C 90 % 1024,3 hPa 0,0 l/m 6,0 km/h (2 Bft) O-NO 57 0 min 0,000 mm 0,0 UV-I 0 W/m 2,1 C 3,6 C 8,0 km/h (2 Bft) 100,00 %
12.03.2016 06:21 3,6 C 90 % 1024,4 hPa 0,0 l/m 6,5 km/h (2 Bft) O-NO 68 0 min 0,000 mm 0,0 UV-I 0 W/m 2,1 C 3,5 C 8,0 km/h (2 Bft) 91,30 %
12.03.2016 06:22 3,6 C 90 % 1024,3 hPa 0,0 l/m 5,9 km/h (2 Bft) O-NO 60 0 min 0,000 mm 0,0 UV-I 0 W/m 2,1 C 3,6 C 8,0 km/h (2 Bft) 100,00 %
12.03.2016 06:23 3,7 C 90 % 1024,4 hPa 0,0 l/m 6,6 km/h (2 Bft) NO 47 0 min 0,000 mm 0,0 UV-I 0 W/m 2,2 C 3,5 C 8,0 km/h (2 Bft) 100,00 %
12.03.2016 06:24 3,7 C 89 % 1024,3 hPa 0,0 l/m 5,2 km/h (1 Bft) O-NO 57 0 min 0,000 mm 0,0 UV-I 0 W/m 2,1 C 3,7 C 8,0 km/h (2 Bft) 92,59 %
12.03.2016 06:25 3,7 C 89 % 1024,3 hPa 0,0 l/m 5,6 km/h (1 Bft) NO 53 0 min 0,000 mm 0,0 UV-I 0 W/m 2,1 C 3,7 C 8,0 km/h (2 Bft) 100,00 %
12.03.2016 06:26 3,7 C 89 % 1024,3 hPa 0,0 l/m 5,4 km/h (1 Bft) O-NO 58 0 min 0,000 mm 0,0 UV-I 0 W/m 2,1 C 3,7 C 8,0 km/h (2 Bft) 100,00 %
12.03.2016 06:27 3,7 C 89 % 1024,3 hPa 0,0 l/m 4,5 km/h (1 Bft) O-NO 58 0 min 0,000 mm 0,0 UV-I 0 W/m 2,1 C 3,7 C 6,4 km/h (2 Bft) 95,65 %
12.03.2016 06:28 3,7 C 89 % 1024,3 hPa 0,0 l/m 4,4 km/h (1 Bft) NO 55 0 min 0,000 mm 0,0 UV-I 0 W/m 2,1 C 3,7 C 6,4 km/h (2 Bft) 100,00 %
12.03.2016 06:29 3,7 C 90 % 1024,3 hPa 0,0 l/m 4,5 km/h (1 Bft) O-NO 59 0 min 0,000 mm 0,0 UV-I 0 W/m 2,2 C 3,7 C 6,4 km/h (2 Bft) 100,00 %
12.03.2016 06:30 3,7 C 89 % 1024,3 hPa 0,0 l/m 5,3 km/h (1 Bft) NO 53 0 min 0,000 mm 0,0 UV-I 0 W/m 2,1 C 3,7 C 6,4 km/h (2 Bft) 100,00 %
12.03.2016 06:31 3,7 C 89 % 1024,4 hPa 0,0 l/m 6,0 km/h (2 Bft) O-NO 57 0 min 0,000 mm 0,0 UV-I 0 W/m 2,1 C 3,7 C 8,0 km/h (2 Bft) 100,00 %
12.03.2016 06:32 3,7 C 89 % 1024,4 hPa 0,0 l/m 5,3 km/h (1 Bft) NO 56 0 min 0,000 mm 0,0 UV-I 0 W/m 2,1 C 3,7 C 6,4 km/h (2 Bft) 100,00 %
12.03.2016 06:33 3,6 C 89 % 1024,4 hPa 0,0 l/m 5,9 km/h (2 Bft) O-NO 68 0 min 0,000 mm 0,0 UV-I 0 W/m 2,0 C 3,6 C 6,4 km/h (2 Bft) 100,00 %
12.03.2016 06:34 3,7 C 89 % 1024,4 hPa 0,0 l/m 4,6 km/h (1 Bft) NO 53 0 min 0,000 mm 0,0 UV-I 0 W/m 2,1 C 3,7 C 8,0 km/h (2 Bft) 100,00 %
12.03.2016 06:35 3,7 C 89 % 1024,4 hPa 0,0 l/m 4,2 km/h (1 Bft) NO 46 0 min 0,000 mm 0,0 UV-I 0 W/m 2,1 C 3,7 C 6,4 km/h (2 Bft) 95,65 %
12.03.2016 06:36 3,7 C 89 % 1024,4 hPa 0,0 l/m 5,9 km/h (2 Bft) NO 51 0 min 0,000 mm 0,0 UV-I 0 W/m 2,1 C 3,7 C 8,0 km/h (2 Bft) 100,00 %
12.03.2016 06:37 3,7 C 89 % 1024,4 hPa 0,0 l/m 4,8 km/h (1 Bft) NO 38 0 min 0,000 mm 0,0 UV-I 0 W/m 2,1 C 3,7 C 6,4 km/h (2 Bft) 100,00 %
12.03.2016 06:38 3,6 C 89 % 1024,4 hPa 0,0 l/m 3,6 km/h (1 Bft) NO 53 0 min 0,000 mm 0,0 UV-I 0 W/m 2,0 C 3,6 C 4,8 km/h (1 Bft) 96,15 %
12.03.2016 06:39 3,7 C 89 % 1024,4 hPa 0,0 l/m 3,3 km/h (1 Bft) NO 51 0 min 0,000 mm 0,0 UV-I 0 W/m 2,1 C 3,7 C 4,8 km/h (1 Bft) 93,33 %
12.03.2016 06:40 3,7 C 89 % 1024,4 hPa 0,0 l/m 3,6 km/h (1 Bft) NO 51 0 min 0,000 mm 0,0 UV-I 0 W/m 2,1 C 3,7 C 4,8 km/h (1 Bft) 100,00 %
12.03.2016 06:41 3,6 C 89 % 1024,4 hPa 0,0 l/m 3,8 km/h (1 Bft) NO 49 0 min 0,000 mm 0,0 UV-I 0 W/m 2,0 C 3,6 C 6,4 km/h (2 Bft) 95,83 %
12.03.2016 06:42 3,6 C 89 % 1024,4 hPa 0,0 l/m 4,5 km/h (1 Bft) O-NO 58 0 min 0,000 mm 0,0 UV-I 0 W/m 2,0 C 3,6 C 6,4 km/h (2 Bft) 92,86 %
12.03.2016 06:43 3,6 C 89 % 1024,4 hPa 0,0 l/m 5,0 km/h (1 Bft) NO 40 0 min 0,000 mm 0,0 UV-I 0 W/m 2,0 C 3,6 C 6,4 km/h (2 Bft) 96,43 %
12.03.2016 06:44 3,6 C 89 % 1024,4 hPa 0,0 l/m 5,0 km/h (1 Bft) N-NO 30 0 min 0,000 mm 0,0 UV-I 0 W/m 2,0 C 3,6 C 6,4 km/h (2 Bft) 92,31 %
12.03.2016 06:45 3,6 C 89 % 1024,4 hPa 0,0 l/m 4,0 km/h (1 Bft) N-NO 31 0 min 0,000 mm 0,0 UV-I 0 W/m 2,0 C 3,6 C 6,4 km/h (2 Bft) 100,00 %
12.03.2016 06:46 3,6 C 89 % 1024,5 hPa 0,0 l/m 4,6 km/h (1 Bft) NO 34 0 min 0,000 mm 0,0 UV-I 0 W/m 2,0 C 3,6 C 6,4 km/h (2 Bft) 95,65 %
12.03.2016 06:47 3,6 C 89 % 1024,5 hPa 0,0 l/m 3,8 km/h (1 Bft) N-NO 32 0 min 0,000 mm 0,0 UV-I 3 W/m 2,0 C 3,6 C 6,4 km/h (2 Bft) 96,30 %
12.03.2016 06:48 3,6 C 90 % 1024,5 hPa 0,0 l/m 5,6 km/h (1 Bft) N-NO 30 0 min 0,000 mm 0,0 UV-I 5 W/m 2,1 C 3,6 C 6,4 km/h (2 Bft) 95,65 %
12.03.2016 06:49 3,6 C 90 % 1024,5 hPa 0,0 l/m 5,2 km/h (1 Bft) NO 34 0 min 0,000 mm 0,0 UV-I 5 W/m 2,1 C 3,6 C 6,4 km/h (2 Bft) 93,33 %
12.03.2016 06:50 3,6 C 90 % 1024,5 hPa 0,0 l/m 5,1 km/h (1 Bft) NO 39 0 min 0,000 mm 0,0 UV-I 5 W/m 2,1 C 3,6 C 6,4 km/h (2 Bft) 95,65 %
12.03.2016 06:51 3,6 C 90 % 1024,5 hPa 0,0 l/m 4,3 km/h (1 Bft) N-NO 28 0 min 0,000 mm 0,0 UV-I 5 W/m 2,1 C 3,6 C 6,4 km/h (2 Bft) 100,00 %
12.03.2016 06:52 3,6 C 90 % 1024,5 hPa 0,0 l/m 5,3 km/h (1 Bft) NO 36 0 min 0,000 mm 0,0 UV-I 5 W/m 2,1 C 3,6 C 6,4 km/h (2 Bft) 96,15 %
12.03.2016 06:53 3,6 C 90 % 1024,5 hPa 0,0 l/m 3,6 km/h (1 Bft) NO 36 0 min 0,000 mm 0,0 UV-I 5 W/m 2,1 C 3,6 C 4,8 km/h (1 Bft) 95,83 %
12.03.2016 06:54 3,5 C 90 % 1024,5 hPa 0,0 l/m 3,1 km/h (1 Bft) NO 36 0 min 0,000 mm 0,0 UV-I 5 W/m 2,0 C 3,5 C 4,8 km/h (1 Bft) 100,00 %
12.03.2016 06:55 3,5 C 90 % 1024,5 hPa 0,0 l/m 3,9 km/h (1 Bft) NO 36 0 min 0,000 mm 0,0 UV-I 5 W/m 2,0 C 3,5 C 4,8 km/h (1 Bft) 100,00 %
12.03.2016 06:56 3,5 C 90 % 1024,5 hPa 0,0 l/m 3,3 km/h (1 Bft) NO 36 0 min 0,000 mm 0,0 UV-I 5 W/m 2,0 C 3,5 C 4,8 km/h (1 Bft) 96,30 %
12.03.2016 06:57 3,5 C 91 % 1024,5 hPa 0,0 l/m 2,4 km/h (1 Bft) NO 36 0 min 0,000 mm 0,0 UV-I 6 W/m 2,2 C 3,5 C 4,8 km/h (1 Bft) 92,31 %
12.03.2016 06:58 3,5 C 91 % 1024,6 hPa 0,0 l/m 3,9 km/h (1 Bft) NO 36 0 min 0,000 mm 0,0 UV-I 7 W/m 2,2 C 3,5 C 4,8 km/h (1 Bft) 100,00 %
12.03.2016 06:59 3,5 C 91 % 1024,6 hPa 0,0 l/m 4,0 km/h (1 Bft) NO 36 0 min 0,000 mm 0,0 UV-I 7 W/m 2,2 C 3,5 C 4,8 km/h (1 Bft) 95,65 %
12.03.2016 07:00 3,5 C 91 % 1024,6 hPa 0,0 l/m 3,8 km/h (1 Bft) NO 36 0 min 0,000 mm 0,0 UV-I 7 W/m 2,2 C 3,5 C 4,8 km/h (1 Bft) 100,00 %
12.03.2016 07:01 3,5 C 91 % 1024,6 hPa 0,0 l/m 4,2 km/h (1 Bft) NO 36 0 min 0,000 mm 0,0 UV-I 7 W/m 2,2 C 3,5 C 4,8 km/h (1 Bft) 91,30 %
12.03.2016 07:02 3,5 C 91 % 1024,6 hPa 0,0 l/m 2,8 km/h (1 Bft) NO 36 0 min 0,000 mm 0,0 UV-I 7 W/m 2,2 C 3,5 C 4,8 km/h (1 Bft) 95,83 %
12.03.2016 07:03 3,5 C 91 % 1024,6 hPa 0,0 l/m 1,5 km/h (1 Bft) NO 36 0 min 0,000 mm 0,0 UV-I 7 W/m 2,2 C 3,5 C 3,2 km/h (1 Bft) 100,00 %
12.03.2016 07:04 3,4 C 91 % 1024,6 hPa 0,0 l/m 0,9 km/h (0 Bft) NO 36 0 min 0,000 mm 0,0 UV-I 7 W/m 2,1 C 3,4 C 1,6 km/h (1 Bft) 91,67 %
12.03.2016 07:05 3,5 C 90 % 1024,6 hPa 0,0 l/m 2,2 km/h (1 Bft) NO 36 0 min 0,000 mm 0,0 UV-I 7 W/m 2,0 C 3,5 C 3,2 km/h (1 Bft) 96,15 %
12.03.2016 07:06 3,5 C 90 % 1024,6 hPa 0,0 l/m 1,9 km/h (1 Bft) NO 36 0 min 0,000 mm 0,0 UV-I 7 W/m 2,0 C 3,5 C 3,2 km/h (1 Bft) 100,00 %
12.03.2016 07:07 3,5 C 90 % 1024,6 hPa 0,0 l/m 2,2 km/h (1 Bft) NO 36 0 min 0,000 mm 0,0 UV-I 7 W/m 2,0 C 3,5 C 3,2 km/h (1 Bft) 96,55 %
12.03.2016 07:08 3,5 C 90 % 1024,6 hPa 0,0 l/m 3,7 km/h (1 Bft) NO 36 0 min 0,000 mm 0,0 UV-I 7 W/m 2,0 C 3,5 C 4,8 km/h (1 Bft) 95,83 %
12.03.2016 07:09 3,5 C 90 % 1024,6 hPa 0,0 l/m 3,8 km/h (1 Bft) NO 38 0 min 0,000 mm 0,0 UV-I 7 W/m 2,0 C 3,5 C 4,8 km/h (1 Bft) 100,00 %
12.03.2016 07:10 3,5 C 90 % 1024,6 hPa 0,0 l/m 3,4 km/h (1 Bft) NO 38 0 min 0,000 mm 0,0 UV-I 7 W/m 2,0 C 3,5 C 4,8 km/h (1 Bft) 95,83 %
12.03.2016 07:11 3,5 C 90 % 1024,6 hPa 0,0 l/m 3,5 km/h (1 Bft) NO 39 0 min 0,000 mm 0,0 UV-I 7 W/m 2,0 C 3,5 C 4,8 km/h (1 Bft) 100,00 %
12.03.2016 07:12 3,6 C 90 % 1024,7 hPa 0,0 l/m 4,1 km/h (1 Bft) NO 46 0 min 0,000 mm 0,0 UV-I 7 W/m 2,1 C 3,6 C 4,8 km/h (1 Bft) 100,00 %
12.03.2016 07:13 3,6 C 90 % 1024,7 hPa 0,0 l/m 3,5 km/h (1 Bft) NO 46 0 min 0,000 mm 0,0 UV-I 7 W/m 2,1 C 3,6 C 4,8 km/h (1 Bft) 100,00 %
12.03.2016 07:14 3,6 C 90 % 1024,6 hPa 0,0 l/m 4,3 km/h (1 Bft) NO 46 0 min 0,000 mm 0,0 UV-I 7 W/m 2,1 C 3,6 C 4,8 km/h (1 Bft) 100,00 %
12.03.2016 07:15 3,6 C 90 % 1024,7 hPa 0,0 l/m 4,7 km/h (1 Bft) NO 46 0 min 0,000 mm 0,0 UV-I 7 W/m 2,1 C 3,6 C 4,8 km/h (1 Bft) 100,00 %
12.03.2016 07:16 3,6 C 90 % 1024,7 hPa 0,0 l/m 4,2 km/h (1 Bft) NO 48 0 min 0,000 mm 0,0 UV-I 8 W/m 2,1 C 3,6 C 6,4 km/h (2 Bft) 100,00 %
12.03.2016 07:17 3,6 C 90 % 1024,7 hPa 0,0 l/m 4,6 km/h (1 Bft) NO 50 0 min 0,000 mm 0,0 UV-I 9 W/m 2,1 C 3,6 C 6,4 km/h (2 Bft) 100,00 %
12.03.2016 07:18 3,6 C 90 % 1024,7 hPa 0,0 l/m 3,2 km/h (1 Bft) NO 50 0 min 0,000 mm 0,0 UV-I 9 W/m 2,1 C 3,6 C 4,8 km/h (1 Bft) 100,00 %
12.03.2016 07:19 3,6 C 90 % 1024,7 hPa 0,0 l/m 3,6 km/h (1 Bft) NO 50 0 min 0,000 mm 0,0 UV-I 9 W/m 2,1 C 3,6 C 4,8 km/h (1 Bft) 91,67 %
12.03.2016 07:20 3,6 C 90 % 1024,7 hPa 0,0 l/m 3,1 km/h (1 Bft) NO 50 0 min 0,000 mm 0,0 UV-I 9 W/m 2,1 C 3,6 C 4,8 km/h (1 Bft) 100,00 %
12.03.2016 07:21 3,6 C 90 % 1024,7 hPa 0,0 l/m 2,5 km/h (1 Bft) NO 50 0 min 0,000 mm 0,0 UV-I 9 W/m 2,1 C 3,6 C 3,2 km/h (1 Bft) 100,00 %
12.03.2016 07:22 3,6 C 90 % 1024,8 hPa 0,0 l/m 3,1 km/h (1 Bft) NO 49 0 min 0,000 mm 0,0 UV-I 9 W/m 2,1 C 3,6 C 4,8 km/h (1 Bft) 95,65 %
12.03.2016 07:23 3,6 C 90 % 1024,7 hPa 0,0 l/m 2,7 km/h (1 Bft) NO 49 0 min 0,000 mm 0,0 UV-I 9 W/m 2,1 C 3,6 C 3,2 km/h (1 Bft) 100,00 %
12.03.2016 07:24 3,6 C 90 % 1024,8 hPa 0,0 l/m 4,1 km/h (1 Bft) NO 41 0 min 0,000 mm 0,0 UV-I 9 W/m 2,1 C 3,6 C 6,4 km/h (2 Bft) 100,00 %
12.03.2016 07:25 3,6 C 90 % 1024,8 hPa 0,0 l/m 3,3 km/h (1 Bft) NO 43 0 min 0,000 mm 0,0 UV-I 9 W/m 2,1 C 3,6 C 6,4 km/h (2 Bft) 96,67 %
12.03.2016 07:26 3,6 C 90 % 1024,8 hPa 0,0 l/m 4,0 km/h (1 Bft) NO 46 0 min 0,000 mm 0,0 UV-I 9 W/m 2,1 C 3,6 C 4,8 km/h (1 Bft) 100,00 %
12.03.2016 07:27 3,6 C 90 % 1024,8 hPa 0,0 l/m 2,8 km/h (1 Bft) NO 45 0 min 0,000 mm 0,0 UV-I 10 W/m 2,1 C 3,6 C 4,8 km/h (1 Bft) 100,00 %
12.03.2016 07:28 3,6 C 90 % 1024,8 hPa 0,0 l/m 3,0 km/h (1 Bft) O-NO 58 0 min 0,000 mm 0,0 UV-I 11 W/m 2,1 C 3,6 C 4,8 km/h (1 Bft) 100,00 %
12.03.2016 07:29 3,6 C 89 % 1024,8 hPa 0,0 l/m 3,5 km/h (1 Bft) O-NO 58 0 min 0,000 mm 0,0 UV-I 11 W/m 2,0 C 3,6 C 4,8 km/h (1 Bft) 100,00 %
12.03.2016 07:30 3,6 C 89 % 1024,8 hPa 0,0 l/m 3,4 km/h (1 Bft) O-NO 58 0 min 0,000 mm 0,0 UV-I 11 W/m 2,0 C 3,6 C 4,8 km/h (1 Bft) 100,00 %
12.03.2016 07:31 3,6 C 89 % 1024,9 hPa 0,0 l/m 3,5 km/h (1 Bft) O-NO 58 0 min 0,000 mm 0,0 UV-I 11 W/m 2,0 C 3,6 C 4,8 km/h (1 Bft) 100,00 %
12.03.2016 07:32 3,6 C 89 % 1024,8 hPa 0,0 l/m 4,6 km/h (1 Bft) O-NO 57 0 min 0,000 mm 0,0 UV-I 11 W/m 2,0 C 3,6 C 6,4 km/h (2 Bft) 100,00 %
12.03.2016 07:33 3,6 C 89 % 1024,8 hPa 0,0 l/m 3,8 km/h (1 Bft) O-NO 57 0 min 0,000 mm 0,0 UV-I 12 W/m 2,0 C 3,6 C 6,4 km/h (2 Bft) 100,00 %
12.03.2016 07:34 3,6 C 89 % 1024,8 hPa 0,0 l/m 4,3 km/h (1 Bft) NO 56 0 min 0,000 mm 0,0 UV-I 12 W/m 2,0 C 3,6 C 6,4 km/h (2 Bft) 96,55 %
12.03.2016 07:35 3,6 C 89 % 1024,8 hPa 0,0 l/m 3,9 km/h (1 Bft) NO 53 0 min 0,000 mm 0,0 UV-I 12 W/m 2,0 C 3,6 C 6,4 km/h (2 Bft) 100,00 %
12.03.2016 07:36 3,6 C 89 % 1024,8 hPa 0,0 l/m 4,3 km/h (1 Bft) NO 53 0 min 0,000 mm 0,0 UV-I 12 W/m 2,0 C 3,6 C 4,8 km/h (1 Bft) 100,00 %
12.03.2016 07:37 3,6 C 89 % 1024,8 hPa 0,0 l/m 4,7 km/h (1 Bft) O-NO 57 0 min 0,000 mm 0,0 UV-I 12 W/m 2,0 C 3,6 C 6,4 km/h (2 Bft) 100,00 %
12.03.2016 07:38 3,6 C 89 % 1024,8 hPa 0,0 l/m 4,5 km/h (1 Bft) O-NO 57 0 min 0,000 mm 0,0 UV-I 12 W/m 2,0 C 3,6 C 6,4 km/h (2 Bft) 96,30 %
12.03.2016 07:39 3,6 C 89 % 1024,9 hPa 0,0 l/m 3,7 km/h (1 Bft) O-NO 57 0 min 0,000 mm 0,0 UV-I 12 W/m 2,0 C 3,6 C 4,8 km/h (1 Bft) 100,00 %
12.03.2016 07:40 3,6 C 89 % 1024,9 hPa 0,0 l/m 5,3 km/h (1 Bft) NO 47 0 min 0,000 mm 0,0 UV-I 12 W/m 2,0 C 3,6 C 8,0 km/h (2 Bft) 100,00 %
12.03.2016 07:41 3,6 C 89 % 1024,9 hPa 0,0 l/m 5,9 km/h (2 Bft) NO 48 0 min 0,000 mm 0,0 UV-I 12 W/m 2,0 C 3,6 C 8,0 km/h (2 Bft) 96,15 %
12.03.2016 07:42 3,6 C 89 % 1024,9 hPa 0,0 l/m 5,6 km/h (1 Bft) O-NO 58 0 min 0,000 mm 0,0 UV-I 12 W/m 2,0 C 3,6 C 6,4 km/h (2 Bft) 100,00 %
12.03.2016 07:43 3,6 C 89 % 1024,9 hPa 0,0 l/m 5,3 km/h (1 Bft) NO 53 0 min 0,000 mm 0,0 UV-I 14 W/m 2,0 C 3,6 C 6,4 km/h (2 Bft) 100,00 %
12.03.2016 07:44 3,6 C 89 % 1024,9 hPa 0,0 l/m 4,3 km/h (1 Bft) NO 45 0 min 0,000 mm 0,0 UV-I 14 W/m 2,0 C 3,6 C 6,4 km/h (2 Bft) 100,00 %
12.03.2016 07:45 3,6 C 89 % 1025,0 hPa 0,0 l/m 4,8 km/h (1 Bft) NO 54 0 min 0,000 mm 0,0 UV-I 14 W/m 2,0 C 3,6 C 6,4 km/h (2 Bft) 100,00 %
12.03.2016 07:46 3,6 C 89 % 1024,9 hPa 0,0 l/m 4,7 km/h (1 Bft) NO 48 0 min 0,000 mm 0,0 UV-I 14 W/m 2,0 C 3,6 C 6,4 km/h (2 Bft) 100,00 %
12.03.2016 07:47 3,6 C 89 % 1025,0 hPa 0,0 l/m 5,8 km/h (2 Bft) O-NO 60 0 min 0,000 mm 0,0 UV-I 14 W/m 2,0 C 3,6 C 8,0 km/h (2 Bft) 95,65 %
12.03.2016 07:48 3,6 C 89 % 1025,0 hPa 0,0 l/m 5,1 km/h (1 Bft) O-NO 60 0 min 0,000 mm 0,0 UV-I 14 W/m 2,0 C 3,6 C 8,0 km/h (2 Bft) 100,00 %
12.03.2016 07:49 3,6 C 89 % 1024,9 hPa 0,0 l/m 6,6 km/h (2 Bft) NO 55 0 min 0,000 mm 0,0 UV-I 14 W/m 2,0 C 3,4 C 8,0 km/h (2 Bft) 100,00 %
12.03.2016 07:50 3,6 C 89 % 1025,0 hPa 0,0 l/m 5,5 km/h (1 Bft) NO 52 0 min 0,000 mm 0,0 UV-I 14 W/m 2,0 C 3,6 C 6,4 km/h (2 Bft) 100,00 %
12.03.2016 07:51 3,6 C 89 % 1025,0 hPa 0,0 l/m 6,8 km/h (2 Bft) NO 53 0 min 0,000 mm 0,0 UV-I 16 W/m 2,0 C 3,2 C 8,0 km/h (2 Bft) 100,00 %
12.03.2016 07:52 3,6 C 89 % 1025,0 hPa 0,0 l/m 4,8 km/h (1 Bft) NO 51 0 min 0,000 mm 0,0 UV-I 16 W/m 2,0 C 3,6 C 6,4 km/h (2 Bft) 100,00 %
12.03.2016 07:53 3,7 C 89 % 1025,0 hPa 0,0 l/m 5,4 km/h (1 Bft) NO 51 0 min 0,000 mm 0,0 UV-I 16 W/m 2,1 C 3,7 C 8,0 km/h (2 Bft) 100,00 %
12.03.2016 07:54 3,7 C 89 % 1025,0 hPa 0,0 l/m 5,4 km/h (1 Bft) O-NO 60 0 min 0,000 mm 0,0 UV-I 16 W/m 2,1 C 3,7 C 6,4 km/h (2 Bft) 100,00 %
12.03.2016 07:55 3,7 C 89 % 1025,0 hPa 0,0 l/m 7,2 km/h (2 Bft) NO 53 0 min 0,000 mm 0,0 UV-I 16 W/m 2,1 C 3,0 C 9,7 km/h (2 Bft) 100,00 %
12.03.2016 07:56 3,7 C 89 % 1025,0 hPa 0,0 l/m 6,6 km/h (2 Bft) NO 49 0 min 0,000 mm 0,0 UV-I 16 W/m 2,1 C 3,5 C 8,0 km/h (2 Bft) 100,00 %
12.03.2016 07:57 3,7 C 89 % 1025,0 hPa 0,0 l/m 4,9 km/h (1 Bft) O-NO 63 0 min 0,000 mm 0,0 UV-I 16 W/m 2,1 C 3,7 C 6,4 km/h (2 Bft) 100,00 %
12.03.2016 07:58 3,7 C 89 % 1025,1 hPa 0,0 l/m 5,6 km/h (1 Bft) NO 54 0 min 0,000 mm 0,0 UV-I 16 W/m 2,1 C 3,7 C 8,0 km/h (2 Bft) 100,00 %
12.03.2016 07:59 3,7 C 89 % 1025,1 hPa 0,0 l/m 6,3 km/h (2 Bft) O-NO 59 0 min 0,000 mm 0,0 UV-I 16 W/m 2,1 C 3,7 C 8,0 km/h (2 Bft) 100,00 %
12.03.2016 08:00 3,7 C 89 % 1025,1 hPa 0,0 l/m 5,2 km/h (1 Bft) O-NO 57 0 min 0,000 mm 0,0 UV-I 16 W/m 2,1 C 3,7 C 8,0 km/h (2 Bft) 100,00 %
12.03.2016 08:02 3,7 C 89 % 1025,1 hPa 0,0 l/m 5,9 km/h (2 Bft) NO 51 0 min 0,000 mm 0,0 UV-I 16 W/m 2,1 C 3,7 C 8,0 km/h (2 Bft) 100,00 %
12.03.2016 08:03 3,7 C 89 % 1025,1 hPa 0,0 l/m 4,6 km/h (1 Bft) NO 54 0 min 0,000 mm 0,0 UV-I 16 W/m 2,1 C 3,7 C 6,4 km/h (2 Bft) 100,00 %
12.03.2016 08:04 3,7 C 89 % 1025,1 hPa 0,0 l/m 4,5 km/h (1 Bft) NO 54 0 min 0,000 mm 0,0 UV-I 16 W/m 2,1 C 3,7 C 6,4 km/h (2 Bft) 100,00 %
12.03.2016 08:05 3,7 C 89 % 1025,1 hPa 0,0 l/m 3,1 km/h (1 Bft) NO 54 0 min 0,000 mm 0,0 UV-I 16 W/m 2,1 C 3,7 C 4,8 km/h (1 Bft) 100,00 %
12.03.2016 08:06 3,7 C 89 % 1025,1 hPa 0,0 l/m 4,4 km/h (1 Bft) NO 56 0 min 0,000 mm 0,0 UV-I 16 W/m 2,1 C 3,7 C 4,8 km/h (1 Bft) 100,00 %
12.03.2016 08:07 3,7 C 89 % 1025,1 hPa 0,0 l/m 3,7 km/h (1 Bft) NO 56 0 min 0,000 mm 0,0 UV-I 16 W/m 2,1 C 3,7 C 4,8 km/h (1 Bft) 96,30 %
12.03.2016 08:08 3,7 C 89 % 1025,1 hPa 0,0 l/m 2,3 km/h (1 Bft) NO 56 0 min 0,000 mm 0,0 UV-I 16 W/m 2,1 C 3,7 C 3,2 km/h (1 Bft) 95,65 %
12.03.2016 08:09 3,7 C 89 % 1025,1 hPa 0,0 l/m 3,5 km/h (1 Bft) NO 56 0 min 0,000 mm 0,0 UV-I 17 W/m 2,1 C 3,7 C 4,8 km/h (1 Bft) 100,00 %
12.03.2016 08:10 3,7 C 89 % 1025,1 hPa 0,0 l/m 2,7 km/h (1 Bft) NO 56 0 min 0,000 mm 0,0 UV-I 18 W/m 2,1 C 3,7 C 6,4 km/h (2 Bft) 100,00 %
12.03.2016 08:11 3,7 C 89 % 1025,1 hPa 0,0 l/m 3,4 km/h (1 Bft) NO 51 0 min 0,000 mm 0,0 UV-I 18 W/m 2,1 C 3,7 C 6,4 km/h (2 Bft) 100,00 %
12.03.2016 08:12 3,7 C 89 % 1025,1 hPa 0,0 l/m 3,6 km/h (1 Bft) NO 51 0 min 0,000 mm 0,0 UV-I 18 W/m 2,1 C 3,7 C 4,8 km/h (1 Bft) 100,00 %
12.03.2016 08:13 3,7 C 89 % 1025,1 hPa 0,0 l/m 2,2 km/h (1 Bft) NO 51 0 min 0,000 mm 0,0 UV-I 18 W/m 2,1 C 3,7 C 4,8 km/h (1 Bft) 100,00 %
12.03.2016 08:14 3,7 C 89 % 1025,1 hPa 0,0 l/m 4,8 km/h (1 Bft) NO 51 0 min 0,000 mm 0,0 UV-I 18 W/m 2,1 C 3,7 C 6,4 km/h (2 Bft) 100,00 %
12.03.2016 08:15 3,7 C 89 % 1025,2 hPa 0,0 l/m 3,9 km/h (1 Bft) NO 50 0 min 0,000 mm 0,0 UV-I 18 W/m 2,1 C 3,7 C 6,4 km/h (2 Bft) 95,83 %
12.03.2016 08:16 3,7 C 89 % 1025,2 hPa 0,0 l/m 3,6 km/h (1 Bft) NO 50 0 min 0,000 mm 0,0 UV-I 19 W/m 2,1 C 3,7 C 4,8 km/h (1 Bft) 91,67 %
12.03.2016 08:17 3,7 C 89 % 1025,2 hPa 0,0 l/m 2,7 km/h (1 Bft) NO 50 0 min 0,000 mm 0,0 UV-I 19 W/m 2,1 C 3,7 C 4,8 km/h (1 Bft) 100,00 %
12.03.2016 08:18 3,7 C 89 % 1025,2 hPa 0,0 l/m 3,6 km/h (1 Bft) NO 50 0 min 0,000 mm 0,0 UV-I 19 W/m 2,1 C 3,7 C 4,8 km/h (1 Bft) 100,00 %
12.03.2016 08:19 3,7 C 89 % 1025,2 hPa 0,0 l/m 2,8 km/h (1 Bft) NO 50 0 min 0,000 mm 0,0 UV-I 19 W/m 2,1 C 3,7 C 4,8 km/h (1 Bft) 100,00 %
12.03.2016 08:20 3,7 C 89 % 1025,2 hPa 0,0 l/m 3,4 km/h (1 Bft) NO 50 0 min 0,000 mm 0,0 UV-I 19 W/m 2,1 C 3,7 C 4,8 km/h (1 Bft) 100,00 %
12.03.2016 08:21 3,7 C 89 % 1025,3 hPa 0,0 l/m 3,9 km/h (1 Bft) NO 49 0 min 0,000 mm 0,0 UV-I 19 W/m 2,1 C 3,7 C 4,8 km/h (1 Bft) 100,00 %
12.03.2016 08:22 3,7 C 89 % 1025,2 hPa 0,0 l/m 4,1 km/h (1 Bft) NO 53 0 min 0,000 mm 0,0 UV-I 19 W/m 2,1 C 3,7 C 6,4 km/h (2 Bft) 100,00 %
12.03.2016 08:23 3,7 C 89 % 1025,2 hPa 0,0 l/m 2,6 km/h (1 Bft) NO 53 0 min 0,000 mm 0,0 UV-I 21 W/m 2,1 C 3,7 C 4,8 km/h (1 Bft) 92,31 %
12.03.2016 08:24 3,7 C 89 % 1025,2 hPa 0,0 l/m 2,5 km/h (1 Bft) NO 49 0 min 0,000 mm 0,0 UV-I 21 W/m 2,1 C 3,7 C 4,8 km/h (1 Bft) 100,00 %
12.03.2016 08:25 3,7 C 89 % 1025,2 hPa 0,0 l/m 4,8 km/h (1 Bft) N-NO 20 0 min 0,000 mm 0,0 UV-I 21 W/m 2,1 C 3,7 C 6,4 km/h (2 Bft) 100,00 %
12.03.2016 08:26 3,7 C 90 % 1025,2 hPa 0,0 l/m 4,8 km/h (1 Bft) NO 34 0 min 0,000 mm 0,0 UV-I 21 W/m 2,2 C 3,7 C 6,4 km/h (2 Bft) 100,00 %
12.03.2016 08:27 3,7 C 90 % 1025,2 hPa 0,0 l/m 3,3 km/h (1 Bft) N-NO 33 0 min 0,000 mm 0,0 UV-I 21 W/m 2,2 C 3,7 C 4,8 km/h (1 Bft) 95,65 %
12.03.2016 08:28 3,7 C 90 % 1025,2 hPa 0,0 l/m 4,2 km/h (1 Bft) NO 36 0 min 0,000 mm 0,0 UV-I 21 W/m 2,2 C 3,7 C 8,0 km/h (2 Bft) 100,00 %
12.03.2016 08:29 3,7 C 90 % 1025,2 hPa 0,0 l/m 3,5 km/h (1 Bft) N-NO 32 0 min 0,000 mm 0,0 UV-I 23 W/m 2,2 C 3,7 C 4,8 km/h (1 Bft) 100,00 %
12.03.2016 08:30 3,7 C 90 % 1025,3 hPa 0,0 l/m 4,3 km/h (1 Bft) N-NO 30 0 min 0,000 mm 0,0 UV-I 23 W/m 2,2 C 3,7 C 4,8 km/h (1 Bft) 100,00 %
12.03.2016 08:31 3,7 C 90 % 1025,3 hPa 0,0 l/m 5,3 km/h (1 Bft) N-NO 30 0 min 0,000 mm 0,0 UV-I 23 W/m 2,2 C 3,7 C 6,4 km/h (2 Bft) 100,00 %
12.03.2016 08:32 3,7 C 89 % 1025,3 hPa 0,0 l/m 4,4 km/h (1 Bft) NO 37 0 min 0,000 mm 0,0 UV-I 23 W/m 2,1 C 3,7 C 6,4 km/h (2 Bft) 100,00 %
12.03.2016 08:33 3,7 C 90 % 1025,3 hPa 0,0 l/m 5,0 km/h (1 Bft) NO 38 0 min 0,000 mm 0,0 UV-I 23 W/m 2,2 C 3,7 C 8,0 km/h (2 Bft) 100,00 %
12.03.2016 08:34 3,7 C 90 % 1025,3 hPa 0,0 l/m 4,4 km/h (1 Bft) NO 42 0 min 0,000 mm 0,0 UV-I 25 W/m 2,2 C 3,7 C 6,4 km/h (2 Bft) 100,00 %
12.03.2016 08:35 3,7 C 90 % 1025,3 hPa 0,0 l/m 5,0 km/h (1 Bft) N-NO 21 0 min 0,000 mm 0,0 UV-I 25 W/m 2,2 C 3,7 C 8,0 km/h (2 Bft) 91,67 %
12.03.2016 08:36 3,7 C 90 % 1025,3 hPa 0,0 l/m 6,4 km/h (2 Bft) N-NO 23 0 min 0,000 mm 0,0 UV-I 25 W/m 2,2 C 3,7 C 9,7 km/h (2 Bft) 100,00 %
12.03.2016 08:37 3,7 C 90 % 1025,3 hPa 0,0 l/m 5,1 km/h (1 Bft) NO 36 0 min 0,000 mm 0,0 UV-I 25 W/m 2,2 C 3,7 C 6,4 km/h (2 Bft) 100,00 %
12.03.2016 08:38 3,7 C 90 % 1025,3 hPa 0,0 l/m 5,5 km/h (1 Bft) NO 34 0 min 0,000 mm 0,0 UV-I 24 W/m 2,2 C 3,7 C 6,4 km/h (2 Bft) 97,56 %
12.03.2016 08:39 3,7 C 90 % 1025,3 hPa 0,0 l/m 3,7 km/h (1 Bft) N-NO 32 0 min 0,000 mm 0,0 UV-I 23 W/m 2,2 C 3,7 C 6,4 km/h (2 Bft) 100,00 %
12.03.2016 08:40 3,7 C 90 % 1025,4 hPa 0,0 l/m 4,5 km/h (1 Bft) N-NO 28 0 min 0,000 mm 0,0 UV-I 23 W/m 2,2 C 3,7 C 6,4 km/h (2 Bft) 100,00 %
12.03.2016 08:42 3,7 C 90 % 1025,4 hPa 0,0 l/m 5,0 km/h (1 Bft) NO 35 0 min 0,000 mm 0,0 UV-I 23 W/m 2,2 C 3,7 C 6,4 km/h (2 Bft) 96,00 %
12.03.2016 08:43 3,7 C 90 % 1025,4 hPa 0,0 l/m 5,5 km/h (1 Bft) NO 42 0 min 0,000 mm 0,0 UV-I 23 W/m 2,2 C 3,7 C 8,0 km/h (2 Bft) 95,83 %
12.03.2016 08:44 3,7 C 90 % 1025,4 hPa 0,0 l/m 5,6 km/h (1 Bft) NO 39 0 min 0,000 mm 0,0 UV-I 24 W/m 2,2 C 3,7 C 8,0 km/h (2 Bft) 96,55 %
12.03.2016 08:45 3,7 C 91 % 1025,4 hPa 0,0 l/m 3,8 km/h (1 Bft) NO 39 0 min 0,000 mm 0,0 UV-I 25 W/m 2,4 C 3,7 C 6,4 km/h (2 Bft) 100,00 %
12.03.2016 08:46 3,7 C 90 % 1025,4 hPa 0,0 l/m 4,1 km/h (1 Bft) N-NO 27 0 min 0,000 mm 0,0 UV-I 25 W/m 2,2 C 3,7 C 6,4 km/h (2 Bft) 95,65 %
12.03.2016 08:47 3,7 C 90 % 1025,4 hPa 0,0 l/m 4,8 km/h (1 Bft) NO 34 0 min 0,000 mm 0,0 UV-I 25 W/m 2,2 C 3,7 C 6,4 km/h (2 Bft) 100,00 %
12.03.2016 08:48 3,7 C 90 % 1025,4 hPa 0,0 l/m 5,1 km/h (1 Bft) NO 42 0 min 0,000 mm 0,0 UV-I 26 W/m 2,2 C 3,7 C 6,4 km/h (2 Bft) 92,86 %
12.03.2016 08:49 3,7 C 90 % 1025,4 hPa 0,0 l/m 4,5 km/h (1 Bft) NO 44 0 min 0,000 mm 0,0 UV-I 26 W/m 2,2 C 3,7 C 6,4 km/h (2 Bft) 100,00 %
12.03.2016 08:50 3,7 C 90 % 1025,4 hPa 0,0 l/m 4,7 km/h (1 Bft) N-NO 32 0 min 0,000 mm 0,0 UV-I 26 W/m 2,2 C 3,7 C 6,4 km/h (2 Bft) 96,55 %
12.03.2016 08:51 3,7 C 90 % 1025,4 hPa 0,0 l/m 5,1 km/h (1 Bft) NO 37 0 min 0,000 mm 0,0 UV-I 28 W/m 2,2 C 3,7 C 8,0 km/h (2 Bft) 100,00 %
12.03.2016 08:52 3,7 C 90 % 1025,4 hPa 0,0 l/m 6,8 km/h (2 Bft) NO 40 0 min 0,000 mm 0,0 UV-I 28 W/m 2,2 C 3,3 C 8,0 km/h (2 Bft) 96,30 %
12.03.2016 08:53 3,7 C 89 % 1025,4 hPa 0,0 l/m 6,4 km/h (2 Bft) NO 36 0 min 0,000 mm 0,0 UV-I 29 W/m 2,1 C 3,7 C 8,0 km/h (2 Bft) 100,00 %
12.03.2016 08:54 3,7 C 89 % 1025,4 hPa 0,0 l/m 6,8 km/h (2 Bft) NO 37 0 min 0,000 mm 0,0 UV-I 30 W/m 2,1 C 3,3 C 8,0 km/h (2 Bft) 95,65 %
12.03.2016 08:55 3,7 C 90 % 1025,4 hPa 0,0 l/m 6,5 km/h (2 Bft) NO 43 0 min 0,000 mm 0,0 UV-I 30 W/m 2,2 C 3,6 C 8,0 km/h (2 Bft) 92,59 %
12.03.2016 08:56 3,7 C 90 % 1025,4 hPa 0,0 l/m 5,9 km/h (2 Bft) NO 37 0 min 0,000 mm 0,0 UV-I 30 W/m 2,2 C 3,7 C 8,0 km/h (2 Bft) 100,00 %
12.03.2016 08:57 3,7 C 90 % 1025,4 hPa 0,0 l/m 5,5 km/h (1 Bft) NO 46 0 min 0,000 mm 0,0 UV-I 30 W/m 2,2 C 3,7 C 8,0 km/h (2 Bft) 96,15 %
12.03.2016 08:58 3,7 C 90 % 1025,4 hPa 0,0 l/m 4,0 km/h (1 Bft) NO 46 0 min 0,000 mm 0,0 UV-I 30 W/m 2,2 C 3,7 C 4,8 km/h (1 Bft) 100,00 %
12.03.2016 08:59 3,8 C 89 % 1025,4 hPa 0,0 l/m 4,3 km/h (1 Bft) NO 41 0 min 0,000 mm 0,0 UV-I 31 W/m 2,2 C 3,8 C 8,0 km/h (2 Bft) 95,65 %
12.03.2016 09:00 3,8 C 90 % 1025,4 hPa 0,0 l/m 5,3 km/h (1 Bft) NO 38 0 min 0,000 mm 0,0 UV-I 32 W/m 2,3 C 3,8 C 8,0 km/h (2 Bft) 100,00 %
12.03.2016 09:01 3,8 C 90 % 1025,4 hPa 0,0 l/m 4,9 km/h (1 Bft) N-NO 30 0 min 0,025 mm 0,0 UV-I 32 W/m 2,3 C 3,8 C 6,4 km/h (2 Bft) 91,67 %
12.03.2016 09:02 3,8 C 90 % 1025,4 hPa 0,0 l/m 4,3 km/h (1 Bft) NO 46 0 min 0,000 mm 0,0 UV-I 32 W/m 2,3 C 3,8 C 6,4 km/h (2 Bft) 100,00 %
12.03.2016 09:03 3,8 C 90 % 1025,4 hPa 0,0 l/m 2,6 km/h (1 Bft) NO 39 0 min 0,000 mm 0,0 UV-I 32 W/m 2,3 C 3,8 C 4,8 km/h (1 Bft) 96,15 %
12.03.2016 09:04 3,8 C 90 % 1025,4 hPa 0,0 l/m 4,8 km/h (1 Bft) N-NO 30 0 min 0,000 mm 0,0 UV-I 32 W/m 2,3 C 3,8 C 6,4 km/h (2 Bft) 96,30 %
12.03.2016 09:05 3,8 C 90 % 1025,4 hPa 0,0 l/m 5,2 km/h (1 Bft) NO 40 0 min 0,000 mm 0,0 UV-I 33 W/m 2,3 C 3,8 C 8,0 km/h (2 Bft) 100,00 %
12.03.2016 09:06 3,8 C 90 % 1025,5 hPa 0,0 l/m 5,9 km/h (2 Bft) N-NO 29 0 min 0,000 mm 0,0 UV-I 33 W/m 2,3 C 3,8 C 8,0 km/h (2 Bft) 96,30 %
12.03.2016 09:07 3,8 C 90 % 1025,5 hPa 0,0 l/m 3,9 km/h (1 Bft) NO 34 0 min 0,000 mm 0,0 UV-I 33 W/m 2,3 C 3,8 C 4,8 km/h (1 Bft) 100,00 %
12.03.2016 09:08 3,8 C 90 % 1025,4 hPa 0,0 l/m 5,3 km/h (1 Bft) NO 40 0 min 0,000 mm 0,0 UV-I 33 W/m 2,3 C 3,8 C 8,0 km/h (2 Bft) 96,30 %
12.03.2016 09:09 3,8 C 90 % 1025,4 hPa 0,0 l/m 6,8 km/h (2 Bft) NO 40 0 min 0,000 mm 0,0 UV-I 33 W/m 2,3 C 3,4 C 8,0 km/h (2 Bft) 100,00 %
12.03.2016 09:10 3,8 C 90 % 1025,4 hPa 0,0 l/m 5,2 km/h (1 Bft) O-NO 59 0 min 0,000 mm 0,0 UV-I 33 W/m 2,3 C 3,8 C 6,4 km/h (2 Bft) 95,83 %
12.03.2016 09:11 3,8 C 90 % 1025,5 hPa 0,0 l/m 5,0 km/h (1 Bft) NO 51 0 min 0,000 mm 0,0 UV-I 33 W/m 2,3 C 3,8 C 6,4 km/h (2 Bft) 100,00 %
12.03.2016 09:12 3,8 C 90 % 1025,5 hPa 0,0 l/m 5,0 km/h (1 Bft) NO 42 0 min 0,000 mm 0,0 UV-I 33 W/m 2,3 C 3,8 C 6,4 km/h (2 Bft) 91,67 %
12.03.2016 09:13 3,8 C 90 % 1025,5 hPa 0,0 l/m 3,9 km/h (1 Bft) NO 42 0 min 0,000 mm 0,0 UV-I 33 W/m 2,3 C 3,8 C 6,4 km/h (2 Bft) 95,83 %
12.03.2016 09:14 3,8 C 90 % 1025,5 hPa 0,0 l/m 4,6 km/h (1 Bft) NO 39 0 min 0,000 mm 0,0 UV-I 35 W/m 2,3 C 3,8 C 6,4 km/h (2 Bft) 100,00 %
12.03.2016 09:15 3,8 C 90 % 1025,5 hPa 0,0 l/m 5,8 km/h (2 Bft) NO 38 0 min 0,000 mm 0,0 UV-I 35 W/m 2,3 C 3,8 C 8,0 km/h (2 Bft) 92,31 %
12.03.2016 09:16 3,8 C 90 % 1025,5 hPa 0,0 l/m 4,8 km/h (1 Bft) O-NO 59 0 min 0,000 mm 0,0 UV-I 37 W/m 2,3 C 3,8 C 6,4 km/h (2 Bft) 100,00 %
12.03.2016 09:17 3,8 C 90 % 1025,5 hPa 0,0 l/m 3,5 km/h (1 Bft) NO 43 0 min 0,000 mm 0,0 UV-I 37 W/m 2,3 C 3,8 C 6,4 km/h (2 Bft) 100,00 %
12.03.2016 09:18 3,8 C 90 % 1025,5 hPa 0,0 l/m 2,9 km/h (1 Bft) NO 43 0 min 0,000 mm 0,0 UV-I 37 W/m 2,3 C 3,8 C 4,8 km/h (1 Bft) 100,00 %
12.03.2016 09:19 3,8 C 90 % 1025,5 hPa 0,0 l/m 3,1 km/h (1 Bft) NO 54 0 min 0,000 mm 0,0 UV-I 37 W/m 2,3 C 3,8 C 4,8 km/h (1 Bft) 100,00 %
12.03.2016 09:20 3,8 C 90 % 1025,6 hPa 0,0 l/m 4,6 km/h (1 Bft) NO 47 0 min 0,000 mm 0,0 UV-I 35 W/m 2,3 C 3,8 C 6,4 km/h (2 Bft) 95,65 %
12.03.2016 09:21 3,8 C 90 % 1025,6 hPa 0,0 l/m 4,8 km/h (1 Bft) O-NO 57 0 min 0,000 mm 0,0 UV-I 35 W/m 2,3 C 3,8 C 6,4 km/h (2 Bft) 100,00 %
12.03.2016 09:22 3,8 C 90 % 1025,6 hPa 0,0 l/m 4,4 km/h (1 Bft) O-NO 57 0 min 0,000 mm 0,0 UV-I 35 W/m 2,3 C 3,8 C 4,8 km/h (1 Bft) 100,00 %
12.03.2016 09:23 3,8 C 89 % 1025,6 hPa 0,0 l/m 3,1 km/h (1 Bft) O-NO 57 0 min 0,000 mm 0,0 UV-I 35 W/m 2,2 C 3,8 C 4,8 km/h (1 Bft) 100,00 %
12.03.2016 09:24 3,8 C 90 % 1025,6 hPa 0,0 l/m 3,2 km/h (1 Bft) NO 55 0 min 0,000 mm 0,0 UV-I 35 W/m 2,3 C 3,8 C 4,8 km/h (1 Bft) 95,65 %
12.03.2016 09:25 3,8 C 90 % 1025,6 hPa 0,0 l/m 1,9 km/h (1 Bft) NO 55 0 min 0,000 mm 0,0 UV-I 35 W/m 2,3 C 3,8 C 3,2 km/h (1 Bft) 100,00 %
12.03.2016 09:26 3,8 C 90 % 1025,7 hPa 0,0 l/m 3,8 km/h (1 Bft) NO 54 0 min 0,000 mm 0,0 UV-I 33 W/m 2,3 C 3,8 C 4,8 km/h (1 Bft) 95,65 %
12.03.2016 09:27 3,8 C 90 % 1025,7 hPa 0,0 l/m 4,5 km/h (1 Bft) NO 55 0 min 0,000 mm 0,0 UV-I 33 W/m 2,3 C 3,8 C 6,4 km/h (2 Bft) 100,00 %
12.03.2016 09:28 3,8 C 90 % 1025,7 hPa 0,0 l/m 4,2 km/h (1 Bft) NO 40 0 min 0,000 mm 0,0 UV-I 32 W/m 2,3 C 3,8 C 4,8 km/h (1 Bft) 100,00 %
12.03.2016 09:29 3,8 C 90 % 1025,6 hPa 0,0 l/m 6,1 km/h (2 Bft) NO 41 0 min 0,000 mm 0,0 UV-I 32 W/m 2,3 C 3,8 C 8,0 km/h (2 Bft) 100,00 %
12.03.2016 09:30 3,8 C 90 % 1025,7 hPa 0,0 l/m 5,8 km/h (2 Bft) NO 42 0 min 0,000 mm 0,0 UV-I 32 W/m 2,3 C 3,8 C 8,0 km/h (2 Bft) 100,00 %
12.03.2016 09:31 3,8 C 90 % 1025,7 hPa 0,0 l/m 4,1 km/h (1 Bft) NO 54 0 min 0,000 mm 0,0 UV-I 32 W/m 2,3 C 3,8 C 4,8 km/h (1 Bft) 100,00 %
12.03.2016 09:32 3,8 C 90 % 1025,7 hPa 0,0 l/m 5,6 km/h (1 Bft) NO 53 0 min 0,000 mm 0,0 UV-I 32 W/m 2,3 C 3,8 C 8,0 km/h (2 Bft) 100,00 %
12.03.2016 09:33 3,8 C 90 % 1025,7 hPa 0,0 l/m 4,9 km/h (1 Bft) NO 53 0 min 0,000 mm 0,0 UV-I 33 W/m 2,3 C 3,8 C 6,4 km/h (2 Bft) 100,00 %
12.03.2016 09:34 3,8 C 90 % 1025,7 hPa 0,0 l/m 5,1 km/h (1 Bft) N-NO 23 0 min 0,000 mm 0,0 UV-I 33 W/m 2,3 C 3,8 C 6,4 km/h (2 Bft) 100,00 %
12.03.2016 09:35 3,8 C 90 % 1025,7 hPa 0,0 l/m 6,7 km/h (2 Bft) N-NO 30 0 min 0,000 mm 0,0 UV-I 35 W/m 2,3 C 3,5 C 9,7 km/h (2 Bft) 100,00 %
12.03.2016 09:36 3,8 C 90 % 1025,6 hPa 0,0 l/m 5,7 km/h (1 Bft) NO 51 0 min 0,000 mm 0,0 UV-I 35 W/m 2,3 C 3,8 C 6,4 km/h (2 Bft) 100,00 %
12.03.2016 09:37 3,8 C 90 % 1025,7 hPa 0,0 l/m 3,2 km/h (1 Bft) NO 51 0 min 0,000 mm 0,0 UV-I 35 W/m 2,3 C 3,8 C 4,8 km/h (1 Bft) 100,00 %
12.03.2016 09:38 3,8 C 90 % 1025,7 hPa 0,0 l/m 3,6 km/h (1 Bft) NO 51 0 min 0,000 mm 0,0 UV-I 35 W/m 2,3 C 3,8 C 4,8 km/h (1 Bft) 95,83 %
12.03.2016 09:39 3,9 C 90 % 1025,7 hPa 0,0 l/m 5,0 km/h (1 Bft) NO 42 0 min 0,000 mm 0,0 UV-I 37 W/m 2,4 C 3,9 C 6,4 km/h (2 Bft) 100,00 %
12.03.2016 09:40 3,8 C 90 % 1025,7 hPa 0,0 l/m 7,4 km/h (2 Bft) NO 42 0 min 0,000 mm 0,0 UV-I 38 W/m 2,3 C 2,9 C 9,7 km/h (2 Bft) 100,00 %
12.03.2016 09:41 3,8 C 90 % 1025,7 hPa 0,0 l/m 5,1 km/h (1 Bft) NO 53 0 min 0,000 mm 0,0 UV-I 39 W/m 2,3 C 3,8 C 8,0 km/h (2 Bft) 90,91 %
12.03.2016 09:42 3,8 C 90 % 1025,7 hPa 0,0 l/m 6,0 km/h (2 Bft) NO 53 0 min 0,000 mm 0,0 UV-I 39 W/m 2,3 C 3,8 C 6,4 km/h (2 Bft) 100,00 %
12.03.2016 09:43 3,8 C 90 % 1025,7 hPa 0,0 l/m 5,5 km/h (1 Bft) NO 55 0 min 0,000 mm 0,0 UV-I 39 W/m 2,3 C 3,8 C 6,4 km/h (2 Bft) 96,88 %
12.03.2016 09:44 3,8 C 90 % 1025,7 hPa 0,0 l/m 6,2 km/h (2 Bft) O-NO 59 0 min 0,000 mm 0,0 UV-I 39 W/m 2,3 C 3,8 C 8,0 km/h (2 Bft) 95,83 %
12.03.2016 09:45 3,8 C 89 % 1025,7 hPa 0,0 l/m 7,3 km/h (2 Bft) O-NO 61 0 min 0,000 mm 0,0 UV-I 40 W/m 2,2 C 3,0 C 9,7 km/h (2 Bft) 100,00 %
12.03.2016 09:46 3,8 C 89 % 1025,7 hPa 0,0 l/m 6,2 km/h (2 Bft) O-NO 64 0 min 0,000 mm 0,0 UV-I 39 W/m 2,2 C 3,8 C 8,0 km/h (2 Bft) 100,00 %
12.03.2016 09:47 3,8 C 89 % 1025,7 hPa 0,0 l/m 7,6 km/h (2 Bft) NO 46 0 min 0,000 mm 0,0 UV-I 40 W/m 2,2 C 2,7 C 9,7 km/h (2 Bft) 100,00 %
12.03.2016 09:48 3,8 C 89 % 1025,8 hPa 0,0 l/m 5,9 km/h (2 Bft) NO 55 0 min 0,000 mm 0,0 UV-I 40 W/m 2,2 C 3,8 C 8,0 km/h (2 Bft) 100,00 %
12.03.2016 09:49 3,8 C 89 % 1025,8 hPa 0,0 l/m 5,0 km/h (1 Bft) NO 42 0 min 0,000 mm 0,0 UV-I 42 W/m 2,2 C 3,8 C 6,4 km/h (2 Bft) 100,00 %
12.03.2016 09:50 3,8 C 89 % 1025,8 hPa 0,0 l/m 6,4 km/h (2 Bft) NO 48 0 min 0,000 mm 0,0 UV-I 44 W/m 2,2 C 3,8 C 9,7 km/h (2 Bft) 100,00 %
12.03.2016 09:51 3,8 C 90 % 1025,8 hPa 0,0 l/m 5,2 km/h (1 Bft) NO 50 0 min 0,000 mm 0,0 UV-I 44 W/m 2,3 C 3,8 C 6,4 km/h (2 Bft) 100,00 %
12.03.2016 09:52 3,8 C 90 % 1025,8 hPa 0,0 l/m 6,8 km/h (2 Bft) NO 52 0 min 0,000 mm 0,0 UV-I 46 W/m 2,3 C 3,4 C 11,3 km/h (2 Bft) 100,00 %
12.03.2016 09:53 3,8 C 89 % 1025,8 hPa 0,0 l/m 7,6 km/h (2 Bft) O-NO 59 0 min 0,000 mm 0,0 UV-I 47 W/m 2,2 C 2,7 C 12,9 km/h (3 Bft) 100,00 %
12.03.2016 09:54 3,8 C 89 % 1025,7 hPa 0,0 l/m 9,3 km/h (2 Bft) O-NO 63 0 min 0,000 mm 0,0 UV-I 48 W/m 2,2 C 1,3 C 12,9 km/h (3 Bft) 100,00 %
12.03.2016 09:55 3,8 C 89 % 1025,8 hPa 0,0 l/m 7,3 km/h (2 Bft) NO 56 0 min 0,000 mm 0,0 UV-I 50 W/m 2,2 C 3,0 C 9,7 km/h (2 Bft) 100,00 %
12.03.2016 09:56 3,8 C 89 % 1025,8 hPa 0,0 l/m 4,8 km/h (1 Bft) NO 42 0 min 0,000 mm 0,0 UV-I 53 W/m 2,2 C 3,8 C 6,4 km/h (2 Bft) 100,00 %
12.03.2016 09:57 3,8 C 89 % 1025,8 hPa 0,0 l/m 6,4 km/h (2 Bft) O-NO 63 0 min 0,000 mm 0,0 UV-I 55 W/m 2,2 C 3,8 C 9,7 km/h (2 Bft) 100,00 %
12.03.2016 09:58 3,8 C 89 % 1025,8 hPa 0,0 l/m 6,9 km/h (2 Bft) NO 55 0 min 0,000 mm 0,0 UV-I 56 W/m 2,2 C 3,3 C 8,0 km/h (2 Bft) 100,00 %
12.03.2016 09:59 3,8 C 89 % 1025,8 hPa 0,0 l/m 5,6 km/h (1 Bft) NO 40 0 min 0,000 mm 0,0 UV-I 57 W/m 2,2 C 3,8 C 6,4 km/h (2 Bft) 100,00 %
12.03.2016 10:00 3,9 C 89 % 1025,8 hPa 0,0 l/m 5,3 km/h (1 Bft) NO 46 0 min 0,026 mm 0,0 UV-I 58 W/m 2,3 C 3,9 C 6,4 km/h (2 Bft) 100,00 %
12.03.2016 10:01 3,9 C 89 % 1025,8 hPa 0,0 l/m 7,5 km/h (2 Bft) NO 40 0 min 0,000 mm 0,0 UV-I 58 W/m 2,3 C 2,9 C 9,7 km/h (2 Bft) 100,00 %
12.03.2016 10:02 3,9 C 89 % 1025,8 hPa 0,0 l/m 8,5 km/h (2 Bft) NO 34 0 min 0,000 mm 0,0 UV-I 60 W/m 2,3 C 2,0 C 11,3 km/h (2 Bft) 100,00 %
12.03.2016 10:03 3,9 C 89 % 1025,8 hPa 0,0 l/m 9,6 km/h (2 Bft) N-NO 26 0 min 0,000 mm 0,0 UV-I 62 W/m 2,3 C 1,2 C 14,5 km/h (3 Bft) 100,00 %
12.03.2016 10:04 3,9 C 89 % 1025,8 hPa 0,0 l/m 8,4 km/h (2 Bft) NO 36 0 min 0,000 mm 0,0 UV-I 62 W/m 2,3 C 2,1 C 14,5 km/h (3 Bft) 100,00 %
12.03.2016 10:05 3,9 C 89 % 1025,8 hPa 0,0 l/m 7,4 km/h (2 Bft) NO 48 0 min 0,000 mm 0,0 UV-I 64 W/m 2,3 C 3,0 C 11,3 km/h (2 Bft) 100,00 %
12.03.2016 10:06 3,9 C 89 % 1025,8 hPa 0,0 l/m 10,0 km/h (2 Bft) NO 41 0 min 0,000 mm 0,0 UV-I 66 W/m 2,3 C 0,9 C 14,5 km/h (3 Bft) 96,15 %
12.03.2016 10:07 3,9 C 89 % 1025,8 hPa 0,0 l/m 11,9 km/h (2 Bft) N-NO 24 0 min 0,000 mm 0,0 UV-I 67 W/m 2,3 C -0,4 C 16,1 km/h (3 Bft) 100,00 %
12.03.2016 10:08 3,9 C 89 % 1025,8 hPa 0,0 l/m 8,6 km/h (2 Bft) N-NO 26 0 min 0,000 mm 0,0 UV-I 67 W/m 2,3 C 1,9 C 14,5 km/h (3 Bft) 100,00 %
12.03.2016 10:09 3,9 C 89 % 1025,8 hPa 0,0 l/m 6,1 km/h (2 Bft) NO 51 0 min 0,000 mm 0,0 UV-I 65 W/m 2,3 C 3,9 C 8,0 km/h (2 Bft) 100,00 %
12.03.2016 10:10 3,9 C 89 % 1025,8 hPa 0,0 l/m 7,9 km/h (2 Bft) NO 38 0 min 0,000 mm 0,0 UV-I 64 W/m 2,3 C 2,5 C 12,9 km/h (3 Bft) 98,52 %
12.03.2016 10:11 3,9 C 89 % 1025,8 hPa 0,0 l/m 6,6 km/h (2 Bft) NO 36 0 min 0,000 mm 0,0 UV-I 62 W/m 2,3 C 3,7 C 9,7 km/h (2 Bft) 100,00 %
12.03.2016 10:12 3,9 C 89 % 1025,8 hPa 0,0 l/m 6,3 km/h (2 Bft) NO 44 0 min 0,000 mm 0,0 UV-I 62 W/m 2,3 C 3,9 C 8,0 km/h (2 Bft) 100,00 %
12.03.2016 10:13 3,9 C 89 % 1025,8 hPa 0,0 l/m 5,1 km/h (1 Bft) NO 53 0 min 0,000 mm 0,0 UV-I 62 W/m 2,3 C 3,9 C 8,0 km/h (2 Bft) 100,00 %
12.03.2016 10:14 3,9 C 90 % 1025,8 hPa 0,0 l/m 7,3 km/h (2 Bft) NO 53 0 min 0,000 mm 0,0 UV-I 62 W/m 2,4 C 3,1 C 9,7 km/h (2 Bft) 100,00 %
12.03.2016 10:15 3,9 C 90 % 1025,8 hPa 0,0 l/m 8,9 km/h (2 Bft) NO 44 0 min 0,000 mm 0,0 UV-I 64 W/m 2,4 C 1,7 C 14,5 km/h (3 Bft) 100,00 %
12.03.2016 10:16 3,9 C 90 % 1025,8 hPa 0,0 l/m 12,9 km/h (3 Bft) N-NO 32 0 min 0,000 mm 0,0 UV-I 66 W/m 2,4 C -1,1 C 17,7 km/h (3 Bft) 100,00 %
12.03.2016 10:17 3,9 C 89 % 1025,8 hPa 0,0 l/m 9,0 km/h (2 Bft) NO 45 0 min 0,000 mm 0,0 UV-I 68 W/m 2,3 C 1,6 C 14,5 km/h (3 Bft) 100,00 %
12.03.2016 10:18 3,9 C 89 % 1025,8 hPa 0,0 l/m 8,4 km/h (2 Bft) NO 44 0 min 0,000 mm 0,0 UV-I 69 W/m 2,3 C 2,1 C 9,7 km/h (2 Bft) 100,00 %
12.03.2016 10:19 3,9 C 89 % 1025,8 hPa 0,0 l/m 8,7 km/h (2 Bft) O-NO 62 0 min 0,000 mm 0,0 UV-I 69 W/m 2,3 C 1,9 C 11,3 km/h (2 Bft) 100,00 %
12.03.2016 10:20 3,9 C 89 % 1025,8 hPa 0,0 l/m 6,0 km/h (2 Bft) NO 43 0 min 0,000 mm 0,0 UV-I 69 W/m 2,3 C 3,9 C 8,0 km/h (2 Bft) 100,00 %
12.03.2016 10:21 3,9 C 89 % 1025,8 hPa 0,0 l/m 8,6 km/h (2 Bft) NO 43 0 min 0,000 mm 0,0 UV-I 69 W/m 2,3 C 1,9 C 12,9 km/h (3 Bft) 100,00 %
12.03.2016 10:22 3,9 C 89 % 1025,8 hPa 0,0 l/m 8,5 km/h (2 Bft) N 10 0 min 0,000 mm 0,0 UV-I 71 W/m 2,3 C 2,0 C 12,9 km/h (3 Bft) 100,00 %
12.03.2016 10:23 3,9 C 89 % 1025,8 hPa 0,0 l/m 8,4 km/h (2 Bft) NO 43 0 min 0,000 mm 0,0 UV-I 74 W/m 2,3 C 2,1 C 11,3 km/h (2 Bft) 100,00 %
12.03.2016 10:24 3,9 C 89 % 1025,8 hPa 0,0 l/m 6,9 km/h (2 Bft) NO 51 0 min 0,000 mm 0,0 UV-I 74 W/m 2,3 C 3,4 C 8,0 km/h (2 Bft) 100,00 %
12.03.2016 10:25 3,9 C 89 % 1025,8 hPa 0,0 l/m 8,2 km/h (2 Bft) N-NO 33 0 min 0,000 mm 0,0 UV-I 76 W/m 2,3 C 2,3 C 14,5 km/h (3 Bft) 100,00 %
12.03.2016 10:26 3,9 C 89 % 1025,8 hPa 0,0 l/m 8,9 km/h (2 Bft) NO 38 0 min 0,000 mm 0,0 UV-I 77 W/m 2,3 C 1,7 C 12,9 km/h (3 Bft) 100,00 %
12.03.2016 10:27 3,9 C 89 % 1025,7 hPa 0,0 l/m 8,8 km/h (2 Bft) NO 34 0 min 0,000 mm 0,0 UV-I 78 W/m 2,3 C 1,8 C 12,9 km/h (3 Bft) 96,15 %
12.03.2016 10:28 3,9 C 89 % 1025,8 hPa 0,0 l/m 7,7 km/h (2 Bft) N-NO 23 0 min 0,000 mm 0,0 UV-I 79 W/m 2,3 C 2,7 C 9,7 km/h (2 Bft) 100,00 %
12.03.2016 10:29 3,9 C 89 % 1025,7 hPa 0,0 l/m 7,5 km/h (2 Bft) N-NO 19 0 min 0,000 mm 0,0 UV-I 79 W/m 2,3 C 2,9 C 9,7 km/h (2 Bft) 100,00 %
12.03.2016 10:30 4,0 C 89 % 1025,7 hPa 0,0 l/m 5,9 km/h (2 Bft) NO 51 0 min 0,000 mm 0,0 UV-I 79 W/m 2,4 C 4,0 C 6,4 km/h (2 Bft) 100,00 %
12.03.2016 10:31 4,0 C 89 % 1025,8 hPa 0,0 l/m 7,0 km/h (2 Bft) N-NO 30 0 min 0,000 mm 0,0 UV-I 77 W/m 2,4 C 3,5 C 9,7 km/h (2 Bft) 100,00 %
12.03.2016 10:32 4,0 C 89 % 1025,7 hPa 0,0 l/m 10,2 km/h (2 Bft) N-NO 15 0 min 0,000 mm 0,0 UV-I 76 W/m 2,4 C 0,8 C 14,5 km/h (3 Bft) 100,00 %
12.03.2016 10:33 4,0 C 89 % 1025,7 hPa 0,0 l/m 7,2 km/h (2 Bft) N-NO 27 0 min 0,000 mm 0,0 UV-I 73 W/m 2,4 C 3,3 C 9,7 km/h (2 Bft) 100,00 %
12.03.2016 10:34 4,0 C 89 % 1025,7 hPa 0,0 l/m 6,6 km/h (2 Bft) N-NO 26 0 min 0,000 mm 0,0 UV-I 72 W/m 2,4 C 3,8 C 11,3 km/h (2 Bft) 100,00 %
12.03.2016 10:35 4,0 C 89 % 1025,7 hPa 0,0 l/m 7,8 km/h (2 Bft) NO 36 0 min 0,000 mm 0,0 UV-I 71 W/m 2,4 C 2,7 C 11,3 km/h (2 Bft) 100,00 %
12.03.2016 10:36 4,0 C 89 % 1025,7 hPa 0,0 l/m 5,9 km/h (2 Bft) N-NO 25 0 min 0,000 mm 0,0 UV-I 72 W/m 2,4 C 4,0 C 8,0 km/h (2 Bft) 100,00 %
12.03.2016 10:37 4,0 C 89 % 1025,7 hPa 0,0 l/m 4,8 km/h (1 Bft) N-NO 30 0 min 0,000 mm 0,0 UV-I 74 W/m 2,4 C 4,0 C 8,0 km/h (2 Bft) 95,83 %
12.03.2016 10:38 4,1 C 89 % 1025,6 hPa 0,0 l/m 6,4 km/h (2 Bft) NO 36 0 min 0,000 mm 0,0 UV-I 77 W/m 2,5 C 4,1 C 9,7 km/h (2 Bft) 100,00 %
12.03.2016 10:39 4,1 C 90 % 1025,6 hPa 0,0 l/m 5,6 km/h (1 Bft) NO 41 0 min 0,000 mm 0,0 UV-I 78 W/m 2,6 C 4,1 C 6,4 km/h (2 Bft) 100,00 %
12.03.2016 10:40 4,1 C 90 % 1025,7 hPa 0,0 l/m 5,2 km/h (1 Bft) NO 45 0 min 0,000 mm 0,0 UV-I 80 W/m 2,6 C 4,1 C 8,0 km/h (2 Bft) 100,00 %
12.03.2016 10:41 4,1 C 89 % 1025,7 hPa 0,0 l/m 7,6 km/h (2 Bft) NO 48 0 min 0,000 mm 0,0 UV-I 81 W/m 2,5 C 3,0 C 9,7 km/h (2 Bft) 100,00 %
12.03.2016 10:42 4,1 C 88 % 1025,6 hPa 0,0 l/m 8,6 km/h (2 Bft) NO 50 0 min 0,000 mm 0,0 UV-I 79 W/m 2,3 C 2,2 C 11,3 km/h (2 Bft) 100,00 %
12.03.2016 10:43 4,1 C 88 % 1025,7 hPa 0,0 l/m 6,1 km/h (2 Bft) N-NO 30 0 min 0,000 mm 0,0 UV-I 77 W/m 2,3 C 4,1 C 8,0 km/h (2 Bft) 96,30 %
12.03.2016 10:44 4,1 C 89 % 1025,6 hPa 0,0 l/m 5,9 km/h (2 Bft) NO 40 0 min 0,000 mm 0,0 UV-I 75 W/m 2,5 C 4,1 C 8,0 km/h (2 Bft) 96,55 %
12.03.2016 10:45 4,1 C 89 % 1025,7 hPa 0,0 l/m 5,2 km/h (1 Bft) O-NO 57 0 min 0,000 mm 0,0 UV-I 72 W/m 2,5 C 4,1 C 6,4 km/h (2 Bft) 95,83 %
12.03.2016 10:46 4,1 C 89 % 1025,7 hPa 0,0 l/m 3,9 km/h (1 Bft) NO 46 0 min 0,000 mm 0,0 UV-I 72 W/m 2,5 C 4,1 C 4,8 km/h (1 Bft) 96,15 %
12.03.2016 10:47 4,1 C 89 % 1025,7 hPa 0,0 l/m 6,1 km/h (2 Bft) NO 46 0 min 0,000 mm 0,0 UV-I 72 W/m 2,5 C 4,1 C 8,0 km/h (2 Bft) 98,59 %
12.03.2016 10:48 4,1 C 89 % 1025,6 hPa 0,0 l/m 4,8 km/h (1 Bft) N-NO 19 0 min 0,000 mm 0,0 UV-I 70 W/m 2,5 C 4,1 C 6,4 km/h (2 Bft) 100,00 %
12.03.2016 10:49 4,2 C 89 % 1025,6 hPa 0,0 l/m 6,2 km/h (2 Bft) NO 46 0 min 0,000 mm 0,0 UV-I 66 W/m 2,6 C 4,2 C 9,7 km/h (2 Bft) 96,30 %
12.03.2016 10:50 4,2 C 90 % 1025,7 hPa 0,0 l/m 7,9 km/h (2 Bft) N-NO 24 0 min 0,000 mm 0,0 UV-I 63 W/m 2,7 C 2,8 C 14,5 km/h (3 Bft) 100,00 %
12.03.2016 10:51 4,2 C 89 % 1025,6 hPa 0,0 l/m 4,2 km/h (1 Bft) N-NO 32 0 min 0,000 mm 0,0 UV-I 63 W/m 2,6 C 4,2 C 6,4 km/h (2 Bft) 89,66 %
12.03.2016 10:52 4,2 C 89 % 1025,6 hPa 0,0 l/m 3,5 km/h (1 Bft) N-NO 24 0 min 0,000 mm 0,0 UV-I 63 W/m 2,6 C 4,2 C 6,4 km/h (2 Bft) 95,83 %
12.03.2016 10:53 4,2 C 89 % 1025,7 hPa 0,0 l/m 6,2 km/h (2 Bft) N-NO 15 0 min 0,000 mm 0,0 UV-I 64 W/m 2,6 C 4,2 C 8,0 km/h (2 Bft) 100,00 %
12.03.2016 10:54 4,2 C 90 % 1025,7 hPa 0,0 l/m 5,8 km/h (2 Bft) NO 35 0 min 0,000 mm 0,0 UV-I 67 W/m 2,7 C 4,2 C 8,0 km/h (2 Bft) 95,83 %
12.03.2016 10:55 4,2 C 89 % 1025,7 hPa 0,0 l/m 5,5 km/h (1 Bft) N-NO 28 0 min 0,000 mm 0,0 UV-I 67 W/m 2,6 C 4,2 C 6,4 km/h (2 Bft) 95,65 %
12.03.2016 10:56 4,2 C 89 % 1025,7 hPa 0,0 l/m 5,9 km/h (2 Bft) N-NO 29 0 min 0,000 mm 0,0 UV-I 65 W/m 2,6 C 4,2 C 8,0 km/h (2 Bft) 91,67 %
12.03.2016 10:57 4,2 C 89 % 1025,7 hPa 0,0 l/m 5,8 km/h (2 Bft) N-NO 17 0 min 0,000 mm 0,0 UV-I 64 W/m 2,6 C 4,2 C 9,7 km/h (2 Bft) 98,53 %
12.03.2016 10:58 4,2 C 89 % 1025,7 hPa 0,0 l/m 11,1 km/h (2 Bft) NO 40 0 min 0,000 mm 0,0 UV-I 66 W/m 2,6 C 0,4 C 14,5 km/h (3 Bft) 93,62 %
12.03.2016 10:59 4,2 C 88 % 1025,7 hPa 0,0 l/m 9,7 km/h (2 Bft) NO 46 0 min 0,000 mm 0,0 UV-I 67 W/m 2,4 C 1,4 C 12,9 km/h (3 Bft) 92,31 %
12.03.2016 11:00 4,2 C 88 % 1025,7 hPa 0,0 l/m 9,0 km/h (2 Bft) NO 43 0 min 0,025 mm 0,0 UV-I 69 W/m 2,4 C 1,9 C 11,3 km/h (2 Bft) 100,00 %
12.03.2016 11:01 4,2 C 89 % 1025,7 hPa 0,0 l/m 8,9 km/h (2 Bft) NO 41 0 min 0,000 mm 0,0 UV-I 69 W/m 2,6 C 2,0 C 11,3 km/h (2 Bft) 95,65 %
12.03.2016 11:02 4,2 C 89 % 1025,6 hPa 0,0 l/m 7,2 km/h (2 Bft) NO 41 0 min 0,000 mm 0,0 UV-I 69 W/m 2,6 C 3,5 C 14,5 km/h (3 Bft) 100,00 %
12.03.2016 11:03 4,2 C 89 % 1025,6 hPa 0,0 l/m 7,3 km/h (2 Bft) N-NO 20 0 min 0,000 mm 0,0 UV-I 69 W/m 2,6 C 3,4 C 12,9 km/h (3 Bft) 96,55 %
12.03.2016 11:04 4,2 C 89 % 1025,6 hPa 0,0 l/m 8,6 km/h (2 Bft) NO 36 0 min 0,000 mm 0,0 UV-I 70 W/m 2,6 C 2,3 C 9,7 km/h (2 Bft) 92,59 %
12.03.2016 11:05 4,2 C 88 % 1025,6 hPa 0,0 l/m 6,0 km/h (2 Bft) N-NO 30 0 min 0,000 mm 0,0 UV-I 73 W/m 2,4 C 4,2 C 8,0 km/h (2 Bft) 100,00 %
12.03.2016 11:06 4,2 C 89 % 1025,6 hPa 0,0 l/m 5,5 km/h (1 Bft) N 9 0 min 0,000 mm 0,0 UV-I 77 W/m 2,6 C 4,2 C 8,0 km/h (2 Bft) 92,59 %
12.03.2016 11:07 4,2 C 89 % 1025,6 hPa 0,0 l/m 7,2 km/h (2 Bft) N-NO 33 0 min 0,000 mm 0,4 UV-I 85 W/m 2,6 C 3,5 C 9,7 km/h (2 Bft) 100,00 %
12.03.2016 11:08 4,2 C 89 % 1025,6 hPa 0,0 l/m 7,7 km/h (2 Bft) O-NO 68 0 min 0,000 mm 0,5 UV-I 90 W/m 2,6 C 3,0 C 9,7 km/h (2 Bft) 95,83 %
12.03.2016 11:09 4,2 C 88 % 1025,7 hPa 0,0 l/m 8,2 km/h (2 Bft) N-NO 19 0 min 0,000 mm 0,5 UV-I 91 W/m 2,4 C 2,6 C 12,9 km/h (3 Bft) 100,00 %
12.03.2016 11:10 4,2 C 88 % 1025,6 hPa 0,0 l/m 6,4 km/h (2 Bft) NO 49 0 min 0,000 mm 0,5 UV-I 88 W/m 2,4 C 4,2 C 9,7 km/h (2 Bft) 95,83 %
12.03.2016 11:11 4,2 C 89 % 1025,6 hPa 0,0 l/m 6,8 km/h (2 Bft) N-NO 19 0 min 0,000 mm 0,5 UV-I 84 W/m 2,6 C 3,8 C 8,0 km/h (2 Bft) 86,67 %
12.03.2016 11:12 4,3 C 89 % 1025,6 hPa 0,0 l/m 6,0 km/h (2 Bft) N-NO 23 0 min 0,000 mm 0,5 UV-I 84 W/m 2,7 C 4,3 C 8,0 km/h (2 Bft) 96,15 %
12.03.2016 11:13 4,3 C 89 % 1025,7 hPa 0,0 l/m 7,8 km/h (2 Bft) N-NO 33 0 min 0,000 mm 0,5 UV-I 84 W/m 2,7 C 3,0 C 12,9 km/h (3 Bft) 96,30 %
12.03.2016 11:14 4,3 C 89 % 1025,7 hPa 0,0 l/m 5,7 km/h (1 Bft) N-NO 28 0 min 0,000 mm 0,5 UV-I 86 W/m 2,7 C 4,3 C 9,7 km/h (2 Bft) 96,15 %
12.03.2016 11:15 4,3 C 89 % 1025,7 hPa 0,0 l/m 6,9 km/h (2 Bft) N-NO 27 0 min 0,000 mm 0,5 UV-I 91 W/m 2,7 C 3,9 C 9,7 km/h (2 Bft) 100,00 %
12.03.2016 11:16 4,3 C 88 % 1025,7 hPa 0,0 l/m 8,2 km/h (2 Bft) N-NO 31 0 min 0,000 mm 0,5 UV-I 95 W/m 2,5 C 2,7 C 12,9 km/h (3 Bft) 88,24 %
12.03.2016 11:17 4,3 C 88 % 1025,7 hPa 0,0 l/m 7,5 km/h (2 Bft) NO 36 0 min 0,000 mm 0,6 UV-I 99 W/m 2,5 C 3,3 C 11,3 km/h (2 Bft) 100,00 %
12.03.2016 11:18 4,3 C 89 % 1025,7 hPa 0,0 l/m 7,0 km/h (2 Bft) N 5 0 min 0,000 mm 0,6 UV-I 104 W/m 2,7 C 3,8 C 11,3 km/h (2 Bft) 100,00 %
12.03.2016 11:19 4,3 C 89 % 1025,7 hPa 0,0 l/m 5,9 km/h (2 Bft) N-NO 24 0 min 0,000 mm 0,6 UV-I 104 W/m 2,7 C 4,3 C 9,7 km/h (2 Bft) 100,00 %
12.03.2016 11:20 4,3 C 89 % 1025,7 hPa 0,0 l/m 8,9 km/h (2 Bft) NO 46 0 min 0,000 mm 0,6 UV-I 107 W/m 2,7 C 2,1 C 14,5 km/h (3 Bft) 96,55 %
12.03.2016 11:21 4,3 C 89 % 1025,7 hPa 0,0 l/m 9,9 km/h (2 Bft) N-NO 24 0 min 0,000 mm 0,6 UV-I 112 W/m 2,7 C 1,4 C 14,5 km/h (3 Bft) 91,67 %
12.03.2016 11:22 4,3 C 89 % 1025,7 hPa 0,0 l/m 8,9 km/h (2 Bft) NO 39 0 min 0,000 mm 0,7 UV-I 120 W/m 2,7 C 2,1 C 14,5 km/h (3 Bft) 100,00 %
12.03.2016 11:23 4,4 C 89 % 1025,7 hPa 0,0 l/m 6,0 km/h (2 Bft) N-NO 26 0 min 0,000 mm 0,7 UV-I 127 W/m 2,7 C 4,4 C 9,7 km/h (2 Bft) 100,00 %
12.03.2016 11:24 4,4 C 89 % 1025,7 hPa 0,0 l/m 14,0 km/h (3 Bft) NO 38 0 min 0,000 mm 0,8 UV-I 138 W/m 2,7 C -1,1 C 17,7 km/h (3 Bft) 100,00 %
12.03.2016 11:25 4,4 C 88 % 1025,7 hPa 0,0 l/m 14,0 km/h (3 Bft) N-NO 22 0 min 0,000 mm 0,9 UV-I 148 W/m 2,6 C -1,1 C 17,7 km/h (3 Bft) 100,00 %
12.03.2016 11:26 4,4 C 87 % 1025,7 hPa 0,0 l/m 7,2 km/h (2 Bft) O-NO 59 0 min 0,000 mm 0,9 UV-I 156 W/m 2,4 C 3,7 C 12,9 km/h (3 Bft) 100,00 %
12.03.2016 11:27 4,4 C 87 % 1025,7 hPa 0,0 l/m 10,9 km/h (2 Bft) NO 41 0 min 0,000 mm 1,0 UV-I 163 W/m 2,4 C 0,8 C 17,7 km/h (3 Bft) 100,00 %
12.03.2016 11:28 4,4 C 87 % 1025,7 hPa 0,0 l/m 12,2 km/h (2 Bft) N-NO 32 0 min 0,000 mm 1,0 UV-I 166 W/m 2,4 C -0,1 C 14,5 km/h (3 Bft) 100,00 %
12.03.2016 11:29 4,4 C 88 % 1025,7 hPa 0,0 l/m 9,0 km/h (2 Bft) NO 38 0 min 0,000 mm 1,0 UV-I 164 W/m 2,6 C 2,2 C 12,9 km/h (3 Bft) 100,00 %
12.03.2016 11:30 4,5 C 88 % 1025,7 hPa 0,0 l/m 8,4 km/h (2 Bft) N-NO 19 0 min 0,000 mm 0,9 UV-I 155 W/m 2,7 C 2,7 C 11,3 km/h (2 Bft) 100,00 %
12.03.2016 11:31 4,6 C 88 % 1025,7 hPa 0,0 l/m 10,7 km/h (2 Bft) NO 34 0 min 0,000 mm 0,9 UV-I 147 W/m 2,8 C 1,1 C 14,5 km/h (3 Bft) 100,00 %
12.03.2016 11:32 4,6 C 88 % 1025,7 hPa 0,0 l/m 7,6 km/h (2 Bft) NO 49 0 min 0,000 mm 0,9 UV-I 138 W/m 2,8 C 3,5 C 9,7 km/h (2 Bft) 100,00 %
12.03.2016 11:33 4,6 C 87 % 1025,7 hPa 0,0 l/m 8,5 km/h (2 Bft) N-NO 15 0 min 0,000 mm 0,8 UV-I 132 W/m 2,6 C 2,8 C 12,9 km/h (3 Bft) 100,00 %
12.03.2016 11:34 4,6 C 87 % 1025,7 hPa 0,0 l/m 6,9 km/h (2 Bft) N-NO 12 0 min 0,000 mm 0,8 UV-I 128 W/m 2,6 C 4,2 C 14,5 km/h (3 Bft) 100,00 %
12.03.2016 11:35 4,6 C 87 % 1025,7 hPa 0,0 l/m 7,0 km/h (2 Bft) NO 45 0 min 0,000 mm 0,7 UV-I 121 W/m 2,6 C 4,1 C 14,5 km/h (3 Bft) 100,00 %
12.03.2016 11:36 4,6 C 87 % 1025,7 hPa 0,0 l/m 8,2 km/h (2 Bft) N-NO 22 0 min 0,000 mm 0,7 UV-I 116 W/m 2,6 C 3,0 C 11,3 km/h (2 Bft) 92,59 %
12.03.2016 11:37 4,6 C 87 % 1025,7 hPa 0,0 l/m 8,4 km/h (2 Bft) N-NO 21 0 min 0,000 mm 0,6 UV-I 107 W/m 2,6 C 2,9 C 14,5 km/h (3 Bft) 100,00 %
12.03.2016 11:38 4,6 C 87 % 1025,7 hPa 0,0 l/m 6,8 km/h (2 Bft) N-NO 14 0 min 0,000 mm 0,6 UV-I 100 W/m 2,6 C 4,3 C 12,9 km/h (3 Bft) 95,83 %
12.03.2016 11:39 4,6 C 87 % 1025,7 hPa 0,0 l/m 9,1 km/h (2 Bft) NO 34 0 min 0,000 mm 0,6 UV-I 97 W/m 2,6 C 2,3 C 17,7 km/h (3 Bft) 100,00 %
12.03.2016 11:40 4,6 C 87 % 1025,7 hPa 0,0 l/m 7,2 km/h (2 Bft) N 5 0 min 0,000 mm 0,6 UV-I 97 W/m 2,6 C 3,9 C 12,9 km/h (3 Bft) 100,00 %
12.03.2016 11:41 4,6 C 87 % 1025,7 hPa 0,0 l/m 5,0 km/h (1 Bft) NO 36 0 min 0,000 mm 0,6 UV-I 95 W/m 2,6 C 4,6 C 9,7 km/h (2 Bft) 100,00 %
12.03.2016 11:42 4,6 C 87 % 1025,7 hPa 0,0 l/m 6,4 km/h (2 Bft) N-NO 23 0 min 0,000 mm 0,5 UV-I 93 W/m 2,6 C 4,6 C 11,3 km/h (2 Bft) 96,67 %
12.03.2016 11:43 4,6 C 87 % 1025,7 hPa 0,0 l/m 8,2 km/h (2 Bft) N-NO 22 0 min 0,000 mm 0,5 UV-I 91 W/m 2,6 C 3,0 C 12,9 km/h (3 Bft) 100,00 %
12.03.2016 11:44 4,5 C 87 % 1025,7 hPa 0,0 l/m 8,3 km/h (2 Bft) N-NO 19 0 min 0,000 mm 0,5 UV-I 93 W/m 2,5 C 2,8 C 12,9 km/h (3 Bft) 100,00 %
12.03.2016 11:45 4,5 C 87 % 1025,7 hPa 0,0 l/m 10,1 km/h (2 Bft) NO 36 0 min 0,000 mm 0,6 UV-I 98 W/m 2,5 C 1,4 C 16,1 km/h (3 Bft) 97,56 %
12.03.2016 11:46 4,5 C 87 % 1025,7 hPa 0,0 l/m 10,1 km/h (2 Bft) N-NO 30 0 min 0,000 mm 0,6 UV-I 105 W/m 2,5 C 1,4 C 14,5 km/h (3 Bft) 100,00 %
12.03.2016 11:47 4,5 C 87 % 1025,7 hPa 0,0 l/m 7,6 km/h (2 Bft) NO 41 0 min 0,000 mm 0,7 UV-I 114 W/m 2,5 C 3,4 C 11,3 km/h (2 Bft) 92,31 %
12.03.2016 11:48 4,6 C 87 % 1025,7 hPa 0,0 l/m 9,2 km/h (2 Bft) NO 34 0 min 0,000 mm 0,7 UV-I 122 W/m 2,6 C 2,2 C 11,3 km/h (2 Bft) 100,00 %
12.03.2016 11:49 4,6 C 88 % 1025,7 hPa 0,0 l/m 10,1 km/h (2 Bft) NO 41 0 min 0,000 mm 0,8 UV-I 129 W/m 2,8 C 1,6 C 16,1 km/h (3 Bft) 100,00 %
12.03.2016 11:50 4,6 C 88 % 1025,7 hPa 0,0 l/m 9,4 km/h (2 Bft) O-NO 59 0 min 0,000 mm 0,8 UV-I 132 W/m 2,8 C 2,1 C 14,5 km/h (3 Bft) 100,00 %
12.03.2016 11:51 4,6 C 86 % 1025,7 hPa 0,0 l/m 9,5 km/h (2 Bft) NO 38 0 min 0,000 mm 0,8 UV-I 131 W/m 2,5 C 2,0 C 12,9 km/h (3 Bft) 100,00 %
12.03.2016 11:52 4,6 C 86 % 1025,7 hPa 0,0 l/m 8,6 km/h (2 Bft) NO 47 0 min 0,000 mm 0,8 UV-I 130 W/m 2,5 C 2,7 C 11,3 km/h (2 Bft) 100,00 %
12.03.2016 11:53 4,6 C 86 % 1025,7 hPa 0,0 l/m 8,5 km/h (2 Bft) NO 54 0 min 0,000 mm 0,8 UV-I 134 W/m 2,5 C 2,8 C 11,3 km/h (2 Bft) 92,31 %
12.03.2016 11:54 4,7 C 86 % 1025,7 hPa 0,0 l/m 10,5 km/h (2 Bft) NO 41 0 min 0,000 mm 0,9 UV-I 138 W/m 2,6 C 1,4 C 14,5 km/h (3 Bft) 100,00 %
12.03.2016 11:55 4,7 C 86 % 1025,7 hPa 0,0 l/m 11,5 km/h (2 Bft) O-NO 61 0 min 0,000 mm 0,9 UV-I 142 W/m 2,6 C 0,7 C 17,7 km/h (3 Bft) 96,97 %
12.03.2016 11:56 4,7 C 87 % 1025,7 hPa 0,0 l/m 10,8 km/h (2 Bft) NO 44 0 min 0,000 mm 0,9 UV-I 147 W/m 2,7 C 1,2 C 14,5 km/h (3 Bft) 100,00 %
12.03.2016 11:57 4,7 C 86 % 1025,7 hPa 0,0 l/m 12,4 km/h (3 Bft) NO 44 0 min 0,000 mm 0,9 UV-I 148 W/m 2,6 C 0,2 C 14,5 km/h (3 Bft) 100,00 %
12.03.2016 11:58 4,7 C 86 % 1025,7 hPa 0,0 l/m 8,9 km/h (2 Bft) NO 49 0 min 0,000 mm 0,9 UV-I 146 W/m 2,6 C 2,6 C 14,5 km/h (3 Bft) 100,00 %
12.03.2016 11:59 4,7 C 86 % 1025,7 hPa 0,0 l/m 8,3 km/h (2 Bft) O-NO 71 0 min 0,000 mm 0,9 UV-I 141 W/m 2,6 C 3,0 C 11,3 km/h (2 Bft) 100,00 %
12.03.2016 12:00 4,7 C 86 % 1025,7 hPa 0,0 l/m 7,9 km/h (2 Bft) O-NO 61 0 min 0,000 mm 0,9 UV-I 137 W/m 2,6 C 3,4 C 9,7 km/h (2 Bft) 95,65 %
12.03.2016 12:01 4,7 C 85 % 1025,7 hPa 0,0 l/m 9,7 km/h (2 Bft) NO 55 0 min 0,051 mm 0,8 UV-I 136 W/m 2,4 C 2,0 C 12,9 km/h (3 Bft) 100,00 %
12.03.2016 12:02 4,7 C 85 % 1025,7 hPa 0,0 l/m 8,1 km/h (2 Bft) NO 46 0 min 0,000 mm 0,8 UV-I 129 W/m 2,4 C 3,2 C 12,9 km/h (3 Bft) 100,00 %
12.03.2016 12:03 4,7 C 86 % 1025,7 hPa 0,0 l/m 8,5 km/h (2 Bft) NO 44 0 min 0,000 mm 0,8 UV-I 120 W/m 2,6 C 2,9 C 11,3 km/h (2 Bft) 100,00 %
12.03.2016 12:04 4,7 C 85 % 1025,7 hPa 0,0 l/m 8,8 km/h (2 Bft) NO 38 0 min 0,000 mm 0,7 UV-I 112 W/m 2,4 C 2,6 C 12,9 km/h (3 Bft) 100,00 %
12.03.2016 12:05 4,7 C 85 % 1025,7 hPa 0,0 l/m 7,3 km/h (2 Bft) N-NO 23 0 min 0,000 mm 0,6 UV-I 104 W/m 2,4 C 3,9 C 9,7 km/h (2 Bft) 100,00 %
12.03.2016 12:06 4,7 C 85 % 1025,7 hPa 0,0 l/m 7,2 km/h (2 Bft) N-NO 26 0 min 0,000 mm 0,6 UV-I 99 W/m 2,4 C 4,0 C 9,7 km/h (2 Bft) 100,00 %
12.03.2016 12:07 4,7 C 86 % 1025,7 hPa 0,0 l/m 6,6 km/h (2 Bft) NO 39 0 min 0,000 mm 0,6 UV-I 98 W/m 2,6 C 4,5 C 9,7 km/h (2 Bft) 100,00 %
12.03.2016 12:08 4,7 C 86 % 1025,7 hPa 0,0 l/m 2,8 km/h (1 Bft) N-NW 340 0 min 0,000 mm 0,6 UV-I 98 W/m 2,6 C 4,7 C 4,8 km/h (1 Bft) 100,00 %
12.03.2016 12:09 4,8 C 87 % 1025,7 hPa 0,0 l/m 1,8 km/h (1 Bft) NO 34 0 min 0,000 mm 0,6 UV-I 98 W/m 2,8 C 4,8 C 3,2 km/h (1 Bft) 100,00 %
12.03.2016 12:10 4,8 C 87 % 1025,7 hPa 0,0 l/m 6,9 km/h (2 Bft) NO 36 0 min 0,000 mm 0,6 UV-I 98 W/m 2,8 C 4,4 C 9,7 km/h (2 Bft) 100,00 %
12.03.2016 12:11 4,8 C 86 % 1025,6 hPa 0,0 l/m 5,6 km/h (1 Bft) N-NO 13 0 min 0,000 mm 0,6 UV-I 97 W/m 2,7 C 4,8 C 12,9 km/h (3 Bft) 100,00 %
12.03.2016 12:12 4,8 C 87 % 1025,7 hPa 0,0 l/m 7,9 km/h (2 Bft) O-NO 62 0 min 0,000 mm 0,6 UV-I 95 W/m 2,8 C 3,5 C 11,3 km/h (2 Bft) 100,00 %
12.03.2016 12:13 4,8 C 86 % 1025,7 hPa 0,0 l/m 7,0 km/h (2 Bft) N-NO 23 0 min 0,000 mm 0,6 UV-I 97 W/m 2,7 C 4,3 C 9,7 km/h (2 Bft) 100,00 %
12.03.2016 12:14 4,8 C 86 % 1025,7 hPa 0,0 l/m 9,4 km/h (2 Bft) N 9 0 min 0,000 mm 0,6 UV-I 98 W/m 2,7 C 2,3 C 14,5 km/h (3 Bft) 100,00 %
12.03.2016 12:15 4,8 C 86 % 1025,7 hPa 0,0 l/m 4,7 km/h (1 Bft) N 355 0 min 0,000 mm 0,6 UV-I 99 W/m 2,7 C 4,8 C 6,4 km/h (2 Bft) 100,00 %
12.03.2016 12:16 4,8 C 86 % 1025,6 hPa 0,0 l/m 10,2 km/h (2 Bft) N-NO 33 0 min 0,000 mm 0,6 UV-I 100 W/m 2,7 C 1,7 C 14,5 km/h (3 Bft) 100,00 %
12.03.2016 12:17 4,8 C 86 % 1025,7 hPa 0,0 l/m 7,4 km/h (2 Bft) NO 40 0 min 0,000 mm 0,6 UV-I 105 W/m 2,7 C 3,9 C 9,7 km/h (2 Bft) 100,00 %
12.03.2016 12:18 4,8 C 86 % 1025,7 hPa 0,0 l/m 7,6 km/h (2 Bft) NO 38 0 min 0,000 mm 0,7 UV-I 108 W/m 2,7 C 3,7 C 12,9 km/h (3 Bft) 100,00 %
12.03.2016 12:19 4,8 C 86 % 1025,6 hPa 0,0 l/m 8,2 km/h (2 Bft) N 355 0 min 0,000 mm 0,7 UV-I 112 W/m 2,7 C 3,2 C 12,9 km/h (3 Bft) 100,00 %
12.03.2016 12:20 4,8 C 86 % 1025,7 hPa 0,0 l/m 8,4 km/h (2 Bft) N 5 0 min 0,000 mm 0,7 UV-I 114 W/m 2,7 C 3,1 C 12,9 km/h (3 Bft) 100,00 %
12.03.2016 12:21 4,8 C 86 % 1025,7 hPa 0,0 l/m 8,7 km/h (2 Bft) N-NO 22 0 min 0,000 mm 0,8 UV-I 120 W/m 2,7 C 2,8 C 12,9 km/h (3 Bft) 100,00 %
12.03.2016 12:22 4,8 C 85 % 1025,6 hPa 0,0 l/m 7,2 km/h (2 Bft) N 360 0 min 0,000 mm 0,8 UV-I 126 W/m 2,5 C 4,1 C 12,9 km/h (3 Bft) 100,00 %
12.03.2016 12:23 4,8 C 85 % 1025,6 hPa 0,0 l/m 4,8 km/h (1 Bft) NO 46 0 min 0,000 mm 0,8 UV-I 126 W/m 2,5 C 4,8 C 11,3 km/h (2 Bft) 100,00 %
12.03.2016 12:24 4,8 C 85 % 1025,6 hPa 0,0 l/m 10,8 km/h (2 Bft) NO 39 0 min 0,000 mm 0,7 UV-I 122 W/m 2,5 C 1,3 C 16,1 km/h (3 Bft) 100,00 %
12.03.2016 12:25 4,8 C 86 % 1025,6 hPa 0,0 l/m 7,8 km/h (2 Bft) N-NO 24 0 min 0,000 mm 0,7 UV-I 118 W/m 2,7 C 3,6 C 12,9 km/h (3 Bft) 100,00 %
12.03.2016 12:26 4,8 C 86 % 1025,6 hPa 0,0 l/m 7,0 km/h (2 Bft) N 355 0 min 0,000 mm 0,7 UV-I 115 W/m 2,7 C 4,3 C 9,7 km/h (2 Bft) 100,00 %
12.03.2016 12:27 4,9 C 86 % 1025,6 hPa 0,0 l/m 8,6 km/h (2 Bft) N-NO 23 0 min 0,000 mm 0,7 UV-I 114 W/m 2,8 C 3,0 C 14,5 km/h (3 Bft) 98,50 %
12.03.2016 12:28 4,9 C 86 % 1025,6 hPa 0,0 l/m 9,4 km/h (2 Bft) NO 41 0 min 0,000 mm 0,7 UV-I 114 W/m 2,8 C 2,4 C 14,5 km/h (3 Bft) 100,00 %
12.03.2016 12:29 4,9 C 86 % 1025,6 hPa 0,0 l/m 9,6 km/h (2 Bft) N-NO 13 0 min 0,000 mm 0,7 UV-I 116 W/m 2,8 C 2,2 C 12,9 km/h (3 Bft) 100,00 %
12.03.2016 12:30 4,9 C 85 % 1025,6 hPa 0,0 l/m 6,3 km/h (2 Bft) N-NO 15 0 min 0,000 mm 0,7 UV-I 114 W/m 2,6 C 4,9 C 11,3 km/h (2 Bft) 100,00 %
12.03.2016 12:31 4,9 C 86 % 1025,5 hPa 0,0 l/m 7,3 km/h (2 Bft) N-NO 19 0 min 0,000 mm 0,7 UV-I 116 W/m 2,8 C 4,1 C 11,3 km/h (2 Bft) 100,00 %
12.03.2016 12:32 4,9 C 85 % 1025,6 hPa 0,0 l/m 4,7 km/h (1 Bft) N-NO 24 0 min 0,000 mm 0,7 UV-I 120 W/m 2,6 C 4,9 C 6,4 km/h (2 Bft) 100,00 %
12.03.2016 12:33 4,9 C 86 % 1025,6 hPa 0,0 l/m 9,8 km/h (2 Bft) NO 43 0 min 0,000 mm 0,7 UV-I 122 W/m 2,8 C 2,1 C 16,1 km/h (3 Bft) 100,00 %
12.03.2016 12:34 4,9 C 86 % 1025,5 hPa 0,0 l/m 12,5 km/h (3 Bft) NO 49 0 min 0,000 mm 0,7 UV-I 120 W/m 2,8 C 0,3 C 16,1 km/h (3 Bft) 100,00 %
12.03.2016 12:35 4,9 C 85 % 1025,5 hPa 0,0 l/m 10,7 km/h (2 Bft) N-NO 30 0 min 0,000 mm 0,7 UV-I 114 W/m 2,6 C 1,5 C 17,7 km/h (3 Bft) 100,00 %
12.03.2016 12:36 4,9 C 85 % 1025,5 hPa 0,0 l/m 14,9 km/h (3 Bft) NO 49 0 min 0,000 mm 0,7 UV-I 108 W/m 2,6 C -1,0 C 19,3 km/h (3 Bft) 100,00 %
12.03.2016 12:37 4,9 C 85 % 1025,6 hPa 0,0 l/m 9,7 km/h (2 Bft) O-NO 64 0 min 0,000 mm 0,7 UV-I 106 W/m 2,6 C 2,2 C 14,5 km/h (3 Bft) 100,00 %
12.03.2016 12:38 4,8 C 84 % 1025,6 hPa 0,0 l/m 6,6 km/h (2 Bft) N-NO 32 0 min 0,000 mm 0,6 UV-I 105 W/m 2,3 C 4,6 C 14,5 km/h (3 Bft) 100,00 %
12.03.2016 12:39 4,8 C 85 % 1025,6 hPa 0,0 l/m 9,1 km/h (2 Bft) NO 46 0 min 0,000 mm 0,6 UV-I 104 W/m 2,5 C 2,5 C 14,5 km/h (3 Bft) 100,00 %
12.03.2016 12:40 4,8 C 85 % 1025,6 hPa 0,0 l/m 9,7 km/h (2 Bft) NO 50 0 min 0,000 mm 0,6 UV-I 105 W/m 2,5 C 2,1 C 12,9 km/h (3 Bft) 100,00 %
12.03.2016 12:41 4,8 C 85 % 1025,5 hPa 0,0 l/m 8,9 km/h (2 Bft) NO 36 0 min 0,000 mm 0,7 UV-I 109 W/m 2,5 C 2,7 C 11,3 km/h (2 Bft) 100,00 %
12.03.2016 12:42 4,9 C 85 % 1025,6 hPa 0,0 l/m 8,3 km/h (2 Bft) N-NO 28 0 min 0,000 mm 0,7 UV-I 111 W/m 2,6 C 3,3 C 11,3 km/h (2 Bft) 100,00 %
12.03.2016 12:43 4,9 C 84 % 1025,6 hPa 0,0 l/m 4,6 km/h (1 Bft) NO 42 0 min 0,000 mm 0,7 UV-I 110 W/m 2,4 C 4,9 C 6,4 km/h (2 Bft) 96,30 %
12.03.2016 12:44 4,9 C 86 % 1025,5 hPa 0,0 l/m 4,0 km/h (1 Bft) O-NO 59 0 min 0,000 mm 0,6 UV-I 106 W/m 2,8 C 4,9 C 6,4 km/h (2 Bft) 100,00 %
12.03.2016 12:45 4,9 C 85 % 1025,5 hPa 0,0 l/m 6,4 km/h (2 Bft) NO 53 0 min 0,000 mm 0,6 UV-I 104 W/m 2,6 C 4,9 C 9,7 km/h (2 Bft) 96,30 %
12.03.2016 12:46 4,9 C 85 % 1025,5 hPa 0,0 l/m 8,9 km/h (2 Bft) NO 44 0 min 0,000 mm 0,6 UV-I 106 W/m 2,6 C 2,8 C 12,9 km/h (3 Bft) 100,00 %
12.03.2016 12:47 4,9 C 86 % 1025,5 hPa 0,0 l/m 11,9 km/h (2 Bft) N-NO 23 0 min 0,000 mm 0,7 UV-I 113 W/m 2,8 C 0,7 C 16,1 km/h (3 Bft) 95,83 %
12.03.2016 12:48 4,9 C 85 % 1025,5 hPa 0,0 l/m 14,4 km/h (3 Bft) N-NO 30 0 min 0,000 mm 0,7 UV-I 120 W/m 2,6 C -0,7 C 16,1 km/h (3 Bft) 98,54 %
12.03.2016 12:49 4,9 C 84 % 1025,5 hPa 0,0 l/m 10,2 km/h (2 Bft) NO 41 0 min 0,000 mm 0,7 UV-I 125 W/m 2,4 C 1,8 C 14,5 km/h (3 Bft) 97,73 %
12.03.2016 12:50 4,9 C 85 % 1025,5 hPa 0,0 l/m 7,2 km/h (2 Bft) NO 37 0 min 0,000 mm 0,8 UV-I 131 W/m 2,6 C 4,2 C 9,7 km/h (2 Bft) 95,65 %
12.03.2016 12:51 4,9 C 84 % 1025,4 hPa 0,0 l/m 8,6 km/h (2 Bft) NO 44 0 min 0,000 mm 0,8 UV-I 130 W/m 2,4 C 3,0 C 14,5 km/h (3 Bft) 100,00 %
12.03.2016 12:52 4,9 C 84 % 1025,4 hPa 0,0 l/m 7,9 km/h (2 Bft) N 10 0 min 0,000 mm 0,7 UV-I 124 W/m 2,4 C 3,6 C 9,7 km/h (2 Bft) 93,33 %
12.03.2016 12:53 4,9 C 84 % 1025,5 hPa 0,0 l/m 9,1 km/h (2 Bft) N-NO 24 0 min 0,000 mm 0,7 UV-I 117 W/m 2,4 C 2,6 C 11,3 km/h (2 Bft) 100,00 %
12.03.2016 12:54 4,9 C 85 % 1025,5 hPa 0,0 l/m 7,2 km/h (2 Bft) N-NO 14 0 min 0,000 mm 0,7 UV-I 114 W/m 2,6 C 4,2 C 11,3 km/h (2 Bft) 87,50 %
12.03.2016 12:55 4,9 C 85 % 1025,5 hPa 0,0 l/m 5,8 km/h (2 Bft) NO 37 0 min 0,000 mm 0,7 UV-I 115 W/m 2,6 C 4,9 C 8,0 km/h (2 Bft) 100,00 %
12.03.2016 12:56 4,9 C 84 % 1025,5 hPa 0,0 l/m 8,8 km/h (2 Bft) NO 42 0 min 0,000 mm 0,7 UV-I 116 W/m 2,4 C 2,9 C 12,9 km/h (3 Bft) 96,30 %
12.03.2016 12:57 4,9 C 84 % 1025,5 hPa 0,0 l/m 7,0 km/h (2 Bft) NO 44 0 min 0,000 mm 0,7 UV-I 116 W/m 2,4 C 4,4 C 9,7 km/h (2 Bft) 96,15 %
12.03.2016 12:58 4,9 C 84 % 1025,5 hPa 0,0 l/m 7,6 km/h (2 Bft) N-NO 21 0 min 0,000 mm 0,7 UV-I 118 W/m 2,4 C 3,8 C 11,3 km/h (2 Bft) 100,00 %
12.03.2016 12:59 5,0 C 84 % 1025,5 hPa 0,0 l/m 7,3 km/h (2 Bft) N-NO 20 0 min 0,000 mm 0,7 UV-I 119 W/m 2,5 C 4,2 C 11,3 km/h (2 Bft) 96,15 %
12.03.2016 13:00 5,0 C 84 % 1025,5 hPa 0,0 l/m 7,2 km/h (2 Bft) NO 43 0 min 0,051 mm 0,7 UV-I 121 W/m 2,5 C 4,3 C 11,3 km/h (2 Bft) 96,30 %
12.03.2016 13:01 5,0 C 84 % 1025,5 hPa 0,0 l/m 5,0 km/h (1 Bft) N-NO 31 0 min 0,000 mm 0,7 UV-I 122 W/m 2,5 C 5,0 C 6,4 km/h (2 Bft) 96,15 %
12.03.2016 13:02 5,0 C 84 % 1025,5 hPa 0,0 l/m 4,8 km/h (1 Bft) NO 34 0 min 0,000 mm 0,7 UV-I 124 W/m 2,5 C 5,0 C 6,4 km/h (2 Bft) 100,00 %
12.03.2016 13:03 5,0 C 84 % 1025,5 hPa 0,0 l/m 7,3 km/h (2 Bft) O-NO 69 0 min 0,000 mm 0,7 UV-I 125 W/m 2,5 C 4,2 C 12,9 km/h (3 Bft) 92,86 %
12.03.2016 13:04 5,0 C 83 % 1025,5 hPa 0,0 l/m 8,8 km/h (2 Bft) NO 36 0 min 0,000 mm 0,8 UV-I 130 W/m 2,4 C 3,0 C 11,3 km/h (2 Bft) 100,00 %
12.03.2016 13:05 5,0 C 84 % 1025,5 hPa 0,0 l/m 8,2 km/h (2 Bft) N-NO 19 0 min 0,000 mm 0,8 UV-I 131 W/m 2,5 C 3,4 C 12,9 km/h (3 Bft) 91,30 %
12.03.2016 13:06 5,0 C 84 % 1025,5 hPa 0,0 l/m 6,4 km/h (2 Bft) N-NO 24 0 min 0,000 mm 0,8 UV-I 129 W/m 2,5 C 5,0 C 9,7 km/h (2 Bft) 100,00 %
12.03.2016 13:07 5,1 C 85 % 1025,5 hPa 0,0 l/m 5,4 km/h (1 Bft) N-NO 12 0 min 0,000 mm 0,8 UV-I 126 W/m 2,8 C 5,1 C 8,0 km/h (2 Bft) 96,15 %
12.03.2016 13:08 5,1 C 85 % 1025,4 hPa 0,0 l/m 7,2 km/h (2 Bft) N-NO 30 0 min 0,000 mm 0,7 UV-I 124 W/m 2,8 C 4,4 C 11,3 km/h (2 Bft) 95,83 %
12.03.2016 13:09 5,1 C 84 % 1025,5 hPa 0,0 l/m 7,1 km/h (2 Bft) N-NO 25 0 min 0,000 mm 0,7 UV-I 121 W/m 2,6 C 4,5 C 12,9 km/h (3 Bft) 100,00 %
12.03.2016 13:10 5,1 C 84 % 1025,5 hPa 0,0 l/m 4,6 km/h (1 Bft) NO 49 0 min 0,000 mm 0,7 UV-I 120 W/m 2,6 C 5,1 C 6,4 km/h (2 Bft) 96,15 %
12.03.2016 13:11 5,1 C 85 % 1025,4 hPa 0,0 l/m 4,8 km/h (1 Bft) N-NO 32 0 min 0,000 mm 0,7 UV-I 117 W/m 2,8 C 5,1 C 6,4 km/h (2 Bft) 100,00 %
12.03.2016 13:12 5,1 C 85 % 1025,4 hPa 0,0 l/m 6,0 km/h (2 Bft) N-NO 22 0 min 0,000 mm 0,7 UV-I 111 W/m 2,8 C 5,1 C 11,3 km/h (2 Bft) 96,15 %
12.03.2016 13:13 5,1 C 84 % 1025,4 hPa 0,0 l/m 3,6 km/h (1 Bft) NO 49 0 min 0,000 mm 0,6 UV-I 106 W/m 2,6 C 5,1 C 6,4 km/h (2 Bft) 100,00 %
12.03.2016 13:14 5,2 C 84 % 1025,5 hPa 0,0 l/m 3,5 km/h (1 Bft) NO 41 0 min 0,000 mm 0,6 UV-I 104 W/m 2,7 C 5,2 C 6,4 km/h (2 Bft) 95,65 %
12.03.2016 13:15 5,2 C 84 % 1025,5 hPa 0,0 l/m 1,5 km/h (1 Bft) N-NO 16 0 min 0,000 mm 0,6 UV-I 104 W/m 2,7 C 5,2 C 4,8 km/h (1 Bft) 100,00 %
12.03.2016 13:16 5,2 C 85 % 1025,5 hPa 0,0 l/m 2,5 km/h (1 Bft) N-NO 17 0 min 0,000 mm 0,6 UV-I 105 W/m 2,9 C 5,2 C 3,2 km/h (1 Bft) 100,00 %
12.03.2016 13:17 5,2 C 84 % 1025,5 hPa 0,0 l/m 1,7 km/h (1 Bft) NO 49 0 min 0,000 mm 0,6 UV-I 105 W/m 2,7 C 5,2 C 3,2 km/h (1 Bft) 96,30 %
12.03.2016 13:18 5,2 C 84 % 1025,5 hPa 0,0 l/m 1,5 km/h (1 Bft) N 5 0 min 0,000 mm 0,6 UV-I 105 W/m 2,7 C 5,2 C 3,2 km/h (1 Bft) 96,88 %
12.03.2016 13:19 5,1 C 84 % 1025,5 hPa 0,0 l/m 4,3 km/h (1 Bft) N 9 0 min 0,000 mm 0,6 UV-I 105 W/m 2,6 C 5,1 C 6,4 km/h (2 Bft) 100,00 %
12.03.2016 13:20 5,1 C 84 % 1025,5 hPa 0,0 l/m 5,7 km/h (1 Bft) NO 53 0 min 0,000 mm 0,6 UV-I 105 W/m 2,6 C 5,1 C 11,3 km/h (2 Bft) 100,00 %
12.03.2016 13:21 5,1 C 83 % 1025,5 hPa 0,0 l/m 4,4 km/h (1 Bft) N 11 0 min 0,000 mm 0,6 UV-I 104 W/m 2,5 C 5,1 C 8,0 km/h (2 Bft) 100,00 %
12.03.2016 13:22 5,1 C 84 % 1025,5 hPa 0,0 l/m 5,6 km/h (1 Bft) N 5 0 min 0,000 mm 0,6 UV-I 99 W/m 2,6 C 5,1 C 8,0 km/h (2 Bft) 96,15 %
12.03.2016 13:23 5,1 C 84 % 1025,5 hPa 0,0 l/m 5,3 km/h (1 Bft) N-NO 23 0 min 0,000 mm 0,5 UV-I 96 W/m 2,6 C 5,1 C 9,7 km/h (2 Bft) 96,30 %
12.03.2016 13:24 5,1 C 84 % 1025,5 hPa 0,0 l/m 5,8 km/h (2 Bft) N-NO 21 0 min 0,000 mm 0,5 UV-I 95 W/m 2,6 C 5,1 C 9,7 km/h (2 Bft) 96,15 %
12.03.2016 13:25 5,1 C 85 % 1025,5 hPa 0,0 l/m 7,7 km/h (2 Bft) N-NO 20 0 min 0,000 mm 0,5 UV-I 97 W/m 2,8 C 4,0 C 12,9 km/h (3 Bft) 98,45 %
12.03.2016 13:26 5,1 C 85 % 1025,4 hPa 0,0 l/m 6,3 km/h (2 Bft) N-NO 17 0 min 0,000 mm 0,6 UV-I 103 W/m 2,8 C 5,1 C 11,3 km/h (2 Bft) 94,74 %
12.03.2016 13:27 5,1 C 84 % 1025,4 hPa 0,0 l/m 6,1 km/h (2 Bft) NO 37 0 min 0,000 mm 0,6 UV-I 105 W/m 2,6 C 5,1 C 8,0 km/h (2 Bft) 100,00 %
12.03.2016 13:28 5,1 C 83 % 1025,4 hPa 0,0 l/m 5,8 km/h (2 Bft) N-NO 26 0 min 0,000 mm 0,6 UV-I 105 W/m 2,5 C 5,1 C 6,4 km/h (2 Bft) 100,00 %
12.03.2016 13:29 5,1 C 82 % 1025,4 hPa 0,0 l/m 5,2 km/h (1 Bft) N-NO 30 0 min 0,000 mm 0,6 UV-I 103 W/m 2,3 C 5,1 C 6,4 km/h (2 Bft) 100,00 %
12.03.2016 13:30 5,1 C 82 % 1025,4 hPa 0,0 l/m 4,3 km/h (1 Bft) N 5 0 min 0,000 mm 0,6 UV-I 102 W/m 2,3 C 5,1 C 6,4 km/h (2 Bft) 100,00 %
12.03.2016 13:31 5,1 C 83 % 1025,4 hPa 0,0 l/m 5,0 km/h (1 Bft) NO 49 0 min 0,000 mm 0,6 UV-I 103 W/m 2,5 C 5,1 C 8,0 km/h (2 Bft) 100,00 %
12.03.2016 13:32 5,1 C 84 % 1025,4 hPa 0,0 l/m 2,7 km/h (1 Bft) N-NO 17 0 min 0,000 mm 0,6 UV-I 109 W/m 2,6 C 5,1 C 4,8 km/h (1 Bft) 96,55 %
12.03.2016 13:33 5,1 C 84 % 1025,3 hPa 0,0 l/m 2,3 km/h (1 Bft) N 9 0 min 0,000 mm 0,7 UV-I 117 W/m 2,6 C 5,1 C 6,4 km/h (2 Bft) 100,00 %
12.03.2016 13:35 5,1 C 83 % 1025,3 hPa 0,0 l/m 3,2 km/h (1 Bft) N-NO 22 0 min 0,000 mm 0,7 UV-I 118 W/m 2,5 C 5,1 C 11,3 km/h (2 Bft) 97,37 %
12.03.2016 13:39 5,2 C 84 % 1025,2 hPa 0,0 l/m 13,2 km/h (3 Bft) N-NO 22 0 min 0,000 mm 0,7 UV-I 129 W/m 2,7 C 0,3 C 14,5 km/h (3 Bft) 100,00 %
12.03.2016 13:40 5,2 C 83 % 1025,2 hPa 0,0 l/m 8,6 km/h (2 Bft) NO 34 0 min 0,000 mm 0,7 UV-I 134 W/m 2,6 C 3,3 C 11,3 km/h (2 Bft) 96,15 %
12.03.2016 13:41 5,2 C 83 % 1025,2 hPa 0,0 l/m 9,2 km/h (2 Bft) N-NO 31 0 min 0,000 mm 0,8 UV-I 139 W/m 2,6 C 2,9 C 12,9 km/h (3 Bft) 100,00 %
12.03.2016 13:42 5,2 C 83 % 1025,2 hPa 0,0 l/m 8,0 km/h (2 Bft) NO 43 0 min 0,000 mm 0,8 UV-I 149 W/m 2,6 C 3,8 C 11,3 km/h (2 Bft) 100,00 %
12.03.2016 13:43 5,2 C 83 % 1025,2 hPa 0,0 l/m 6,9 km/h (2 Bft) N-NO 22 0 min 0,000 mm 0,8 UV-I 158 W/m 2,6 C 4,8 C 11,3 km/h (2 Bft) 100,00 %
12.03.2016 13:44 5,2 C 83 % 1025,2 hPa 0,0 l/m 5,5 km/h (1 Bft) N 5 0 min 0,000 mm 0,9 UV-I 162 W/m 2,6 C 5,2 C 12,9 km/h (3 Bft) 100,00 %
12.03.2016 13:45 5,2 C 83 % 1025,2 hPa 0,0 l/m 7,6 km/h (2 Bft) N-NO 17 0 min 0,000 mm 0,9 UV-I 165 W/m 2,6 C 4,1 C 9,7 km/h (2 Bft) 100,00 %
12.03.2016 13:46 5,2 C 83 % 1025,2 hPa 0,0 l/m 6,1 km/h (2 Bft) NO 36 0 min 0,000 mm 0,9 UV-I 166 W/m 2,6 C 5,2 C 8,0 km/h (2 Bft) 100,00 %
12.03.2016 13:47 5,2 C 82 % 1025,1 hPa 0,0 l/m 3,6 km/h (1 Bft) NO 41 0 min 0,000 mm 0,9 UV-I 169 W/m 2,4 C 5,2 C 6,4 km/h (2 Bft) 100,00 %
12.03.2016 13:48 5,2 C 82 % 1025,2 hPa 0,0 l/m 6,4 km/h (2 Bft) N-NO 28 0 min 0,000 mm 0,9 UV-I 176 W/m 2,4 C 5,2 C 9,7 km/h (2 Bft) 100,00 %
12.03.2016 13:49 5,2 C 82 % 1025,2 hPa 0,0 l/m 6,4 km/h (2 Bft) N-NO 28 0 min 0,000 mm 1,0 UV-I 184 W/m 2,4 C 5,2 C 12,9 km/h (3 Bft) 100,00 %
12.03.2016 13:50 5,3 C 83 % 1025,2 hPa 0,0 l/m 6,5 km/h (2 Bft) N-NO 33 0 min 0,000 mm 1,0 UV-I 190 W/m 2,7 C 5,2 C 9,7 km/h (2 Bft) 100,00 %
12.03.2016 13:51 5,3 C 82 % 1025,2 hPa 0,0 l/m 4,6 km/h (1 Bft) O-NO 61 0 min 0,000 mm 1,0 UV-I 193 W/m 2,5 C 5,3 C 8,0 km/h (2 Bft) 100,00 %
12.03.2016 13:52 5,3 C 83 % 1025,1 hPa 0,0 l/m 2,7 km/h (1 Bft) N-NO 22 0 min 0,000 mm 1,0 UV-I 195 W/m 2,7 C 5,3 C 4,8 km/h (1 Bft) 100,00 %
12.03.2016 13:53 5,4 C 84 % 1025,1 hPa 0,0 l/m 6,0 km/h (2 Bft) N-NW 342 0 min 0,000 mm 1,0 UV-I 195 W/m 2,9 C 5,4 C 8,0 km/h (2 Bft) 100,00 %
12.03.2016 13:54 5,4 C 83 % 1025,2 hPa 0,0 l/m 3,5 km/h (1 Bft) O-NO 71 0 min 0,000 mm 1,0 UV-I 196 W/m 2,7 C 5,4 C 4,8 km/h (1 Bft) 100,00 %
12.03.2016 13:55 5,4 C 81 % 1025,1 hPa 0,0 l/m 1,5 km/h (1 Bft) N-NW 334 0 min 0,000 mm 1,0 UV-I 197 W/m 2,4 C 5,4 C 3,2 km/h (1 Bft) 100,00 %
12.03.2016 13:56 5,4 C 82 % 1025,1 hPa 0,0 l/m 2,7 km/h (1 Bft) N 355 0 min 0,000 mm 1,0 UV-I 195 W/m 2,6 C 5,4 C 4,8 km/h (1 Bft) 100,00 %
12.03.2016 13:57 5,3 C 81 % 1025,1 hPa 0,0 l/m 1,9 km/h (1 Bft) N-NW 327 0 min 0,000 mm 0,9 UV-I 188 W/m 2,3 C 5,3 C 3,2 km/h (1 Bft) 98,51 %
12.03.2016 13:58 5,3 C 81 % 1025,1 hPa 0,0 l/m 2,5 km/h (1 Bft) N-NO 13 0 min 0,000 mm 0,9 UV-I 180 W/m 2,3 C 5,3 C 4,8 km/h (1 Bft) 97,56 %
12.03.2016 13:59 5,3 C 82 % 1025,1 hPa 0,0 l/m 2,8 km/h (1 Bft) N 5 0 min 0,000 mm 0,9 UV-I 167 W/m 2,5 C 5,3 C 6,4 km/h (2 Bft) 100,00 %
12.03.2016 14:00 5,3 C 83 % 1025,1 hPa 0,0 l/m 1,4 km/h (1 Bft) N 5 0 min 0,051 mm 0,8 UV-I 155 W/m 2,7 C 5,3 C 3,2 km/h (1 Bft) 96,30 %
12.03.2016 14:01 5,4 C 82 % 1025,1 hPa 0,0 l/m 2,7 km/h (1 Bft) N-NO 13 0 min 0,000 mm 0,7 UV-I 142 W/m 2,6 C 5,4 C 4,8 km/h (1 Bft) 100,00 %
12.03.2016 14:02 5,3 C 81 % 1025,2 hPa 0,0 l/m 4,0 km/h (1 Bft) N-NO 28 0 min 0,000 mm 0,6 UV-I 131 W/m 2,3 C 5,3 C 6,4 km/h (2 Bft) 100,00 %
12.03.2016 14:03 5,3 C 81 % 1025,2 hPa 0,0 l/m 2,0 km/h (1 Bft) N 350 0 min 0,000 mm 0,6 UV-I 121 W/m 2,3 C 5,3 C 3,2 km/h (1 Bft) 100,00 %
12.03.2016 14:04 5,3 C 81 % 1025,1 hPa 0,0 l/m 5,3 km/h (1 Bft) N-NO 19 0 min 0,000 mm 0,6 UV-I 111 W/m 2,3 C 5,3 C 8,0 km/h (2 Bft) 100,00 %
12.03.2016 14:05 5,3 C 82 % 1025,1 hPa 0,0 l/m 2,1 km/h (1 Bft) NO 36 0 min 0,000 mm 0,5 UV-I 102 W/m 2,5 C 5,3 C 4,8 km/h (1 Bft) 100,00 %
12.03.2016 14:06 5,3 C 82 % 1025,1 hPa 0,0 l/m 2,3 km/h (1 Bft) N-NO 13 0 min 0,000 mm 0,5 UV-I 97 W/m 2,5 C 5,3 C 6,4 km/h (2 Bft) 100,00 %
12.03.2016 14:07 5,3 C 83 % 1025,1 hPa 0,0 l/m 4,7 km/h (1 Bft) N 11 0 min 0,000 mm 0,5 UV-I 91 W/m 2,7 C 5,3 C 8,0 km/h (2 Bft) 100,00 %
12.03.2016 14:08 5,3 C 83 % 1025,1 hPa 0,0 l/m 5,4 km/h (1 Bft) N 10 0 min 0,000 mm 0,5 UV-I 90 W/m 2,7 C 5,3 C 8,0 km/h (2 Bft) 100,00 %
12.03.2016 14:09 5,3 C 83 % 1025,1 hPa 0,0 l/m 3,5 km/h (1 Bft) N 5 0 min 0,000 mm 0,5 UV-I 90 W/m 2,7 C 5,3 C 4,8 km/h (1 Bft) 100,00 %
12.03.2016 14:10 5,3 C 83 % 1025,1 hPa 0,0 l/m 6,4 km/h (2 Bft) N-NO 28 0 min 0,000 mm 0,5 UV-I 90 W/m 2,7 C 5,3 C 8,0 km/h (2 Bft) 96,15 %
12.03.2016 14:11 5,3 C 83 % 1025,1 hPa 0,0 l/m 7,3 km/h (2 Bft) N-NO 32 0 min 0,000 mm 0,5 UV-I 92 W/m 2,7 C 4,5 C 12,9 km/h (3 Bft) 100,00 %
12.03.2016 14:12 5,3 C 82 % 1025,0 hPa 0,0 l/m 8,8 km/h (2 Bft) NO 43 0 min 0,000 mm 0,5 UV-I 94 W/m 2,5 C 3,3 C 9,7 km/h (2 Bft) 100,00 %
12.03.2016 14:13 5,3 C 82 % 1025,1 hPa 0,0 l/m 8,5 km/h (2 Bft) NO 47 0 min 0,000 mm 0,5 UV-I 95 W/m 2,5 C 3,5 C 11,3 km/h (2 Bft) 100,00 %
12.03.2016 14:14 5,3 C 81 % 1025,0 hPa 0,0 l/m 8,9 km/h (2 Bft) NO 46 0 min 0,000 mm 0,5 UV-I 97 W/m 2,3 C 3,2 C 9,7 km/h (2 Bft) 100,00 %
12.03.2016 14:15 5,2 C 81 % 1025,1 hPa 0,0 l/m 7,9 km/h (2 Bft) N-NO 27 0 min 0,000 mm 0,6 UV-I 102 W/m 2,2 C 3,9 C 9,7 km/h (2 Bft) 100,00 %
12.03.2016 14:16 5,2 C 81 % 1025,0 hPa 0,0 l/m 7,5 km/h (2 Bft) NO 48 0 min 0,000 mm 0,6 UV-I 109 W/m 2,2 C 4,2 C 9,7 km/h (2 Bft) 96,15 %
12.03.2016 14:17 5,2 C 81 % 1025,0 hPa 0,0 l/m 7,7 km/h (2 Bft) NO 40 0 min 0,000 mm 0,6 UV-I 118 W/m 2,2 C 4,1 C 9,7 km/h (2 Bft) 100,00 %
12.03.2016 14:18 5,2 C 82 % 1025,0 hPa 0,0 l/m 5,2 km/h (1 Bft) N-NO 30 0 min 0,000 mm 0,6 UV-I 128 W/m 2,4 C 5,2 C 8,0 km/h (2 Bft) 100,00 %
12.03.2016 14:19 5,3 C 83 % 1025,0 hPa 0,0 l/m 6,7 km/h (2 Bft) NO 40 0 min 0,000 mm 0,7 UV-I 138 W/m 2,7 C 5,1 C 9,7 km/h (2 Bft) 100,00 %
12.03.2016 14:20 5,3 C 82 % 1025,0 hPa 0,0 l/m 3,2 km/h (1 Bft) NO 47 0 min 0,000 mm 0,7 UV-I 146 W/m 2,5 C 5,3 C 6,4 km/h (2 Bft) 100,00 %
12.03.2016 14:21 5,3 C 83 % 1025,0 hPa 0,0 l/m 4,9 km/h (1 Bft) N-NO 32 0 min 0,000 mm 0,7 UV-I 149 W/m 2,7 C 5,3 C 6,4 km/h (2 Bft) 100,00 %
12.03.2016 14:22 5,4 C 83 % 1025,0 hPa 0,0 l/m 4,4 km/h (1 Bft) N-NO 24 0 min 0,000 mm 0,7 UV-I 149 W/m 2,7 C 5,4 C 8,0 km/h (2 Bft) 100,00 %
12.03.2016 14:23 5,4 C 82 % 1025,0 hPa 0,0 l/m 5,6 km/h (1 Bft) N-NO 21 0 min 0,000 mm 0,7 UV-I 149 W/m 2,6 C 5,4 C 8,0 km/h (2 Bft) 100,00 %
12.03.2016 14:24 5,4 C 82 % 1025,0 hPa 0,0 l/m 5,1 km/h (1 Bft) N-NO 26 0 min 0,000 mm 0,8 UV-I 152 W/m 2,6 C 5,4 C 6,4 km/h (2 Bft) 100,00 %
12.03.2016 14:25 5,4 C 82 % 1025,0 hPa 0,0 l/m 4,7 km/h (1 Bft) NO 34 0 min 0,000 mm 0,8 UV-I 155 W/m 2,6 C 5,4 C 8,0 km/h (2 Bft) 100,00 %
12.03.2016 14:26 5,4 C 82 % 1025,0 hPa 0,0 l/m 3,4 km/h (1 Bft) N-NO 17 0 min 0,000 mm 0,8 UV-I 152 W/m 2,6 C 5,4 C 4,8 km/h (1 Bft) 100,00 %
12.03.2016 14:27 5,4 C 82 % 1024,9 hPa 0,0 l/m 2,2 km/h (1 Bft) N-NO 20 0 min 0,000 mm 0,8 UV-I 148 W/m 2,6 C 5,4 C 3,2 km/h (1 Bft) 100,00 %
12.03.2016 14:28 5,4 C 82 % 1024,9 hPa 0,0 l/m 2,3 km/h (1 Bft) N 355 0 min 0,000 mm 0,8 UV-I 147 W/m 2,6 C 5,4 C 4,8 km/h (1 Bft) 100,00 %
12.03.2016 14:29 5,4 C 82 % 1024,9 hPa 0,0 l/m 3,4 km/h (1 Bft) N 5 0 min 0,000 mm 0,7 UV-I 150 W/m 2,6 C 5,4 C 6,4 km/h (2 Bft) 92,86 %
12.03.2016 14:30 5,4 C 81 % 1024,9 hPa 0,0 l/m 5,1 km/h (1 Bft) N-NO 28 0 min 0,000 mm 0,7 UV-I 146 W/m 2,4 C 5,4 C 8,0 km/h (2 Bft) 100,00 %
12.03.2016 14:31 5,4 C 82 % 1024,9 hPa 0,0 l/m 2,3 km/h (1 Bft) N 355 0 min 0,000 mm 0,7 UV-I 146 W/m 2,6 C 5,4 C 4,8 km/h (1 Bft) 100,00 %
12.03.2016 14:32 5,4 C 82 % 1025,0 hPa 0,0 l/m 4,3 km/h (1 Bft) N 11 0 min 0,000 mm 0,8 UV-I 155 W/m 2,6 C 5,4 C 8,0 km/h (2 Bft) 100,00 %
12.03.2016 14:33 5,4 C 82 % 1024,9 hPa 0,0 l/m 4,4 km/h (1 Bft) N-NO 30 0 min 0,000 mm 0,8 UV-I 161 W/m 2,6 C 5,4 C 9,7 km/h (2 Bft) 100,00 %
12.03.2016 14:34 5,4 C 82 % 1024,9 hPa 0,0 l/m 3,5 km/h (1 Bft) N-NO 30 0 min 0,000 mm 0,8 UV-I 161 W/m 2,6 C 5,4 C 6,4 km/h (2 Bft) 100,00 %
12.03.2016 14:35 5,5 C 82 % 1025,0 hPa 0,0 l/m 2,1 km/h (1 Bft) N 355 0 min 0,000 mm 0,7 UV-I 159 W/m 2,7 C 5,5 C 4,8 km/h (1 Bft) 100,00 %
12.03.2016 14:36 5,6 C 82 % 1025,0 hPa 0,0 l/m 1,9 km/h (1 Bft) N-NW 344 0 min 0,000 mm 0,7 UV-I 154 W/m 2,8 C 5,6 C 3,2 km/h (1 Bft) 100,00 %
12.03.2016 14:37 5,6 C 82 % 1025,0 hPa 0,0 l/m 1,5 km/h (1 Bft) N 10 0 min 0,000 mm 0,6 UV-I 142 W/m 2,8 C 5,6 C 3,2 km/h (1 Bft) 100,00 %
12.03.2016 14:38 5,6 C 81 % 1025,0 hPa 0,0 l/m 2,2 km/h (1 Bft) N 11 0 min 0,000 mm 0,6 UV-I 135 W/m 2,6 C 5,6 C 4,8 km/h (1 Bft) 95,83 %
12.03.2016 14:39 5,6 C 81 % 1025,0 hPa 0,0 l/m 3,9 km/h (1 Bft) N-NW 339 0 min 0,000 mm 0,6 UV-I 135 W/m 2,6 C 5,6 C 6,4 km/h (2 Bft) 96,15 %
12.03.2016 14:40 5,6 C 81 % 1025,0 hPa 0,0 l/m 3,0 km/h (1 Bft) N-NO 23 0 min 0,000 mm 0,6 UV-I 138 W/m 2,6 C 5,6 C 4,8 km/h (1 Bft) 95,83 %
12.03.2016 14:41 5,5 C 81 % 1025,0 hPa 0,0 l/m 2,3 km/h (1 Bft) N-NW 335 0 min 0,000 mm 0,6 UV-I 139 W/m 2,5 C 5,5 C 4,8 km/h (1 Bft) 100,00 %
12.03.2016 14:42 5,5 C 80 % 1025,0 hPa 0,0 l/m 1,9 km/h (1 Bft) N-NO 15 0 min 0,000 mm 0,5 UV-I 130 W/m 2,3 C 5,5 C 4,8 km/h (1 Bft) 100,00 %
12.03.2016 14:43 5,5 C 82 % 1025,0 hPa 0,0 l/m 4,7 km/h (1 Bft) N-NO 20 0 min 0,000 mm 0,5 UV-I 121 W/m 2,7 C 5,5 C 6,4 km/h (2 Bft) 100,00 %
12.03.2016 14:44 5,5 C 80 % 1025,0 hPa 0,0 l/m 5,5 km/h (1 Bft) NO 49 0 min 0,000 mm 0,5 UV-I 114 W/m 2,3 C 5,5 C 8,0 km/h (2 Bft) 100,00 %
12.03.2016 14:45 5,5 C 82 % 1025,0 hPa 0,0 l/m 4,3 km/h (1 Bft) N-NO 32 0 min 0,000 mm 0,0 UV-I 106 W/m 2,7 C 5,5 C 4,8 km/h (1 Bft) 93,33 %
12.03.2016 14:46 5,5 C 82 % 1025,0 hPa 0,0 l/m 2,8 km/h (1 Bft) N-NO 32 0 min 0,000 mm 0,0 UV-I 96 W/m 2,7 C 5,5 C 4,8 km/h (1 Bft) 100,00 %
12.03.2016 14:47 5,5 C 82 % 1025,0 hPa 0,0 l/m 1,3 km/h (1 Bft) N 350 0 min 0,000 mm 0,0 UV-I 92 W/m 2,7 C 5,5 C 3,2 km/h (1 Bft) 96,30 %
12.03.2016 14:48 5,5 C 82 % 1025,0 hPa 0,0 l/m 1,8 km/h (1 Bft) N-NW 335 0 min 0,000 mm 0,0 UV-I 90 W/m 2,7 C 5,5 C 3,2 km/h (1 Bft) 96,55 %
12.03.2016 14:49 5,5 C 82 % 1025,0 hPa 0,0 l/m 2,1 km/h (1 Bft) N-NO 21 0 min 0,000 mm 0,0 UV-I 90 W/m 2,7 C 5,5 C 4,8 km/h (1 Bft) 100,00 %
12.03.2016 14:50 5,5 C 82 % 1025,0 hPa 0,0 l/m 2,3 km/h (1 Bft) N 11 0 min 0,000 mm 0,0 UV-I 90 W/m 2,7 C 5,5 C 4,8 km/h (1 Bft) 95,65 %
12.03.2016 14:51 5,4 C 82 % 1025,1 hPa 0,0 l/m 1,5 km/h (1 Bft) N 5 0 min 0,000 mm 0,0 UV-I 89 W/m 2,6 C 5,4 C 3,2 km/h (1 Bft) 100,00 %
12.03.2016 14:52 5,4 C 82 % 1025,0 hPa 0,0 l/m 4,2 km/h (1 Bft) N-NO 20 0 min 0,000 mm 0,0 UV-I 87 W/m 2,6 C 5,4 C 6,4 km/h (2 Bft) 100,00 %
12.03.2016 14:53 5,4 C 81 % 1025,0 hPa 0,0 l/m 1,5 km/h (1 Bft) N-NO 19 0 min 0,000 mm 0,0 UV-I 86 W/m 2,4 C 5,4 C 4,8 km/h (1 Bft) 96,30 %
12.03.2016 14:54 5,4 C 82 % 1025,0 hPa 0,0 l/m 4,5 km/h (1 Bft) NO 52 0 min 0,000 mm 0,0 UV-I 88 W/m 2,6 C 5,4 C 6,4 km/h (2 Bft) 91,30 %
12.03.2016 14:55 5,4 C 80 % 1025,0 hPa 0,0 l/m 2,3 km/h (1 Bft) N 10 0 min 0,000 mm 0,0 UV-I 91 W/m 2,2 C 5,4 C 4,8 km/h (1 Bft) 96,30 %
12.03.2016 14:56 5,4 C 80 % 1025,0 hPa 0,0 l/m 2,3 km/h (1 Bft) N-NO 28 0 min 0,000 mm 0,0 UV-I 92 W/m 2,2 C 5,4 C 4,8 km/h (1 Bft) 96,15 %
12.03.2016 14:57 5,4 C 80 % 1025,0 hPa 0,0 l/m 1,6 km/h (1 Bft) N-NO 27 0 min 0,000 mm 0,0 UV-I 93 W/m 2,2 C 5,4 C 3,2 km/h (1 Bft) 95,83 %
12.03.2016 14:58 5,4 C 81 % 1025,0 hPa 0,0 l/m 3,8 km/h (1 Bft) NO 56 0 min 0,000 mm 0,0 UV-I 93 W/m 2,4 C 5,4 C 6,4 km/h (2 Bft) 100,00 %
12.03.2016 14:59 5,4 C 81 % 1025,0 hPa 0,0 l/m 4,4 km/h (1 Bft) N-NO 32 0 min 0,000 mm 0,0 UV-I 93 W/m 2,4 C 5,4 C 6,4 km/h (2 Bft) 95,83 %
12.03.2016 15:00 5,4 C 82 % 1025,0 hPa 0,0 l/m 4,6 km/h (1 Bft) N-NO 28 0 min 0,050 mm 0,0 UV-I 91 W/m 2,6 C 5,4 C 6,4 km/h (2 Bft) 100,00 %
12.03.2016 15:02 5,5 C 82 % 1025,0 hPa 0,0 l/m 1,7 km/h (1 Bft) NO 37 0 min 0,000 mm 0,0 UV-I 89 W/m 2,7 C 5,5 C 3,2 km/h (1 Bft) 97,87 %
12.03.2016 15:03 5,5 C 82 % 1025,0 hPa 0,0 l/m 4,0 km/h (1 Bft) NO 34 0 min 0,000 mm 0,0 UV-I 85 W/m 2,7 C 5,5 C 4,8 km/h (1 Bft) 96,15 %
12.03.2016 15:04 5,5 C 81 % 1025,0 hPa 0,0 l/m 4,9 km/h (1 Bft) NO 39 0 min 0,000 mm 0,0 UV-I 82 W/m 2,5 C 5,5 C 6,4 km/h (2 Bft) 95,83 %
12.03.2016 15:05 5,5 C 80 % 1025,0 hPa 0,0 l/m 3,6 km/h (1 Bft) N-NO 24 0 min 0,000 mm 0,0 UV-I 81 W/m 2,3 C 5,5 C 6,4 km/h (2 Bft) 95,65 %
12.03.2016 15:06 5,5 C 81 % 1025,0 hPa 0,0 l/m 3,9 km/h (1 Bft) NO 53 0 min 0,000 mm 0,0 UV-I 81 W/m 2,5 C 5,5 C 4,8 km/h (1 Bft) 100,00 %
12.03.2016 15:07 5,5 C 81 % 1025,0 hPa 0,0 l/m 2,2 km/h (1 Bft) NO 53 0 min 0,000 mm 0,0 UV-I 81 W/m 2,5 C 5,5 C 4,8 km/h (1 Bft) 91,30 %
12.03.2016 15:08 5,5 C 81 % 1025,0 hPa 0,0 l/m 3,1 km/h (1 Bft) NO 49 0 min 0,000 mm 0,0 UV-I 81 W/m 2,5 C 5,5 C 4,8 km/h (1 Bft) 95,83 %
12.03.2016 15:09 5,5 C 82 % 1025,0 hPa 0,0 l/m 0,7 km/h (0 Bft) NO 38 0 min 0,000 mm 0,0 UV-I 83 W/m 2,7 C 5,5 C 3,2 km/h (1 Bft) 100,00 %
12.03.2016 15:10 5,5 C 81 % 1025,0 hPa 0,0 l/m 0,3 km/h (0 Bft) NO 38 0 min 0,000 mm 0,0 UV-I 85 W/m 2,5 C 5,5 C 1,6 km/h (1 Bft) 96,30 %
12.03.2016 15:11 5,5 C 81 % 1025,0 hPa 0,0 l/m 3,0 km/h (1 Bft) NO 38 0 min 0,000 mm 0,0 UV-I 89 W/m 2,5 C 5,5 C 4,8 km/h (1 Bft) 95,65 %
12.03.2016 15:12 5,5 C 81 % 1025,0 hPa 0,0 l/m 3,1 km/h (1 Bft) NO 38 0 min 0,000 mm 0,0 UV-I 91 W/m 2,5 C 5,5 C 4,8 km/h (1 Bft) 95,83 %
12.03.2016 15:13 5,5 C 82 % 1025,0 hPa 0,0 l/m 3,4 km/h (1 Bft) N-NO 28 0 min 0,000 mm 0,0 UV-I 91 W/m 2,7 C 5,5 C 6,4 km/h (2 Bft) 96,15 %
12.03.2016 15:14 5,5 C 81 % 1025,0 hPa 0,0 l/m 4,0 km/h (1 Bft) NO 46 0 min 0,000 mm 0,0 UV-I 91 W/m 2,5 C 5,5 C 8,0 km/h (2 Bft) 96,30 %
12.03.2016 15:15 5,5 C 81 % 1025,0 hPa 0,0 l/m 5,0 km/h (1 Bft) NO 48 0 min 0,000 mm 0,0 UV-I 89 W/m 2,5 C 5,5 C 6,4 km/h (2 Bft) 100,00 %
12.03.2016 15:16 5,5 C 79 % 1025,0 hPa 0,0 l/m 3,0 km/h (1 Bft) NO 48 0 min 0,000 mm 0,0 UV-I 87 W/m 2,2 C 5,5 C 3,2 km/h (1 Bft) 94,12 %
12.03.2016 15:17 5,5 C 79 % 1025,1 hPa 0,0 l/m 3,1 km/h (1 Bft) NO 39 0 min 0,000 mm 0,0 UV-I 84 W/m 2,2 C 5,5 C 6,4 km/h (2 Bft) 97,56 %
12.03.2016 15:18 5,5 C 80 % 1025,0 hPa 0,0 l/m 4,8 km/h (1 Bft) NO 48 0 min 0,000 mm 0,0 UV-I 84 W/m 2,3 C 5,5 C 6,4 km/h (2 Bft) 100,00 %
12.03.2016 15:19 5,5 C 81 % 1025,0 hPa 0,0 l/m 4,4 km/h (1 Bft) N-NO 31 0 min 0,000 mm 0,0 UV-I 84 W/m 2,5 C 5,5 C 12,9 km/h (3 Bft) 91,30 %
12.03.2016 15:20 5,5 C 81 % 1025,0 hPa 0,0 l/m 7,0 km/h (2 Bft) NO 38 0 min 0,000 mm 0,0 UV-I 86 W/m 2,5 C 5,0 C 9,7 km/h (2 Bft) 100,00 %
12.03.2016 15:21 5,6 C 81 % 1025,0 hPa 0,0 l/m 5,3 km/h (1 Bft) NO 38 0 min 0,000 mm 0,0 UV-I 86 W/m 2,6 C 5,6 C 8,0 km/h (2 Bft) 100,00 %
12.03.2016 15:22 5,5 C 80 % 1025,0 hPa 0,0 l/m 3,6 km/h (1 Bft) N-NO 27 0 min 0,000 mm 0,0 UV-I 86 W/m 2,3 C 5,5 C 4,8 km/h (1 Bft) 91,67 %
12.03.2016 15:23 5,5 C 81 % 1025,0 hPa 0,0 l/m 4,1 km/h (1 Bft) N-NO 27 0 min 0,000 mm 0,0 UV-I 84 W/m 2,5 C 5,5 C 4,8 km/h (1 Bft) 93,33 %
12.03.2016 15:24 5,5 C 81 % 1025,0 hPa 0,0 l/m 4,4 km/h (1 Bft) NO 43 0 min 0,000 mm 0,0 UV-I 84 W/m 2,5 C 5,5 C 4,8 km/h (1 Bft) 100,00 %
12.03.2016 15:25 5,5 C 80 % 1025,0 hPa 0,0 l/m 2,0 km/h (1 Bft) NO 44 0 min 0,000 mm 0,0 UV-I 83 W/m 2,3 C 5,5 C 3,2 km/h (1 Bft) 100,00 %
12.03.2016 15:26 5,5 C 80 % 1025,0 hPa 0,0 l/m 3,0 km/h (1 Bft) NO 49 0 min 0,000 mm 0,0 UV-I 82 W/m 2,3 C 5,5 C 4,8 km/h (1 Bft) 100,00 %
12.03.2016 15:27 5,5 C 79 % 1025,1 hPa 0,0 l/m 3,5 km/h (1 Bft) NO 55 0 min 0,000 mm 0,0 UV-I 80 W/m 2,2 C 5,5 C 6,4 km/h (2 Bft) 100,00 %
12.03.2016 15:28 5,5 C 80 % 1025,0 hPa 0,0 l/m 5,0 km/h (1 Bft) N-NO 15 0 min 0,000 mm 0,0 UV-I 78 W/m 2,3 C 5,5 C 9,7 km/h (2 Bft) 95,65 %
12.03.2016 15:29 5,5 C 80 % 1025,0 hPa 0,0 l/m 1,8 km/h (1 Bft) N-NO 22 0 min 0,000 mm 0,0 UV-I 76 W/m 2,3 C 5,5 C 3,2 km/h (1 Bft) 100,00 %
12.03.2016 15:30 5,5 C 80 % 1025,1 hPa 0,0 l/m 0,9 km/h (0 Bft) N-NO 21 0 min 0,000 mm 0,0 UV-I 76 W/m 2,3 C 5,5 C 1,6 km/h (1 Bft) 100,00 %
12.03.2016 15:31 5,5 C 81 % 1025,1 hPa 0,0 l/m 3,3 km/h (1 Bft) N-NO 20 0 min 0,000 mm 0,0 UV-I 73 W/m 2,5 C 5,5 C 4,8 km/h (1 Bft) 100,00 %
12.03.2016 15:32 5,5 C 80 % 1025,0 hPa 0,0 l/m 3,0 km/h (1 Bft) N-NO 19 0 min 0,000 mm 0,0 UV-I 71 W/m 2,3 C 5,5 C 4,8 km/h (1 Bft) 95,65 %
12.03.2016 15:33 5,5 C 81 % 1025,0 hPa 0,0 l/m 1,7 km/h (1 Bft) N-NO 16 0 min 0,000 mm 0,0 UV-I 69 W/m 2,5 C 5,5 C 3,2 km/h (1 Bft) 100,00 %
12.03.2016 15:34 5,5 C 81 % 1025,0 hPa 0,0 l/m 2,1 km/h (1 Bft) N-NO 16 0 min 0,000 mm 0,0 UV-I 65 W/m 2,5 C 5,5 C 3,2 km/h (1 Bft) 100,00 %
12.03.2016 15:35 5,5 C 81 % 1025,0 hPa 0,0 l/m 2,5 km/h (1 Bft) N-NO 16 0 min 0,000 mm 0,0 UV-I 61 W/m 2,5 C 5,5 C 4,8 km/h (1 Bft) 100,00 %
12.03.2016 15:36 5,5 C 80 % 1025,0 hPa 0,0 l/m 1,0 km/h (0 Bft) N 350 0 min 0,000 mm 0,0 UV-I 56 W/m 2,3 C 5,5 C 3,2 km/h (1 Bft) 100,00 %
12.03.2016 15:37 5,5 C 81 % 1025,1 hPa 0,0 l/m 1,3 km/h (1 Bft) N 11 0 min 0,000 mm 0,0 UV-I 55 W/m 2,5 C 5,5 C 3,2 km/h (1 Bft) 96,30 %
12.03.2016 15:38 5,5 C 81 % 1025,1 hPa 0,0 l/m 0,3 km/h (0 Bft) N 11 0 min 0,000 mm 0,0 UV-I 52 W/m 2,5 C 5,5 C 1,6 km/h (1 Bft) 96,15 %
12.03.2016 15:39 5,5 C 81 % 1025,1 hPa 0,0 l/m 2,0 km/h (1 Bft) N 5 0 min 0,000 mm 0,0 UV-I 51 W/m 2,5 C 5,5 C 3,2 km/h (1 Bft) 100,00 %
12.03.2016 15:40 5,5 C 80 % 1025,1 hPa 0,0 l/m 2,3 km/h (1 Bft) N-NO 26 0 min 0,000 mm 0,0 UV-I 50 W/m 2,3 C 5,5 C 4,8 km/h (1 Bft) 95,65 %
12.03.2016 15:41 5,5 C 81 % 1025,1 hPa 0,0 l/m 4,7 km/h (1 Bft) N-NO 19 0 min 0,000 mm 0,0 UV-I 51 W/m 2,5 C 5,5 C 8,0 km/h (2 Bft) 100,00 %
12.03.2016 15:42 5,5 C 81 % 1025,1 hPa 0,0 l/m 5,6 km/h (1 Bft) N-NO 26 0 min 0,000 mm 0,0 UV-I 53 W/m 2,5 C 5,5 C 8,0 km/h (2 Bft) 91,67 %
12.03.2016 15:43 5,5 C 81 % 1025,0 hPa 0,0 l/m 6,8 km/h (2 Bft) NO 43 0 min 0,000 mm 0,0 UV-I 53 W/m 2,5 C 5,2 C 9,7 km/h (2 Bft) 100,00 %
12.03.2016 15:44 5,5 C 81 % 1025,0 hPa 0,0 l/m 7,6 km/h (2 Bft) NO 37 0 min 0,000 mm 0,0 UV-I 52 W/m 2,5 C 4,5 C 9,7 km/h (2 Bft) 100,00 %
12.03.2016 15:45 5,4 C 80 % 1025,1 hPa 0,0 l/m 6,8 km/h (2 Bft) NO 52 0 min 0,000 mm 0,0 UV-I 51 W/m 2,2 C 5,1 C 8,0 km/h (2 Bft) 96,15 %
12.03.2016 15:46 5,4 C 80 % 1025,1 hPa 0,0 l/m 5,1 km/h (1 Bft) O-NO 57 0 min 0,000 mm 0,0 UV-I 52 W/m 2,2 C 5,4 C 6,4 km/h (2 Bft) 98,47 %
12.03.2016 15:47 5,4 C 80 % 1025,0 hPa 0,0 l/m 5,8 km/h (2 Bft) NO 36 0 min 0,000 mm 0,0 UV-I 53 W/m 2,2 C 5,4 C 9,7 km/h (2 Bft) 100,00 %
12.03.2016 15:48 5,4 C 81 % 1025,1 hPa 0,0 l/m 7,5 km/h (2 Bft) N-NO 26 0 min 0,000 mm 0,0 UV-I 53 W/m 2,4 C 4,4 C 9,7 km/h (2 Bft) 100,00 %
12.03.2016 15:49 5,4 C 80 % 1025,1 hPa 0,0 l/m 5,6 km/h (1 Bft) N-NO 28 0 min 0,000 mm 0,0 UV-I 50 W/m 2,2 C 5,4 C 8,0 km/h (2 Bft) 100,00 %
12.03.2016 15:50 5,4 C 80 % 1025,1 hPa 0,0 l/m 4,7 km/h (1 Bft) NO 34 0 min 0,000 mm 0,0 UV-I 49 W/m 2,2 C 5,4 C 6,4 km/h (2 Bft) 100,00 %
12.03.2016 15:51 5,4 C 80 % 1025,1 hPa 0,0 l/m 3,9 km/h (1 Bft) NO 52 0 min 0,000 mm 0,0 UV-I 48 W/m 2,2 C 5,4 C 6,4 km/h (2 Bft) 100,00 %
12.03.2016 15:52 5,4 C 80 % 1025,0 hPa 0,0 l/m 4,2 km/h (1 Bft) N-NO 31 0 min 0,000 mm 0,0 UV-I 47 W/m 2,2 C 5,4 C 6,4 km/h (2 Bft) 100,00 %
12.03.2016 15:53 5,5 C 80 % 1025,1 hPa 0,0 l/m 5,0 km/h (1 Bft) NO 34 0 min 0,000 mm 0,0 UV-I 46 W/m 2,3 C 5,5 C 6,4 km/h (2 Bft) 100,00 %
12.03.2016 15:54 5,5 C 81 % 1025,1 hPa 0,0 l/m 3,7 km/h (1 Bft) N-NO 26 0 min 0,000 mm 0,0 UV-I 44 W/m 2,5 C 5,5 C 6,4 km/h (2 Bft) 100,00 %
12.03.2016 15:55 5,5 C 81 % 1025,0 hPa 0,0 l/m 2,5 km/h (1 Bft) NO 51 0 min 0,000 mm 0,0 UV-I 44 W/m 2,5 C 5,5 C 6,4 km/h (2 Bft) 100,00 %
12.03.2016 15:56 5,5 C 81 % 1025,1 hPa 0,0 l/m 6,2 km/h (2 Bft) NO 46 0 min 0,000 mm 0,0 UV-I 45 W/m 2,5 C 5,5 C 8,0 km/h (2 Bft) 100,00 %
12.03.2016 15:57 5,5 C 81 % 1025,0 hPa 0,0 l/m 5,0 km/h (1 Bft) NO 45 0 min 0,000 mm 0,0 UV-I 47 W/m 2,5 C 5,5 C 6,4 km/h (2 Bft) 100,00 %
12.03.2016 15:58 5,5 C 80 % 1025,0 hPa 0,0 l/m 3,9 km/h (1 Bft) NO 45 0 min 0,000 mm 0,0 UV-I 47 W/m 2,3 C 5,5 C 4,8 km/h (1 Bft) 100,00 %
12.03.2016 15:59 5,4 C 80 % 1025,0 hPa 0,0 l/m 1,2 km/h (1 Bft) NO 39 0 min 0,000 mm 0,0 UV-I 47 W/m 2,2 C 5,4 C 3,2 km/h (1 Bft) 96,30 %
12.03.2016 16:00 5,4 C 81 % 1025,0 hPa 0,0 l/m 4,2 km/h (1 Bft) NO 39 0 min 0,000 mm 0,0 UV-I 46 W/m 2,4 C 5,4 C 4,8 km/h (1 Bft) 100,00 %
12.03.2016 16:01 5,4 C 82 % 1025,1 hPa 0,0 l/m 2,5 km/h (1 Bft) NO 39 0 min 0,026 mm 0,0 UV-I 45 W/m 2,6 C 5,4 C 3,2 km/h (1 Bft) 100,00 %
12.03.2016 16:02 5,4 C 82 % 1025,1 hPa 0,0 l/m 3,8 km/h (1 Bft) NO 36 0 min 0,000 mm 0,0 UV-I 44 W/m 2,6 C 5,4 C 6,4 km/h (2 Bft) 100,00 %
12.03.2016 16:03 5,5 C 81 % 1025,1 hPa 0,0 l/m 3,4 km/h (1 Bft) NO 35 0 min 0,000 mm 0,0 UV-I 43 W/m 2,5 C 5,5 C 6,4 km/h (2 Bft) 100,00 %
12.03.2016 16:04 5,4 C 81 % 1025,1 hPa 0,0 l/m 5,4 km/h (1 Bft) N-NO 27 0 min 0,000 mm 0,0 UV-I 42 W/m 2,4 C 5,4 C 8,0 km/h (2 Bft) 100,00 %
12.03.2016 16:05 5,4 C 81 % 1025,1 hPa 0,0 l/m 5,1 km/h (1 Bft) NO 34 0 min 0,000 mm 0,0 UV-I 42 W/m 2,4 C 5,4 C 8,0 km/h (2 Bft) 100,00 %
12.03.2016 16:06 5,5 C 81 % 1025,1 hPa 0,0 l/m 5,1 km/h (1 Bft) N-NO 24 0 min 0,000 mm 0,0 UV-I 44 W/m 2,5 C 5,5 C 8,0 km/h (2 Bft) 100,00 %
12.03.2016 16:07 5,4 C 80 % 1025,1 hPa 0,0 l/m 3,2 km/h (1 Bft) N-NO 19 0 min 0,000 mm 0,0 UV-I 42 W/m 2,2 C 5,4 C 6,4 km/h (2 Bft) 95,83 %
12.03.2016 16:08 5,4 C 81 % 1025,1 hPa 0,0 l/m 4,2 km/h (1 Bft) N-NO 25 0 min 0,000 mm 0,0 UV-I 41 W/m 2,4 C 5,4 C 4,8 km/h (1 Bft) 100,00 %
12.03.2016 16:09 5,4 C 81 % 1025,1 hPa 0,0 l/m 4,4 km/h (1 Bft) N-NO 31 0 min 0,000 mm 0,0 UV-I 40 W/m 2,4 C 5,4 C 8,0 km/h (2 Bft) 100,00 %
12.03.2016 16:10 5,4 C 81 % 1025,1 hPa 0,0 l/m 6,0 km/h (2 Bft) N-NO 27 0 min 0,000 mm 0,0 UV-I 40 W/m 2,4 C 5,4 C 8,0 km/h (2 Bft) 100,00 %
12.03.2016 16:11 5,4 C 80 % 1025,2 hPa 0,0 l/m 4,2 km/h (1 Bft) NO 35 0 min 0,000 mm 0,0 UV-I 39 W/m 2,2 C 5,4 C 4,8 km/h (1 Bft) 96,67 %
12.03.2016 16:12 5,4 C 80 % 1025,1 hPa 0,0 l/m 3,0 km/h (1 Bft) NO 35 0 min 0,000 mm 0,0 UV-I 39 W/m 2,2 C 5,4 C 4,8 km/h (1 Bft) 100,00 %
12.03.2016 16:13 5,4 C 80 % 1025,1 hPa 0,0 l/m 3,7 km/h (1 Bft) NO 36 0 min 0,000 mm 0,0 UV-I 39 W/m 2,2 C 5,4 C 4,8 km/h (1 Bft) 100,00 %
12.03.2016 16:14 5,4 C 81 % 1025,2 hPa 0,0 l/m 4,5 km/h (1 Bft) NO 36 0 min 0,000 mm 0,0 UV-I 39 W/m 2,4 C 5,4 C 4,8 km/h (1 Bft) 100,00 %
12.03.2016 16:15 5,4 C 81 % 1025,1 hPa 0,0 l/m 4,5 km/h (1 Bft) NO 45 0 min 0,000 mm 0,0 UV-I 39 W/m 2,4 C 5,4 C 6,4 km/h (2 Bft) 100,00 %
12.03.2016 16:16 5,4 C 80 % 1025,1 hPa 0,0 l/m 4,9 km/h (1 Bft) NO 45 0 min 0,000 mm 0,0 UV-I 39 W/m 2,2 C 5,4 C 6,4 km/h (2 Bft) 100,00 %
12.03.2016 16:17 5,4 C 81 % 1025,1 hPa 0,0 l/m 4,8 km/h (1 Bft) NO 45 0 min 0,000 mm 0,0 UV-I 39 W/m 2,4 C 5,4 C 6,4 km/h (2 Bft) 100,00 %
12.03.2016 16:18 5,4 C 80 % 1025,1 hPa 0,0 l/m 4,4 km/h (1 Bft) NO 48 0 min 0,000 mm 0,0 UV-I 39 W/m 2,2 C 5,4 C 6,4 km/h (2 Bft) 95,65 %
12.03.2016 16:19 5,4 C 80 % 1025,2 hPa 0,0 l/m 3,9 km/h (1 Bft) NO 48 0 min 0,000 mm 0,0 UV-I 39 W/m 2,2 C 5,4 C 6,4 km/h (2 Bft) 100,00 %
12.03.2016 16:20 5,4 C 80 % 1025,2 hPa 0,0 l/m 3,9 km/h (1 Bft) NO 48 0 min 0,000 mm 0,0 UV-I 40 W/m 2,2 C 5,4 C 6,4 km/h (2 Bft) 100,00 %
12.03.2016 16:21 5,4 C 80 % 1025,2 hPa 0,0 l/m 3,1 km/h (1 Bft) NO 48 0 min 0,000 mm 0,0 UV-I 41 W/m 2,2 C 5,4 C 4,8 km/h (1 Bft) 100,00 %
12.03.2016 16:22 5,4 C 80 % 1025,2 hPa 0,0 l/m 3,5 km/h (1 Bft) NO 48 0 min 0,000 mm 0,0 UV-I 42 W/m 2,2 C 5,4 C 4,8 km/h (1 Bft) 100,00 %
12.03.2016 16:23 5,4 C 80 % 1025,2 hPa 0,0 l/m 2,3 km/h (1 Bft) NO 48 0 min 0,000 mm 0,0 UV-I 44 W/m 2,2 C 5,4 C 3,2 km/h (1 Bft) 100,00 %
12.03.2016 16:24 5,4 C 80 % 1025,2 hPa 0,0 l/m 3,2 km/h (1 Bft) NO 48 0 min 0,000 mm 0,0 UV-I 44 W/m 2,2 C 5,4 C 4,8 km/h (1 Bft) 100,00 %
12.03.2016 16:25 5,5 C 79 % 1025,2 hPa 0,0 l/m 2,8 km/h (1 Bft) NO 48 0 min 0,000 mm 0,0 UV-I 44 W/m 2,2 C 5,5 C 4,8 km/h (1 Bft) 96,55 %
12.03.2016 16:26 5,5 C 79 % 1025,2 hPa 0,0 l/m 3,1 km/h (1 Bft) NO 48 0 min 0,000 mm 0,0 UV-I 44 W/m 2,2 C 5,5 C 4,8 km/h (1 Bft) 100,00 %
12.03.2016 16:27 5,5 C 79 % 1025,2 hPa 0,0 l/m 3,3 km/h (1 Bft) NO 48 0 min 0,000 mm 0,0 UV-I 44 W/m 2,2 C 5,5 C 4,8 km/h (1 Bft) 100,00 %
12.03.2016 16:28 5,5 C 79 % 1025,2 hPa 0,0 l/m 2,5 km/h (1 Bft) NO 50 0 min 0,000 mm 0,0 UV-I 44 W/m 2,2 C 5,5 C 4,8 km/h (1 Bft) 100,00 %
12.03.2016 16:29 5,5 C 80 % 1025,2 hPa 0,0 l/m 2,7 km/h (1 Bft) NO 50 0 min 0,000 mm 0,0 UV-I 42 W/m 2,3 C 5,5 C 4,8 km/h (1 Bft) 100,00 %
12.03.2016 16:30 5,5 C 80 % 1025,2 hPa 0,0 l/m 3,4 km/h (1 Bft) O-NO 63 0 min 0,000 mm 0,0 UV-I 40 W/m 2,3 C 5,5 C 4,8 km/h (1 Bft) 100,00 %
12.03.2016 16:31 5,5 C 80 % 1025,2 hPa 0,0 l/m 4,1 km/h (1 Bft) O-NO 63 0 min 0,000 mm 0,0 UV-I 40 W/m 2,3 C 5,5 C 4,8 km/h (1 Bft) 100,00 %
12.03.2016 16:32 5,5 C 80 % 1025,2 hPa 0,0 l/m 3,9 km/h (1 Bft) O-NO 63 0 min 0,000 mm 0,0 UV-I 39 W/m 2,3 C 5,5 C 4,8 km/h (1 Bft) 100,00 %
12.03.2016 16:33 5,5 C 80 % 1025,2 hPa 0,0 l/m 3,9 km/h (1 Bft) O-NO 70 0 min 0,000 mm 0,0 UV-I 37 W/m 2,3 C 5,5 C 6,4 km/h (2 Bft) 100,00 %
12.03.2016 16:34 5,5 C 80 % 1025,2 hPa 0,0 l/m 4,6 km/h (1 Bft) O-NO 69 0 min 0,000 mm 0,0 UV-I 35 W/m 2,3 C 5,5 C 6,4 km/h (2 Bft) 100,00 %
12.03.2016 16:35 5,5 C 79 % 1025,2 hPa 0,0 l/m 3,1 km/h (1 Bft) O-NO 69 0 min 0,000 mm 0,0 UV-I 35 W/m 2,2 C 5,5 C 4,8 km/h (1 Bft) 100,00 %
12.03.2016 16:36 5,5 C 80 % 1025,3 hPa 0,0 l/m 3,3 km/h (1 Bft) O-NO 69 0 min 0,000 mm 0,0 UV-I 35 W/m 2,3 C 5,5 C 4,8 km/h (1 Bft) 100,00 %
12.03.2016 16:37 5,5 C 80 % 1025,3 hPa 0,0 l/m 2,1 km/h (1 Bft) O-NO 69 0 min 0,000 mm 0,0 UV-I 35 W/m 2,3 C 5,5 C 3,2 km/h (1 Bft) 100,00 %
12.03.2016 16:38 5,5 C 79 % 1025,2 hPa 0,0 l/m 2,5 km/h (1 Bft) O-NO 69 0 min 0,000 mm 0,0 UV-I 35 W/m 2,2 C 5,5 C 4,8 km/h (1 Bft) 100,00 %
12.03.2016 16:39 5,5 C 80 % 1025,2 hPa 0,0 l/m 5,1 km/h (1 Bft) O-NO 57 0 min 0,000 mm 0,0 UV-I 37 W/m 2,3 C 5,5 C 6,4 km/h (2 Bft) 100,00 %
12.03.2016 16:40 5,5 C 79 % 1025,2 hPa 0,0 l/m 3,0 km/h (1 Bft) O-NO 57 0 min 0,000 mm 0,0 UV-I 37 W/m 2,2 C 5,5 C 4,8 km/h (1 Bft) 100,00 %
12.03.2016 16:41 5,5 C 80 % 1025,3 hPa 0,0 l/m 3,1 km/h (1 Bft) O-NO 57 0 min 0,000 mm 0,0 UV-I 37 W/m 2,3 C 5,5 C 4,8 km/h (1 Bft) 100,00 %
12.03.2016 16:42 5,5 C 80 % 1025,2 hPa 0,0 l/m 3,2 km/h (1 Bft) O-NO 57 0 min 0,000 mm 0,0 UV-I 37 W/m 2,3 C 5,5 C 4,8 km/h (1 Bft) 100,00 %
12.03.2016 16:43 5,4 C 80 % 1025,2 hPa 0,0 l/m 2,3 km/h (1 Bft) O-NO 57 0 min 0,000 mm 0,0 UV-I 38 W/m 2,2 C 5,4 C 3,2 km/h (1 Bft) 100,00 %
12.03.2016 16:44 5,5 C 80 % 1025,2 hPa 0,0 l/m 0,8 km/h (0 Bft) O-NO 57 0 min 0,000 mm 0,0 UV-I 39 W/m 2,3 C 5,5 C 3,2 km/h (1 Bft) 100,00 %
12.03.2016 16:45 5,4 C 81 % 1025,2 hPa 0,0 l/m 2,0 km/h (1 Bft) O-NO 57 0 min 0,000 mm 0,0 UV-I 40 W/m 2,4 C 5,4 C 3,2 km/h (1 Bft) 100,00 %
12.03.2016 16:46 5,5 C 80 % 1025,2 hPa 0,0 l/m 1,7 km/h (1 Bft) O-NO 57 0 min 0,000 mm 0,0 UV-I 39 W/m 2,3 C 5,5 C 3,2 km/h (1 Bft) 100,00 %
12.03.2016 16:47 5,5 C 81 % 1025,2 hPa 0,0 l/m 1,7 km/h (1 Bft) O-NO 57 0 min 0,000 mm 0,0 UV-I 39 W/m 2,5 C 5,5 C 3,2 km/h (1 Bft) 100,00 %
12.03.2016 16:48 5,5 C 80 % 1025,2 hPa 0,0 l/m 2,6 km/h (1 Bft) O-NO 57 0 min 0,000 mm 0,0 UV-I 38 W/m 2,3 C 5,5 C 3,2 km/h (1 Bft) 95,65 %
12.03.2016 16:49 5,5 C 80 % 1025,2 hPa 0,0 l/m 1,7 km/h (1 Bft) O-NO 57 0 min 0,000 mm 0,0 UV-I 36 W/m 2,3 C 5,5 C 3,2 km/h (1 Bft) 100,00 %
12.03.2016 16:50 5,5 C 80 % 1025,3 hPa 0,0 l/m 2,0 km/h (1 Bft) O-NO 57 0 min 0,000 mm 0,0 UV-I 34 W/m 2,3 C 5,5 C 3,2 km/h (1 Bft) 95,65 %
12.03.2016 16:51 5,5 C 80 % 1025,2 hPa 0,0 l/m 1,5 km/h (1 Bft) O-NO 57 0 min 0,000 mm 0,0 UV-I 32 W/m 2,3 C 5,5 C 3,2 km/h (1 Bft) 95,83 %
12.03.2016 16:52 5,5 C 81 % 1025,3 hPa 0,0 l/m 1,4 km/h (1 Bft) O-NO 57 0 min 0,000 mm 0,0 UV-I 30 W/m 2,5 C 5,5 C 3,2 km/h (1 Bft) 96,15 %
12.03.2016 16:53 5,5 C 82 % 1025,2 hPa 0,0 l/m 2,7 km/h (1 Bft) O-NO 57 0 min 0,000 mm 0,0 UV-I 28 W/m 2,7 C 5,5 C 3,2 km/h (1 Bft) 100,00 %
12.03.2016 16:54 5,5 C 82 % 1025,2 hPa 0,0 l/m 2,4 km/h (1 Bft) O-NO 57 0 min 0,000 mm 0,0 UV-I 27 W/m 2,7 C 5,5 C 3,2 km/h (1 Bft) 86,96 %
12.03.2016 16:55 5,5 C 82 % 1025,3 hPa 0,0 l/m 3,4 km/h (1 Bft) O-NO 57 0 min 0,000 mm 0,0 UV-I 26 W/m 2,7 C 5,5 C 4,8 km/h (1 Bft) 100,00 %
12.03.2016 16:56 5,4 C 80 % 1025,2 hPa 0,0 l/m 2,8 km/h (1 Bft) O-NO 57 0 min 0,000 mm 0,0 UV-I 25 W/m 2,2 C 5,4 C 3,2 km/h (1 Bft) 91,30 %
12.03.2016 16:57 5,4 C 81 % 1025,2 hPa 0,0 l/m 3,1 km/h (1 Bft) O-NO 57 0 min 0,000 mm 0,0 UV-I 25 W/m 2,4 C 5,4 C 4,8 km/h (1 Bft) 100,00 %
12.03.2016 16:58 5,4 C 81 % 1025,2 hPa 0,0 l/m 2,9 km/h (1 Bft) O-NO 57 0 min 0,000 mm 0,0 UV-I 25 W/m 2,4 C 5,4 C 3,2 km/h (1 Bft) 95,83 %
12.03.2016 16:59 5,4 C 81 % 1025,2 hPa 0,0 l/m 2,8 km/h (1 Bft) O-NO 57 0 min 0,000 mm 0,0 UV-I 22 W/m 2,4 C 5,4 C 3,2 km/h (1 Bft) 100,00 %
12.03.2016 17:00 5,4 C 80 % 1025,2 hPa 0,0 l/m 2,3 km/h (1 Bft) O-NO 57 0 min 0,000 mm 0,0 UV-I 21 W/m 2,2 C 5,4 C 3,2 km/h (1 Bft) 96,15 %
12.03.2016 17:02 5,4 C 81 % 1025,3 hPa 0,0 l/m 1,0 km/h (0 Bft) O-NO 57 0 min 0,025 mm 0,0 UV-I 19 W/m 2,4 C 5,4 C 3,2 km/h (1 Bft) 98,00 %
12.03.2016 17:03 5,4 C 82 % 1025,2 hPa 0,0 l/m 1,8 km/h (1 Bft) O-NO 57 0 min 0,000 mm 0,0 UV-I 18 W/m 2,6 C 5,4 C 3,2 km/h (1 Bft) 91,67 %
12.03.2016 17:04 5,4 C 82 % 1025,2 hPa 0,0 l/m 2,0 km/h (1 Bft) O-NO 57 0 min 0,000 mm 0,0 UV-I 16 W/m 2,6 C 5,4 C 3,2 km/h (1 Bft) 100,00 %
12.03.2016 17:05 5,4 C 82 % 1025,2 hPa 0,0 l/m 2,0 km/h (1 Bft) O-NO 57 0 min 0,000 mm 0,0 UV-I 14 W/m 2,6 C 5,4 C 3,2 km/h (1 Bft) 95,65 %
12.03.2016 17:06 5,4 C 82 % 1025,3 hPa 0,0 l/m 2,1 km/h (1 Bft) O-NO 57 0 min 0,000 mm 0,0 UV-I 14 W/m 2,6 C 5,4 C 3,2 km/h (1 Bft) 100,00 %
12.03.2016 17:07 5,3 C 81 % 1025,3 hPa 0,0 l/m 1,7 km/h (1 Bft) O-NO 57 0 min 0,000 mm 0,0 UV-I 12 W/m 2,3 C 5,3 C 3,2 km/h (1 Bft) 94,12 %
12.03.2016 17:08 5,3 C 81 % 1025,3 hPa 0,0 l/m 2,1 km/h (1 Bft) O-NO 57 0 min 0,000 mm 0,0 UV-I 12 W/m 2,3 C 5,3 C 3,2 km/h (1 Bft) 100,00 %
12.03.2016 17:09 5,3 C 82 % 1025,3 hPa 0,0 l/m 2,3 km/h (1 Bft) O-NO 57 0 min 0,000 mm 0,0 UV-I 12 W/m 2,5 C 5,3 C 3,2 km/h (1 Bft) 95,65 %
12.03.2016 17:10 5,3 C 82 % 1025,3 hPa 0,0 l/m 2,1 km/h (1 Bft) O-NO 57 0 min 0,000 mm 0,0 UV-I 12 W/m 2,5 C 5,3 C 3,2 km/h (1 Bft) 95,83 %
12.03.2016 17:11 5,3 C 82 % 1025,3 hPa 0,0 l/m 2,1 km/h (1 Bft) O-NO 57 0 min 0,000 mm 0,0 UV-I 12 W/m 2,5 C 5,3 C 3,2 km/h (1 Bft) 100,00 %
12.03.2016 17:12 5,3 C 82 % 1025,3 hPa 0,0 l/m 1,2 km/h (1 Bft) O-NO 57 0 min 0,000 mm 0,0 UV-I 11 W/m 2,5 C 5,3 C 3,2 km/h (1 Bft) 93,33 %
12.03.2016 17:13 5,3 C 81 % 1025,3 hPa 0,0 l/m 1,9 km/h (1 Bft) O-NO 57 0 min 0,000 mm 0,0 UV-I 11 W/m 2,3 C 5,3 C 4,8 km/h (1 Bft) 100,00 %
12.03.2016 17:14 5,3 C 82 % 1025,3 hPa 0,0 l/m 2,3 km/h (1 Bft) O-NO 57 0 min 0,000 mm 0,0 UV-I 11 W/m 2,5 C 5,3 C 3,2 km/h (1 Bft) 96,30 %
12.03.2016 17:15 5,3 C 81 % 1025,3 hPa 0,0 l/m 0,1 km/h (0 Bft) O-NO 57 0 min 0,000 mm 0,0 UV-I 11 W/m 2,3 C 5,3 C 1,6 km/h (1 Bft) 100,00 %
12.03.2016 17:16 5,3 C 81 % 1025,2 hPa 0,0 l/m 0,5 km/h (0 Bft) O-NO 57 0 min 0,000 mm 0,0 UV-I 11 W/m 2,3 C 5,3 C 1,6 km/h (1 Bft) 96,30 %
12.03.2016 17:17 5,3 C 81 % 1025,3 hPa 0,0 l/m 0,1 km/h (0 Bft) O-NO 57 0 min 0,000 mm 0,0 UV-I 11 W/m 2,3 C 5,3 C 1,6 km/h (1 Bft) 100,00 %
12.03.2016 17:18 5,3 C 82 % 1025,3 hPa 0,0 l/m 0,1 km/h (0 Bft) O-NO 57 0 min 0,000 mm 0,0 UV-I 10 W/m 2,5 C 5,3 C 1,6 km/h (1 Bft) 92,31 %
12.03.2016 17:19 5,3 C 83 % 1025,3 hPa 0,0 l/m 0,0 km/h (0 Bft) O-NO 57 0 min 0,000 mm 0,0 UV-I 9 W/m 2,7 C 5,3 C 0,0 km/h (0 Bft) 95,83 %
12.03.2016 17:20 5,3 C 82 % 1025,2 hPa 0,0 l/m 0,2 km/h (0 Bft) O-NO 57 0 min 0,000 mm 0,0 UV-I 9 W/m 2,5 C 5,3 C 1,6 km/h (1 Bft) 100,00 %
12.03.2016 17:21 5,3 C 81 % 1025,3 hPa 0,0 l/m 0,1 km/h (0 Bft) O-NO 57 0 min 0,000 mm 0,0 UV-I 9 W/m 2,3 C 5,3 C 1,6 km/h (1 Bft) 96,30 %
12.03.2016 17:22 5,3 C 82 % 1025,3 hPa 0,0 l/m 1,1 km/h (1 Bft) O-NO 57 0 min 0,000 mm 0,0 UV-I 7 W/m 2,5 C 5,3 C 3,2 km/h (1 Bft) 100,00 %
12.03.2016 17:23 5,3 C 82 % 1025,3 hPa 0,0 l/m 1,5 km/h (1 Bft) O-NO 57 0 min 0,000 mm 0,0 UV-I 7 W/m 2,5 C 5,3 C 3,2 km/h (1 Bft) 95,83 %
12.03.2016 17:24 5,3 C 82 % 1025,3 hPa 0,0 l/m 1,5 km/h (1 Bft) O-NO 57 0 min 0,000 mm 0,0 UV-I 7 W/m 2,5 C 5,3 C 4,8 km/h (1 Bft) 100,00 %
12.03.2016 17:25 5,3 C 82 % 1025,3 hPa 0,0 l/m 2,7 km/h (1 Bft) O-NO 57 0 min 0,000 mm 0,0 UV-I 6 W/m 2,5 C 5,3 C 3,2 km/h (1 Bft) 95,83 %
12.03.2016 17:26 5,2 C 83 % 1025,3 hPa 0,0 l/m 3,6 km/h (1 Bft) O-NO 57 0 min 0,000 mm 0,0 UV-I 5 W/m 2,6 C 5,2 C 4,8 km/h (1 Bft) 100,00 %
12.03.2016 17:27 5,2 C 82 % 1025,3 hPa 0,0 l/m 4,1 km/h (1 Bft) O-NO 57 0 min 0,000 mm 0,0 UV-I 5 W/m 2,4 C 5,2 C 4,8 km/h (1 Bft) 100,00 %
12.03.2016 17:28 5,2 C 82 % 1025,3 hPa 0,0 l/m 3,6 km/h (1 Bft) NO 55 0 min 0,000 mm 0,0 UV-I 5 W/m 2,4 C 5,2 C 6,4 km/h (2 Bft) 92,31 %
12.03.2016 17:29 5,2 C 82 % 1025,4 hPa 0,0 l/m 2,1 km/h (1 Bft) NO 55 0 min 0,000 mm 0,0 UV-I 5 W/m 2,4 C 5,2 C 3,2 km/h (1 Bft) 100,00 %
12.03.2016 17:30 5,3 C 82 % 1025,4 hPa 0,0 l/m 5,6 km/h (1 Bft) NO 51 0 min 0,000 mm 0,0 UV-I 5 W/m 2,5 C 5,3 C 9,7 km/h (2 Bft) 100,00 %
12.03.2016 17:31 5,2 C 82 % 1025,4 hPa 0,0 l/m 7,1 km/h (2 Bft) NO 38 0 min 0,000 mm 0,0 UV-I 5 W/m 2,4 C 4,6 C 9,7 km/h (2 Bft) 100,00 %
12.03.2016 17:32 5,2 C 82 % 1025,3 hPa 0,0 l/m 8,1 km/h (2 Bft) NO 39 0 min 0,000 mm 0,0 UV-I 5 W/m 2,4 C 3,7 C 9,7 km/h (2 Bft) 100,00 %
12.03.2016 17:33 5,2 C 82 % 1025,4 hPa 0,0 l/m 5,7 km/h (1 Bft) NO 44 0 min 0,000 mm 0,0 UV-I 5 W/m 2,4 C 5,2 C 9,7 km/h (2 Bft) 100,00 %
12.03.2016 17:34 5,2 C 82 % 1025,4 hPa 0,0 l/m 7,1 km/h (2 Bft) N-NO 28 0 min 0,000 mm 0,0 UV-I 5 W/m 2,4 C 4,6 C 8,0 km/h (2 Bft) 100,00 %
12.03.2016 17:35 5,2 C 82 % 1025,4 hPa 0,0 l/m 6,0 km/h (2 Bft) O-NO 59 0 min 0,000 mm 0,0 UV-I 5 W/m 2,4 C 5,2 C 8,0 km/h (2 Bft) 96,30 %
12.03.2016 17:36 5,2 C 82 % 1025,4 hPa 0,0 l/m 8,2 km/h (2 Bft) NO 38 0 min 0,000 mm 0,0 UV-I 5 W/m 2,4 C 3,6 C 12,9 km/h (3 Bft) 100,00 %
12.03.2016 17:37 5,1 C 82 % 1025,4 hPa 0,0 l/m 8,9 km/h (2 Bft) NO 48 0 min 0,000 mm 0,0 UV-I 5 W/m 2,3 C 3,0 C 9,7 km/h (2 Bft) 93,33 %
12.03.2016 17:38 5,1 C 82 % 1025,4 hPa 0,0 l/m 7,6 km/h (2 Bft) O-NO 65 0 min 0,000 mm 0,0 UV-I 5 W/m 2,3 C 4,0 C 9,7 km/h (2 Bft) 100,00 %
12.03.2016 17:39 5,1 C 82 % 1025,4 hPa 0,0 l/m 7,1 km/h (2 Bft) NO 47 0 min 0,000 mm 0,0 UV-I 5 W/m 2,3 C 4,5 C 9,7 km/h (2 Bft) 100,00 %
12.03.2016 17:40 5,1 C 82 % 1025,4 hPa 0,0 l/m 5,1 km/h (1 Bft) N-NO 12 0 min 0,000 mm 0,0 UV-I 5 W/m 2,3 C 5,1 C 8,0 km/h (2 Bft) 100,00 %
12.03.2016 17:41 5,1 C 82 % 1025,4 hPa 0,0 l/m 7,0 km/h (2 Bft) NO 44 0 min 0,000 mm 0,0 UV-I 5 W/m 2,3 C 4,6 C 8,0 km/h (2 Bft) 100,00 %
12.03.2016 17:42 5,0 C 83 % 1025,4 hPa 0,0 l/m 6,7 km/h (2 Bft) NO 38 0 min 0,000 mm 0,0 UV-I 5 W/m 2,4 C 4,8 C 8,0 km/h (2 Bft) 100,00 %
12.03.2016 17:43 5,0 C 83 % 1025,3 hPa 0,0 l/m 3,7 km/h (1 Bft) N-NO 26 0 min 0,000 mm 0,0 UV-I 5 W/m 2,4 C 5,0 C 6,4 km/h (2 Bft) 96,15 %
12.03.2016 17:44 5,0 C 83 % 1025,4 hPa 0,0 l/m 4,2 km/h (1 Bft) N-NO 33 0 min 0,000 mm 0,0 UV-I 5 W/m 2,4 C 5,0 C 4,8 km/h (1 Bft) 100,00 %
12.03.2016 17:45 5,0 C 83 % 1025,4 hPa 0,0 l/m 7,4 km/h (2 Bft) NO 40 0 min 0,000 mm 0,0 UV-I 0 W/m 2,4 C 4,1 C 9,7 km/h (2 Bft) 100,00 %
12.03.2016 17:46 4,9 C 83 % 1025,4 hPa 0,0 l/m 6,5 km/h (2 Bft) NO 36 0 min 0,000 mm 0,0 UV-I 0 W/m 2,3 C 4,8 C 8,0 km/h (2 Bft) 100,00 %
12.03.2016 17:47 4,9 C 83 % 1025,4 hPa 0,0 l/m 7,8 km/h (2 Bft) NO 41 0 min 0,000 mm 0,0 UV-I 0 W/m 2,3 C 3,7 C 9,7 km/h (2 Bft) 100,00 %
12.03.2016 17:48 4,9 C 83 % 1025,4 hPa 0,0 l/m 6,4 km/h (2 Bft) N-NO 25 0 min 0,000 mm 0,0 UV-I 0 W/m 2,3 C 4,9 C 8,0 km/h (2 Bft) 100,00 %
12.03.2016 17:49 4,9 C 83 % 1025,4 hPa 0,0 l/m 5,5 km/h (1 Bft) NO 38 0 min 0,000 mm 0,0 UV-I 0 W/m 2,3 C 4,9 C 6,4 km/h (2 Bft) 90,91 %
12.03.2016 17:50 4,9 C 83 % 1025,4 hPa 0,0 l/m 4,5 km/h (1 Bft) NO 39 0 min 0,000 mm 0,0 UV-I 0 W/m 2,3 C 4,9 C 6,4 km/h (2 Bft) 100,00 %
12.03.2016 17:51 4,9 C 83 % 1025,4 hPa 0,0 l/m 6,2 km/h (2 Bft) NO 44 0 min 0,000 mm 0,0 UV-I 0 W/m 2,3 C 4,9 C 9,7 km/h (2 Bft) 100,00 %
12.03.2016 17:52 4,8 C 84 % 1025,4 hPa 0,0 l/m 7,1 km/h (2 Bft) NO 47 0 min 0,000 mm 0,0 UV-I 0 W/m 2,3 C 4,2 C 9,7 km/h (2 Bft) 100,00 %
12.03.2016 17:53 4,8 C 84 % 1025,4 hPa 0,0 l/m 6,2 km/h (2 Bft) NO 44 0 min 0,000 mm 0,0 UV-I 0 W/m 2,3 C 4,8 C 8,0 km/h (2 Bft) 100,00 %
12.03.2016 17:54 4,8 C 83 % 1025,4 hPa 0,0 l/m 5,4 km/h (1 Bft) N-NO 20 0 min 0,000 mm 0,0 UV-I 0 W/m 2,2 C 4,8 C 8,0 km/h (2 Bft) 100,00 %
12.03.2016 17:55 4,8 C 84 % 1025,4 hPa 0,0 l/m 7,3 km/h (2 Bft) NO 44 0 min 0,000 mm 0,0 UV-I 0 W/m 2,3 C 4,0 C 9,7 km/h (2 Bft) 96,15 %
12.03.2016 17:56 4,8 C 84 % 1025,4 hPa 0,0 l/m 6,8 km/h (2 Bft) NO 38 0 min 0,000 mm 0,0 UV-I 0 W/m 2,3 C 4,5 C 9,7 km/h (2 Bft) 100,00 %
12.03.2016 17:57 4,8 C 83 % 1025,4 hPa 0,0 l/m 4,6 km/h (1 Bft) N-NO 17 0 min 0,000 mm 0,0 UV-I 0 W/m 2,2 C 4,8 C 6,4 km/h (2 Bft) 100,00 %
12.03.2016 17:58 4,8 C 84 % 1025,4 hPa 0,0 l/m 3,8 km/h (1 Bft) NO 46 0 min 0,000 mm 0,0 UV-I 0 W/m 2,3 C 4,8 C 4,8 km/h (1 Bft) 96,30 %
12.03.2016 17:59 4,8 C 84 % 1025,5 hPa 0,0 l/m 4,8 km/h (1 Bft) NO 49 0 min 0,000 mm 0,0 UV-I 0 W/m 2,3 C 4,8 C 6,4 km/h (2 Bft) 100,00 %
12.03.2016 18:00 4,8 C 84 % 1025,4 hPa 0,0 l/m 5,4 km/h (1 Bft) N-NO 32 0 min 0,000 mm 0,0 UV-I 0 W/m 2,3 C 4,8 C 8,0 km/h (2 Bft) 100,00 %
12.03.2016 18:01 4,8 C 84 % 1025,4 hPa 0,0 l/m 4,8 km/h (1 Bft) NO 36 0 min 0,000 mm 0,0 UV-I 0 W/m 2,3 C 4,8 C 6,4 km/h (2 Bft) 100,00 %
12.03.2016 18:02 4,8 C 84 % 1025,4 hPa 0,0 l/m 5,9 km/h (2 Bft) NO 41 0 min 0,000 mm 0,0 UV-I 0 W/m 2,3 C 4,8 C 6,4 km/h (2 Bft) 100,00 %
12.03.2016 18:03 4,8 C 84 % 1025,4 hPa 0,0 l/m 5,7 km/h (1 Bft) NO 36 0 min 0,000 mm 0,0 UV-I 0 W/m 2,3 C 4,8 C 6,4 km/h (2 Bft) 100,00 %
12.03.2016 18:04 4,7 C 84 % 1025,4 hPa 0,0 l/m 5,7 km/h (1 Bft) NO 40 0 min 0,000 mm 0,0 UV-I 0 W/m 2,2 C 4,7 C 8,0 km/h (2 Bft) 98,52 %
12.03.2016 18:05 4,7 C 84 % 1025,4 hPa 0,0 l/m 4,8 km/h (1 Bft) NO 40 0 min 0,000 mm 0,0 UV-I 0 W/m 2,2 C 4,7 C 6,4 km/h (2 Bft) 100,00 %
12.03.2016 18:06 4,7 C 84 % 1025,4 hPa 0,0 l/m 6,8 km/h (2 Bft) NO 43 0 min 0,000 mm 0,0 UV-I 0 W/m 2,2 C 4,4 C 8,0 km/h (2 Bft) 100,00 %
12.03.2016 18:07 4,7 C 84 % 1025,5 hPa 0,0 l/m 5,1 km/h (1 Bft) NO 36 0 min 0,000 mm 0,0 UV-I 0 W/m 2,2 C 4,7 C 6,4 km/h (2 Bft) 100,00 %
12.03.2016 18:08 4,7 C 84 % 1025,4 hPa 0,0 l/m 6,1 km/h (2 Bft) NO 41 0 min 0,000 mm 0,0 UV-I 0 W/m 2,2 C 4,7 C 8,0 km/h (2 Bft) 100,00 %
12.03.2016 18:09 4,7 C 85 % 1025,4 hPa 0,0 l/m 5,1 km/h (1 Bft) NO 41 0 min 0,000 mm 0,0 UV-I 0 W/m 2,4 C 4,7 C 6,4 km/h (2 Bft) 100,00 %
12.03.2016 18:10 4,7 C 85 % 1025,5 hPa 0,0 l/m 3,0 km/h (1 Bft) NO 41 0 min 0,000 mm 0,0 UV-I 0 W/m 2,4 C 4,7 C 4,8 km/h (1 Bft) 100,00 %
12.03.2016 18:11 4,7 C 85 % 1025,5 hPa 0,0 l/m 4,8 km/h (1 Bft) NO 40 0 min 0,000 mm 0,0 UV-I 0 W/m 2,4 C 4,7 C 4,8 km/h (1 Bft) 100,00 %
12.03.2016 18:12 4,7 C 85 % 1025,5 hPa 0,0 l/m 3,8 km/h (1 Bft) NO 40 0 min 0,000 mm 0,0 UV-I 0 W/m 2,4 C 4,7 C 4,8 km/h (1 Bft) 100,00 %
12.03.2016 18:13 4,7 C 85 % 1025,5 hPa 0,0 l/m 3,6 km/h (1 Bft) NO 40 0 min 0,000 mm 0,0 UV-I 0 W/m 2,4 C 4,7 C 4,8 km/h (1 Bft) 95,83 %
12.03.2016 18:14 4,7 C 85 % 1025,5 hPa 0,0 l/m 4,3 km/h (1 Bft) NO 40 0 min 0,000 mm 0,0 UV-I 0 W/m 2,4 C 4,7 C 4,8 km/h (1 Bft) 95,65 %
12.03.2016 18:15 4,7 C 85 % 1025,5 hPa 0,0 l/m 3,1 km/h (1 Bft) NO 41 0 min 0,000 mm 0,0 UV-I 0 W/m 2,4 C 4,7 C 4,8 km/h (1 Bft) 100,00 %
12.03.2016 18:16 4,7 C 85 % 1025,5 hPa 0,0 l/m 2,5 km/h (1 Bft) NO 41 0 min 0,000 mm 0,0 UV-I 0 W/m 2,4 C 4,7 C 3,2 km/h (1 Bft) 100,00 %
12.03.2016 18:17 4,7 C 85 % 1025,5 hPa 0,0 l/m 3,2 km/h (1 Bft) NO 41 0 min 0,000 mm 0,0 UV-I 0 W/m 2,4 C 4,7 C 4,8 km/h (1 Bft) 95,83 %
12.03.2016 18:18 4,7 C 85 % 1025,5 hPa 0,0 l/m 2,9 km/h (1 Bft) NO 41 0 min 0,000 mm 0,0 UV-I 0 W/m 2,4 C 4,7 C 3,2 km/h (1 Bft) 100,00 %
12.03.2016 18:19 4,7 C 85 % 1025,5 hPa 0,0 l/m 3,1 km/h (1 Bft) NO 41 0 min 0,000 mm 0,0 UV-I 0 W/m 2,4 C 4,7 C 3,2 km/h (1 Bft) 95,83 %
12.03.2016 18:20 4,7 C 85 % 1025,5 hPa 0,0 l/m 2,5 km/h (1 Bft) NO 41 0 min 0,000 mm 0,0 UV-I 0 W/m 2,4 C 4,7 C 3,2 km/h (1 Bft) 100,00 %
12.03.2016 18:21 4,7 C 85 % 1025,5 hPa 0,0 l/m 2,3 km/h (1 Bft) NO 41 0 min 0,000 mm 0,0 UV-I 0 W/m 2,4 C 4,7 C 3,2 km/h (1 Bft) 96,30 %
12.03.2016 18:22 4,7 C 85 % 1025,5 hPa 0,0 l/m 3,1 km/h (1 Bft) NO 41 0 min 0,000 mm 0,0 UV-I 0 W/m 2,4 C 4,7 C 4,8 km/h (1 Bft) 100,00 %
12.03.2016 18:23 4,7 C 85 % 1025,5 hPa 0,0 l/m 4,2 km/h (1 Bft) NO 41 0 min 0,000 mm 0,0 UV-I 0 W/m 2,4 C 4,7 C 6,4 km/h (2 Bft) 100,00 %
12.03.2016 18:24 4,6 C 85 % 1025,5 hPa 0,0 l/m 4,1 km/h (1 Bft) NO 40 0 min 0,000 mm 0,0 UV-I 0 W/m 2,3 C 4,6 C 6,4 km/h (2 Bft) 100,00 %
12.03.2016 18:25 4,6 C 85 % 1025,5 hPa 0,0 l/m 4,3 km/h (1 Bft) NO 40 0 min 0,000 mm 0,0 UV-I 0 W/m 2,3 C 4,6 C 6,4 km/h (2 Bft) 100,00 %
12.03.2016 18:26 4,6 C 85 % 1025,5 hPa 0,0 l/m 3,8 km/h (1 Bft) NO 40 0 min 0,000 mm 0,0 UV-I 0 W/m 2,3 C 4,6 C 4,8 km/h (1 Bft) 93,33 %
12.03.2016 18:27 4,6 C 85 % 1025,5 hPa 0,0 l/m 3,2 km/h (1 Bft) NO 40 0 min 0,000 mm 0,0 UV-I 0 W/m 2,3 C 4,6 C 4,8 km/h (1 Bft) 100,00 %
12.03.2016 18:28 4,7 C 84 % 1025,5 hPa 0,0 l/m 3,8 km/h (1 Bft) NO 43 0 min 0,000 mm 0,0 UV-I 0 W/m 2,2 C 4,7 C 6,4 km/h (2 Bft) 100,00 %
12.03.2016 18:29 4,7 C 85 % 1025,6 hPa 0,0 l/m 3,6 km/h (1 Bft) NO 43 0 min 0,000 mm 0,0 UV-I 0 W/m 2,4 C 4,7 C 4,8 km/h (1 Bft) 100,00 %
12.03.2016 18:30 4,7 C 85 % 1025,7 hPa 0,0 l/m 3,1 km/h (1 Bft) NO 42 0 min 0,000 mm 0,0 UV-I 0 W/m 2,4 C 4,7 C 6,4 km/h (2 Bft) 100,00 %
12.03.2016 18:31 4,7 C 85 % 1025,7 hPa 0,0 l/m 5,7 km/h (1 Bft) NO 55 0 min 0,000 mm 0,0 UV-I 0 W/m 2,4 C 4,7 C 8,0 km/h (2 Bft) 100,00 %
12.03.2016 18:32 4,7 C 85 % 1025,7 hPa 0,0 l/m 5,3 km/h (1 Bft) NO 36 0 min 0,000 mm 0,0 UV-I 0 W/m 2,4 C 4,7 C 6,4 km/h (2 Bft) 100,00 %
12.03.2016 18:33 4,6 C 85 % 1025,7 hPa 0,0 l/m 4,2 km/h (1 Bft) N-NO 25 0 min 0,000 mm 0,0 UV-I 0 W/m 2,3 C 4,6 C 6,4 km/h (2 Bft) 100,00 %
12.03.2016 18:34 4,6 C 85 % 1025,7 hPa 0,0 l/m 4,6 km/h (1 Bft) N-NO 28 0 min 0,000 mm 0,0 UV-I 0 W/m 2,3 C 4,6 C 4,8 km/h (1 Bft) 100,00 %
12.03.2016 18:35 4,6 C 85 % 1025,7 hPa 0,0 l/m 4,8 km/h (1 Bft) NO 38 0 min 0,000 mm 0,0 UV-I 0 W/m 2,3 C 4,6 C 8,0 km/h (2 Bft) 100,00 %
12.03.2016 18:36 4,6 C 85 % 1025,7 hPa 0,0 l/m 7,1 km/h (2 Bft) NO 34 0 min 0,000 mm 0,0 UV-I 0 W/m 2,3 C 4,0 C 12,9 km/h (3 Bft) 100,00 %
12.03.2016 18:37 4,6 C 85 % 1025,7 hPa 0,0 l/m 5,9 km/h (2 Bft) O-NO 59 0 min 0,000 mm 0,0 UV-I 0 W/m 2,3 C 4,6 C 6,4 km/h (2 Bft) 100,00 %
12.03.2016 18:38 4,6 C 85 % 1025,8 hPa 0,0 l/m 6,8 km/h (2 Bft) N-NO 21 0 min 0,000 mm 0,0 UV-I 0 W/m 2,3 C 4,3 C 8,0 km/h (2 Bft) 100,00 %
12.03.2016 18:39 4,6 C 85 % 1025,8 hPa 0,0 l/m 5,2 km/h (1 Bft) N-NO 24 0 min 0,000 mm 0,0 UV-I 0 W/m 2,3 C 4,6 C 8,0 km/h (2 Bft) 100,00 %
12.03.2016 18:40 4,6 C 85 % 1025,8 hPa 0,0 l/m 3,1 km/h (1 Bft) N-NO 27 0 min 0,000 mm 0,0 UV-I 0 W/m 2,3 C 4,6 C 4,8 km/h (1 Bft) 96,15 %
12.03.2016 18:41 4,6 C 85 % 1025,8 hPa 0,0 l/m 8,6 km/h (2 Bft) N-NO 25 0 min 0,000 mm 0,0 UV-I 0 W/m 2,3 C 2,7 C 14,5 km/h (3 Bft) 100,00 %
12.03.2016 18:42 4,6 C 85 % 1025,8 hPa 0,0 l/m 8,5 km/h (2 Bft) N-NO 26 0 min 0,000 mm 0,0 UV-I 0 W/m 2,3 C 2,8 C 12,9 km/h (3 Bft) 100,00 %
12.03.2016 18:43 4,6 C 85 % 1025,7 hPa 0,0 l/m 6,7 km/h (2 Bft) N-NO 18 0 min 0,000 mm 0,0 UV-I 0 W/m 2,3 C 4,3 C 9,7 km/h (2 Bft) 100,00 %
12.03.2016 18:44 4,6 C 85 % 1025,8 hPa 0,0 l/m 8,4 km/h (2 Bft) N-NO 22 0 min 0,000 mm 0,0 UV-I 0 W/m 2,3 C 2,9 C 12,9 km/h (3 Bft) 100,00 %
12.03.2016 18:45 4,6 C 85 % 1025,8 hPa 0,0 l/m 8,8 km/h (2 Bft) NO 34 0 min 0,000 mm 0,0 UV-I 0 W/m 2,3 C 2,5 C 12,9 km/h (3 Bft) 95,83 %
12.03.2016 18:46 4,5 C 85 % 1025,8 hPa 0,0 l/m 6,3 km/h (2 Bft) N-NO 15 0 min 0,000 mm 0,0 UV-I 0 W/m 2,2 C 4,5 C 9,7 km/h (2 Bft) 95,65 %
12.03.2016 18:47 4,5 C 85 % 1025,8 hPa 0,0 l/m 12,4 km/h (3 Bft) N-NO 29 0 min 0,000 mm 0,0 UV-I 0 W/m 2,2 C -0,1 C 14,5 km/h (3 Bft) 100,00 %
12.03.2016 18:48 4,5 C 85 % 1025,8 hPa 0,0 l/m 11,0 km/h (2 Bft) N 9 0 min 0,000 mm 0,0 UV-I 0 W/m 2,2 C 0,8 C 17,7 km/h (3 Bft) 95,65 %
12.03.2016 18:49 4,5 C 85 % 1025,8 hPa 0,0 l/m 9,1 km/h (2 Bft) N 9 0 min 0,000 mm 0,0 UV-I 0 W/m 2,2 C 2,2 C 14,5 km/h (3 Bft) 100,00 %
12.03.2016 18:50 4,5 C 85 % 1025,9 hPa 0,0 l/m 4,1 km/h (1 Bft) N-NO 26 0 min 0,000 mm 0,0 UV-I 0 W/m 2,2 C 4,5 C 8,0 km/h (2 Bft) 100,00 %
12.03.2016 18:51 4,5 C 85 % 1025,9 hPa 0,0 l/m 3,5 km/h (1 Bft) NO 35 0 min 0,000 mm 0,0 UV-I 0 W/m 2,2 C 4,5 C 6,4 km/h (2 Bft) 100,00 %
12.03.2016 18:52 4,5 C 86 % 1025,9 hPa 0,0 l/m 4,4 km/h (1 Bft) N-NO 27 0 min 0,000 mm 0,0 UV-I 0 W/m 2,4 C 4,5 C 8,0 km/h (2 Bft) 100,00 %
12.03.2016 18:53 4,4 C 85 % 1025,9 hPa 0,0 l/m 3,8 km/h (1 Bft) N-NO 25 0 min 0,000 mm 0,0 UV-I 0 W/m 2,1 C 4,4 C 8,0 km/h (2 Bft) 97,37 %
12.03.2016 18:54 4,4 C 85 % 1025,9 hPa 0,0 l/m 9,4 km/h (2 Bft) N-NO 25 0 min 0,000 mm 0,0 UV-I 0 W/m 2,1 C 1,9 C 12,9 km/h (3 Bft) 100,00 %
12.03.2016 18:55 4,4 C 85 % 1025,9 hPa 0,0 l/m 7,9 km/h (2 Bft) NO 34 0 min 0,000 mm 0,0 UV-I 0 W/m 2,1 C 3,1 C 12,9 km/h (3 Bft) 100,00 %
12.03.2016 18:56 4,4 C 85 % 1025,9 hPa 0,0 l/m 5,9 km/h (2 Bft) N-NO 17 0 min 0,000 mm 0,0 UV-I 0 W/m 2,1 C 4,4 C 8,0 km/h (2 Bft) 100,00 %
12.03.2016 18:57 4,4 C 85 % 1025,9 hPa 0,0 l/m 6,4 km/h (2 Bft) N-NO 16 0 min 0,000 mm 0,0 UV-I 0 W/m 2,1 C 4,4 C 8,0 km/h (2 Bft) 96,88 %
12.03.2016 18:58 4,4 C 86 % 1025,9 hPa 0,0 l/m 4,9 km/h (1 Bft) N-NO 15 0 min 0,000 mm 0,0 UV-I 0 W/m 2,3 C 4,4 C 6,4 km/h (2 Bft) 92,59 %
12.03.2016 18:59 4,4 C 86 % 1025,9 hPa 0,0 l/m 4,3 km/h (1 Bft) N-NO 24 0 min 0,000 mm 0,0 UV-I 0 W/m 2,3 C 4,4 C 6,4 km/h (2 Bft) 100,00 %
12.03.2016 19:00 4,4 C 86 % 1025,9 hPa 0,0 l/m 6,2 km/h (2 Bft) N 5 0 min 0,000 mm 0,0 UV-I 0 W/m 2,3 C 4,4 C 9,7 km/h (2 Bft) 95,65 %
12.03.2016 19:02 4,4 C 86 % 1026,0 hPa 0,0 l/m 4,2 km/h (1 Bft) NO 46 0 min 0,000 mm 0,0 UV-I 0 W/m 2,3 C 4,4 C 9,7 km/h (2 Bft) 97,62 %
12.03.2016 19:03 4,4 C 86 % 1026,0 hPa 0,0 l/m 3,7 km/h (1 Bft) NO 44 0 min 0,000 mm 0,0 UV-I 0 W/m 2,3 C 4,4 C 6,4 km/h (2 Bft) 96,15 %
12.03.2016 19:04 4,4 C 86 % 1026,0 hPa 0,0 l/m 3,9 km/h (1 Bft) N-NO 15 0 min 0,000 mm 0,0 UV-I 0 W/m 2,3 C 4,4 C 6,4 km/h (2 Bft) 100,00 %
12.03.2016 19:05 4,4 C 86 % 1026,0 hPa 0,0 l/m 5,6 km/h (1 Bft) N-NO 30 0 min 0,000 mm 0,0 UV-I 0 W/m 2,3 C 4,4 C 8,0 km/h (2 Bft) 85,71 %
12.03.2016 19:06 4,4 C 86 % 1026,0 hPa 0,0 l/m 3,6 km/h (1 Bft) N-NO 13 0 min 0,000 mm 0,0 UV-I 0 W/m 2,3 C 4,4 C 4,8 km/h (1 Bft) 100,00 %
12.03.2016 19:07 4,4 C 86 % 1026,0 hPa 0,0 l/m 3,3 km/h (1 Bft) N-NO 21 0 min 0,000 mm 0,0 UV-I 0 W/m 2,3 C 4,4 C 6,4 km/h (2 Bft) 95,65 %
12.03.2016 19:08 4,4 C 86 % 1026,0 hPa 0,0 l/m 2,5 km/h (1 Bft) N-NO 21 0 min 0,000 mm 0,0 UV-I 0 W/m 2,3 C 4,4 C 4,8 km/h (1 Bft) 100,00 %
12.03.2016 19:09 4,3 C 86 % 1026,0 hPa 0,0 l/m 5,4 km/h (1 Bft) N-NO 23 0 min 0,000 mm 0,0 UV-I 0 W/m 2,2 C 4,3 C 6,4 km/h (2 Bft) 92,31 %
12.03.2016 19:10 4,3 C 86 % 1026,0 hPa 0,0 l/m 3,3 km/h (1 Bft) N-NO 23 0 min 0,000 mm 0,0 UV-I 0 W/m 2,2 C 4,3 C 4,8 km/h (1 Bft) 95,83 %
12.03.2016 19:11 4,3 C 87 % 1026,0 hPa 0,0 l/m 0,6 km/h (0 Bft) N-NO 23 0 min 0,000 mm 0,0 UV-I 0 W/m 2,3 C 4,3 C 1,6 km/h (1 Bft) 100,00 %
12.03.2016 19:12 4,3 C 87 % 1026,0 hPa 0,0 l/m 1,5 km/h (1 Bft) N-NO 12 0 min 0,000 mm 0,0 UV-I 0 W/m 2,3 C 4,3 C 3,2 km/h (1 Bft) 93,33 %
12.03.2016 19:13 4,3 C 87 % 1026,0 hPa 0,0 l/m 0,7 km/h (0 Bft) N-NO 12 0 min 0,000 mm 0,0 UV-I 0 W/m 2,3 C 4,3 C 1,6 km/h (1 Bft) 100,00 %
12.03.2016 19:14 4,3 C 87 % 1026,0 hPa 0,0 l/m 1,2 km/h (1 Bft) N-NO 12 0 min 0,000 mm 0,0 UV-I 0 W/m 2,3 C 4,3 C 3,2 km/h (1 Bft) 95,83 %
12.03.2016 19:15 4,3 C 86 % 1026,0 hPa 0,0 l/m 0,5 km/h (0 Bft) N-NO 12 0 min 0,000 mm 0,0 UV-I 0 W/m 2,2 C 4,3 C 1,6 km/h (1 Bft) 100,00 %
12.03.2016 19:16 4,3 C 87 % 1026,0 hPa 0,0 l/m 1,4 km/h (1 Bft) N 11 0 min 0,000 mm 0,0 UV-I 0 W/m 2,3 C 4,3 C 3,2 km/h (1 Bft) 95,83 %
12.03.2016 19:17 4,3 C 87 % 1026,0 hPa 0,0 l/m 1,3 km/h (1 Bft) N-NO 13 0 min 0,000 mm 0,0 UV-I 0 W/m 2,3 C 4,3 C 3,2 km/h (1 Bft) 100,00 %
12.03.2016 19:18 4,3 C 87 % 1026,0 hPa 0,0 l/m 2,0 km/h (1 Bft) N-NO 14 0 min 0,000 mm 0,0 UV-I 0 W/m 2,3 C 4,3 C 4,8 km/h (1 Bft) 95,65 %
12.03.2016 19:19 4,3 C 87 % 1026,1 hPa 0,0 l/m 0,5 km/h (0 Bft) N-NO 14 0 min 0,000 mm 0,0 UV-I 0 W/m 2,3 C 4,3 C 1,6 km/h (1 Bft) 92,59 %
12.03.2016 19:20 4,3 C 87 % 1026,1 hPa 0,0 l/m 1,1 km/h (1 Bft) N-NO 14 0 min 0,000 mm 0,0 UV-I 0 W/m 2,3 C 4,3 C 3,2 km/h (1 Bft) 95,65 %
12.03.2016 19:21 4,3 C 87 % 1026,1 hPa 0,0 l/m 1,3 km/h (1 Bft) N-NO 14 0 min 0,000 mm 0,0 UV-I 0 W/m 2,3 C 4,3 C 3,2 km/h (1 Bft) 96,30 %
12.03.2016 19:22 4,3 C 87 % 1026,1 hPa 0,0 l/m 2,3 km/h (1 Bft) N-NO 20 0 min 0,000 mm 0,0 UV-I 0 W/m 2,3 C 4,3 C 4,8 km/h (1 Bft) 100,00 %
12.03.2016 19:23 4,3 C 87 % 1026,1 hPa 0,0 l/m 4,0 km/h (1 Bft) N-NO 28 0 min 0,000 mm 0,0 UV-I 0 W/m 2,3 C 4,3 C 6,4 km/h (2 Bft) 97,22 %
12.03.2016 19:24 4,3 C 87 % 1026,1 hPa 0,0 l/m 1,9 km/h (1 Bft) N 5 0 min 0,000 mm 0,0 UV-I 0 W/m 2,3 C 4,3 C 4,8 km/h (1 Bft) 100,00 %
12.03.2016 19:25 4,3 C 87 % 1026,1 hPa 0,0 l/m 3,8 km/h (1 Bft) N-NO 24 0 min 0,000 mm 0,0 UV-I 0 W/m 2,3 C 4,3 C 4,8 km/h (1 Bft) 96,30 %
12.03.2016 19:26 4,3 C 87 % 1026,1 hPa 0,0 l/m 3,5 km/h (1 Bft) N-NO 26 0 min 0,000 mm 0,0 UV-I 0 W/m 2,3 C 4,3 C 4,8 km/h (1 Bft) 96,15 %
12.03.2016 19:27 4,3 C 87 % 1026,1 hPa 0,0 l/m 3,9 km/h (1 Bft) N-NO 27 0 min 0,000 mm 0,0 UV-I 0 W/m 2,3 C 4,3 C 6,4 km/h (2 Bft) 91,67 %
12.03.2016 19:28 4,3 C 87 % 1026,1 hPa 0,0 l/m 0,1 km/h (0 Bft) N-NO 27 0 min 0,000 mm 0,0 UV-I 0 W/m 2,3 C 4,3 C 1,6 km/h (1 Bft) 100,00 %
12.03.2016 19:29 4,3 C 87 % 1026,2 hPa 0,0 l/m 0,9 km/h (0 Bft) N-NO 27 0 min 0,000 mm 0,0 UV-I 0 W/m 2,3 C 4,3 C 3,2 km/h (1 Bft) 95,83 %
12.03.2016 19:30 4,3 C 87 % 1026,1 hPa 0,0 l/m 2,7 km/h (1 Bft) N-NO 27 0 min 0,000 mm 0,0 UV-I 0 W/m 2,3 C 4,3 C 4,8 km/h (1 Bft) 95,65 %
12.03.2016 19:31 4,3 C 87 % 1026,2 hPa 0,0 l/m 1,5 km/h (1 Bft) N-NO 27 0 min 0,000 mm 0,0 UV-I 0 W/m 2,3 C 4,3 C 3,2 km/h (1 Bft) 100,00 %
12.03.2016 19:32 4,3 C 87 % 1026,2 hPa 0,0 l/m 1,0 km/h (0 Bft) N-NO 27 0 min 0,000 mm 0,0 UV-I 0 W/m 2,3 C 4,3 C 3,2 km/h (1 Bft) 96,55 %
12.03.2016 19:33 4,3 C 87 % 1026,2 hPa 0,0 l/m 0,7 km/h (0 Bft) N-NO 27 0 min 0,000 mm 0,0 UV-I 0 W/m 2,3 C 4,3 C 1,6 km/h (1 Bft) 100,00 %
12.03.2016 19:34 4,3 C 87 % 1026,2 hPa 0,0 l/m 0,2 km/h (0 Bft) N-NO 27 0 min 0,000 mm 0,0 UV-I 0 W/m 2,3 C 4,3 C 1,6 km/h (1 Bft) 91,67 %
12.03.2016 19:35 4,3 C 87 % 1026,2 hPa 0,0 l/m 0,1 km/h (0 Bft) N-NO 27 0 min 0,000 mm 0,0 UV-I 0 W/m 2,3 C 4,3 C 1,6 km/h (1 Bft) 100,00 %
12.03.2016 19:36 4,2 C 87 % 1026,2 hPa 0,0 l/m 0,1 km/h (0 Bft) N-NO 27 0 min 0,000 mm 0,0 UV-I 0 W/m 2,2 C 4,2 C 1,6 km/h (1 Bft) 100,00 %
12.03.2016 19:37 4,2 C 87 % 1026,2 hPa 0,0 l/m 0,3 km/h (0 Bft) N-NO 27 0 min 0,000 mm 0,0 UV-I 0 W/m 2,2 C 4,2 C 1,6 km/h (1 Bft) 100,00 %
12.03.2016 19:38 4,2 C 87 % 1026,2 hPa 0,0 l/m 1,3 km/h (1 Bft) N-NO 26 0 min 0,000 mm 0,0 UV-I 0 W/m 2,2 C 4,2 C 3,2 km/h (1 Bft) 100,00 %
12.03.2016 19:39 4,2 C 87 % 1026,2 hPa 0,0 l/m 1,8 km/h (1 Bft) N-NW 347 0 min 0,000 mm 0,0 UV-I 0 W/m 2,2 C 4,2 C 3,2 km/h (1 Bft) 96,15 %
12.03.2016 19:40 4,2 C 87 % 1026,2 hPa 0,0 l/m 0,7 km/h (0 Bft) N-NW 347 0 min 0,000 mm 0,0 UV-I 0 W/m 2,2 C 4,2 C 3,2 km/h (1 Bft) 100,00 %
12.03.2016 19:41 4,2 C 87 % 1026,3 hPa 0,0 l/m 0,2 km/h (0 Bft) N-NW 347 0 min 0,000 mm 0,0 UV-I 0 W/m 2,2 C 4,2 C 1,6 km/h (1 Bft) 92,31 %
12.03.2016 19:42 4,2 C 87 % 1026,3 hPa 0,0 l/m 0,1 km/h (0 Bft) N-NW 347 0 min 0,000 mm 0,0 UV-I 0 W/m 2,2 C 4,2 C 1,6 km/h (1 Bft) 100,00 %
12.03.2016 19:43 4,2 C 87 % 1026,3 hPa 0,0 l/m 0,1 km/h (0 Bft) N-NW 347 0 min 0,000 mm 0,0 UV-I 0 W/m 2,2 C 4,2 C 1,6 km/h (1 Bft) 96,15 %
12.03.2016 19:44 4,2 C 87 % 1026,3 hPa 0,0 l/m 0,3 km/h (0 Bft) N-NW 347 0 min 0,000 mm 0,0 UV-I 0 W/m 2,2 C 4,2 C 1,6 km/h (1 Bft) 100,00 %
12.03.2016 19:45 4,2 C 87 % 1026,3 hPa 0,0 l/m 0,4 km/h (0 Bft) N-NW 347 0 min 0,000 mm 0,0 UV-I 0 W/m 2,2 C 4,2 C 1,6 km/h (1 Bft) 100,00 %
12.03.2016 19:46 4,2 C 87 % 1026,3 hPa 0,0 l/m 0,0 km/h (0 Bft) N-NW 347 0 min 0,000 mm 0,0 UV-I 0 W/m 2,2 C 4,2 C 0,0 km/h (0 Bft) 100,00 %
12.03.2016 19:47 4,2 C 88 % 1026,3 hPa 0,0 l/m 0,0 km/h (0 Bft) N-NW 347 0 min 0,000 mm 0,0 UV-I 0 W/m 2,4 C 4,2 C 0,0 km/h (0 Bft) 100,00 %
12.03.2016 19:48 4,2 C 88 % 1026,3 hPa 0,0 l/m 0,1 km/h (0 Bft) N-NW 347 0 min 0,000 mm 0,0 UV-I 0 W/m 2,4 C 4,2 C 1,6 km/h (1 Bft) 100,00 %
12.03.2016 19:49 4,2 C 88 % 1026,2 hPa 0,0 l/m 0,0 km/h (0 Bft) N-NW 347 0 min 0,000 mm 0,0 UV-I 0 W/m 2,4 C 4,2 C 0,0 km/h (0 Bft) 100,00 %
12.03.2016 19:50 4,2 C 88 % 1026,3 hPa 0,0 l/m 0,0 km/h (0 Bft) N-NW 347 0 min 0,000 mm 0,0 UV-I 0 W/m 2,4 C 4,2 C 0,0 km/h (0 Bft) 100,00 %
12.03.2016 19:51 4,2 C 88 % 1026,3 hPa 0,0 l/m 0,1 km/h (0 Bft) N-NW 347 0 min 0,000 mm 0,0 UV-I 0 W/m 2,4 C 4,2 C 1,6 km/h (1 Bft) 100,00 %
12.03.2016 19:52 4,2 C 88 % 1026,3 hPa 0,0 l/m 0,0 km/h (0 Bft) N-NW 347 0 min 0,000 mm 0,0 UV-I 0 W/m 2,4 C 4,2 C 0,0 km/h (0 Bft) 83,33 %
12.03.2016 19:53 4,2 C 88 % 1026,2 hPa 0,0 l/m 0,1 km/h (0 Bft) N-NW 347 0 min 0,000 mm 0,0 UV-I 0 W/m 2,4 C 4,2 C 1,6 km/h (1 Bft) 100,00 %
12.03.2016 19:54 4,2 C 87 % 1026,3 hPa 0,0 l/m 0,0 km/h (0 Bft) N-NW 347 0 min 0,000 mm 0,0 UV-I 0 W/m 2,2 C 4,2 C 0,0 km/h (0 Bft) 95,65 %
12.03.2016 19:55 4,2 C 88 % 1026,4 hPa 0,0 l/m 0,0 km/h (0 Bft) N-NW 347 0 min 0,000 mm 0,0 UV-I 0 W/m 2,4 C 4,2 C 0,0 km/h (0 Bft) 100,00 %
12.03.2016 19:56 4,2 C 88 % 1026,3 hPa 0,0 l/m 0,0 km/h (0 Bft) N-NW 347 0 min 0,000 mm 0,0 UV-I 0 W/m 2,4 C 4,2 C 0,0 km/h (0 Bft) 100,00 %
12.03.2016 19:57 4,2 C 88 % 1026,3 hPa 0,0 l/m 0,0 km/h (0 Bft) N-NW 347 0 min 0,000 mm 0,0 UV-I 0 W/m 2,4 C 4,2 C 0,0 km/h (0 Bft) 100,00 %
12.03.2016 19:58 4,2 C 88 % 1026,3 hPa 0,0 l/m 0,0 km/h (0 Bft) N-NW 347 0 min 0,000 mm 0,0 UV-I 0 W/m 2,4 C 4,2 C 0,0 km/h (0 Bft) 100,00 %
12.03.2016 19:59 4,2 C 88 % 1026,3 hPa 0,0 l/m 0,0 km/h (0 Bft) N-NW 347 0 min 0,000 mm 0,0 UV-I 0 W/m 2,4 C 4,2 C 0,0 km/h (0 Bft) 100,00 %
12.03.2016 20:00 4,2 C 87 % 1026,3 hPa 0,0 l/m 0,0 km/h (0 Bft) N-NW 347 0 min 0,000 mm 0,0 UV-I 0 W/m 2,2 C 4,2 C 0,0 km/h (0 Bft) 95,65 %
12.03.2016 20:01 4,2 C 88 % 1026,3 hPa 0,0 l/m 0,0 km/h (0 Bft) N-NW 347 0 min 0,000 mm 0,0 UV-I 0 W/m 2,4 C 4,2 C 0,0 km/h (0 Bft) 100,00 %
12.03.2016 20:02 4,2 C 88 % 1026,3 hPa 0,0 l/m 0,0 km/h (0 Bft) N-NW 347 0 min 0,000 mm 0,0 UV-I 0 W/m 2,4 C 4,2 C 0,0 km/h (0 Bft) 95,65 %
12.03.2016 20:03 4,2 C 87 % 1026,4 hPa 0,0 l/m 0,0 km/h (0 Bft) N-NW 347 0 min 0,000 mm 0,0 UV-I 0 W/m 2,2 C 4,2 C 0,0 km/h (0 Bft) 100,00 %
12.03.2016 20:04 4,2 C 87 % 1026,3 hPa 0,0 l/m 0,0 km/h (0 Bft) N-NW 347 0 min 0,000 mm 0,0 UV-I 0 W/m 2,2 C 4,2 C 0,0 km/h (0 Bft) 100,00 %
12.03.2016 20:05 4,2 C 88 % 1026,3 hPa 0,0 l/m 0,0 km/h (0 Bft) N-NW 347 0 min 0,000 mm 0,0 UV-I 0 W/m 2,4 C 4,2 C 0,0 km/h (0 Bft) 100,00 %
12.03.2016 20:06 4,2 C 88 % 1026,3 hPa 0,0 l/m 0,0 km/h (0 Bft) N-NW 347 0 min 0,000 mm 0,0 UV-I 0 W/m 2,4 C 4,2 C 0,0 km/h (0 Bft) 100,00 %
12.03.2016 20:07 4,2 C 88 % 1026,3 hPa 0,0 l/m 0,0 km/h (0 Bft) N-NW 347 0 min 0,000 mm 0,0 UV-I 0 W/m 2,4 C 4,2 C 0,0 km/h (0 Bft) 100,00 %
12.03.2016 20:08 4,2 C 88 % 1026,4 hPa 0,0 l/m 0,0 km/h (0 Bft) N-NW 347 0 min 0,000 mm 0,0 UV-I 0 W/m 2,4 C 4,2 C 0,0 km/h (0 Bft) 100,00 %
12.03.2016 20:09 4,2 C 88 % 1026,4 hPa 0,0 l/m 0,0 km/h (0 Bft) N-NW 347 0 min 0,000 mm 0,0 UV-I 0 W/m 2,4 C 4,2 C 0,0 km/h (0 Bft) 100,00 %
12.03.2016 20:10 4,2 C 88 % 1026,4 hPa 0,0 l/m 0,0 km/h (0 Bft) N-NW 347 0 min 0,000 mm 0,0 UV-I 0 W/m 2,4 C 4,2 C 0,0 km/h (0 Bft) 100,00 %
12.03.2016 20:11 4,2 C 88 % 1026,4 hPa 0,0 l/m 1,0 km/h (0 Bft) N-NW 347 0 min 0,000 mm 0,0 UV-I 0 W/m 2,4 C 4,2 C 3,2 km/h (1 Bft) 100,00 %
12.03.2016 20:12 4,2 C 88 % 1026,4 hPa 0,0 l/m 0,8 km/h (0 Bft) N-NW 347 0 min 0,000 mm 0,0 UV-I 0 W/m 2,4 C 4,2 C 1,6 km/h (1 Bft) 100,00 %
12.03.2016 20:13 4,2 C 88 % 1026,4 hPa 0,0 l/m 0,0 km/h (0 Bft) N-NW 347 0 min 0,000 mm 0,0 UV-I 0 W/m 2,4 C 4,2 C 0,0 km/h (0 Bft) 100,00 %
12.03.2016 20:14 4,2 C 89 % 1026,4 hPa 0,0 l/m 0,6 km/h (0 Bft) N-NW 347 0 min 0,000 mm 0,0 UV-I 0 W/m 2,6 C 4,2 C 1,6 km/h (1 Bft) 100,00 %
12.03.2016 20:15 4,2 C 88 % 1026,4 hPa 0,0 l/m 0,7 km/h (0 Bft) N-NW 347 0 min 0,000 mm 0,0 UV-I 0 W/m 2,4 C 4,2 C 1,6 km/h (1 Bft) 100,00 %
12.03.2016 20:16 4,2 C 88 % 1026,4 hPa 0,0 l/m 0,1 km/h (0 Bft) N-NW 347 0 min 0,000 mm 0,0 UV-I 0 W/m 2,4 C 4,2 C 1,6 km/h (1 Bft) 100,00 %
12.03.2016 20:17 4,2 C 88 % 1026,5 hPa 0,0 l/m 0,0 km/h (0 Bft) N-NW 347 0 min 0,000 mm 0,0 UV-I 0 W/m 2,4 C 4,2 C 0,0 km/h (0 Bft) 100,00 %
12.03.2016 20:18 4,2 C 88 % 1026,4 hPa 0,0 l/m 0,0 km/h (0 Bft) N-NW 347 0 min 0,000 mm 0,0 UV-I 0 W/m 2,4 C 4,2 C 0,0 km/h (0 Bft) 100,00 %
12.03.2016 20:19 4,2 C 88 % 1026,4 hPa 0,0 l/m 0,2 km/h (0 Bft) N-NW 346 0 min 0,000 mm 0,0 UV-I 0 W/m 2,4 C 4,2 C 1,6 km/h (1 Bft) 100,00 %
12.03.2016 20:20 4,2 C 88 % 1026,4 hPa 0,0 l/m 0,4 km/h (0 Bft) N-NW 346 0 min 0,000 mm 0,0 UV-I 0 W/m 2,4 C 4,2 C 1,6 km/h (1 Bft) 100,00 %
12.03.2016 20:21 4,2 C 88 % 1026,5 hPa 0,0 l/m 1,0 km/h (0 Bft) N-NW 346 0 min 0,000 mm 0,0 UV-I 0 W/m 2,4 C 4,2 C 3,2 km/h (1 Bft) 100,00 %
12.03.2016 20:22 4,1 C 88 % 1026,4 hPa 0,0 l/m 1,1 km/h (1 Bft) N-NW 346 0 min 0,000 mm 0,0 UV-I 0 W/m 2,3 C 4,1 C 3,2 km/h (1 Bft) 100,00 %
12.03.2016 20:23 4,2 C 88 % 1026,5 hPa 0,0 l/m 0,2 km/h (0 Bft) N 355 0 min 0,000 mm 0,0 UV-I 0 W/m 2,4 C 4,2 C 1,6 km/h (1 Bft) 100,00 %
12.03.2016 20:24 4,2 C 88 % 1026,4 hPa 0,0 l/m 0,7 km/h (0 Bft) N 355 0 min 0,000 mm 0,0 UV-I 0 W/m 2,4 C 4,2 C 1,6 km/h (1 Bft) 100,00 %
12.03.2016 20:25 4,2 C 88 % 1026,5 hPa 0,0 l/m 0,2 km/h (0 Bft) N 355 0 min 0,000 mm 0,0 UV-I 0 W/m 2,4 C 4,2 C 1,6 km/h (1 Bft) 100,00 %
12.03.2016 20:26 4,2 C 88 % 1026,5 hPa 0,0 l/m 0,1 km/h (0 Bft) N 355 0 min 0,000 mm 0,0 UV-I 0 W/m 2,4 C 4,2 C 1,6 km/h (1 Bft) 100,00 %
12.03.2016 20:27 4,2 C 88 % 1026,5 hPa 0,0 l/m 0,0 km/h (0 Bft) N 355 0 min 0,000 mm 0,0 UV-I 0 W/m 2,4 C 4,2 C 0,0 km/h (0 Bft) 95,65 %
12.03.2016 20:28 4,2 C 88 % 1026,5 hPa 0,0 l/m 0,1 km/h (0 Bft) N 355 0 min 0,000 mm 0,0 UV-I 0 W/m 2,4 C 4,2 C 1,6 km/h (1 Bft) 100,00 %
12.03.2016 20:29 4,2 C 88 % 1026,5 hPa 0,0 l/m 0,0 km/h (0 Bft) N 355 0 min 0,000 mm 0,0 UV-I 0 W/m 2,4 C 4,2 C 0,0 km/h (0 Bft) 100,00 %
12.03.2016 20:30 4,2 C 88 % 1026,5 hPa 0,0 l/m 0,2 km/h (0 Bft) N 355 0 min 0,000 mm 0,0 UV-I 0 W/m 2,4 C 4,2 C 1,6 km/h (1 Bft) 100,00 %
12.03.2016 20:31 4,2 C 88 % 1026,5 hPa 0,0 l/m 0,5 km/h (0 Bft) N 355 0 min 0,000 mm 0,0 UV-I 0 W/m 2,4 C 4,2 C 1,6 km/h (1 Bft) 100,00 %
12.03.2016 20:32 4,2 C 88 % 1026,5 hPa 0,0 l/m 1,4 km/h (1 Bft) N 355 0 min 0,000 mm 0,0 UV-I 0 W/m 2,4 C 4,2 C 3,2 km/h (1 Bft) 100,00 %
12.03.2016 20:33 4,2 C 88 % 1026,5 hPa 0,0 l/m 2,0 km/h (1 Bft) N 355 0 min 0,000 mm 0,0 UV-I 0 W/m 2,4 C 4,2 C 3,2 km/h (1 Bft) 100,00 %
12.03.2016 20:34 4,2 C 88 % 1026,6 hPa 0,0 l/m 2,1 km/h (1 Bft) N 11 0 min 0,000 mm 0,0 UV-I 0 W/m 2,4 C 4,2 C 4,8 km/h (1 Bft) 100,00 %
12.03.2016 20:35 4,2 C 88 % 1026,5 hPa 0,0 l/m 0,5 km/h (0 Bft) N 11 0 min 0,000 mm 0,0 UV-I 0 W/m 2,4 C 4,2 C 1,6 km/h (1 Bft) 100,00 %
12.03.2016 20:36 4,2 C 88 % 1026,5 hPa 0,0 l/m 1,0 km/h (0 Bft) N 11 0 min 0,000 mm 0,0 UV-I 0 W/m 2,4 C 4,2 C 1,6 km/h (1 Bft) 100,00 %
12.03.2016 20:37 4,2 C 88 % 1026,6 hPa 0,0 l/m 0,6 km/h (0 Bft) N 11 0 min 0,000 mm 0,0 UV-I 0 W/m 2,4 C 4,2 C 1,6 km/h (1 Bft) 100,00 %
12.03.2016 20:38 4,2 C 88 % 1026,6 hPa 0,0 l/m 0,9 km/h (0 Bft) N 11 0 min 0,000 mm 0,0 UV-I 0 W/m 2,4 C 4,2 C 3,2 km/h (1 Bft) 96,15 %
12.03.2016 20:39 4,2 C 89 % 1026,5 hPa 0,0 l/m 0,9 km/h (0 Bft) N 11 0 min 0,000 mm 0,0 UV-I 0 W/m 2,6 C 4,2 C 1,6 km/h (1 Bft) 100,00 %
12.03.2016 20:40 4,2 C 88 % 1026,6 hPa 0,0 l/m 1,1 km/h (1 Bft) N 11 0 min 0,000 mm 0,0 UV-I 0 W/m 2,4 C 4,2 C 1,6 km/h (1 Bft) 100,00 %
12.03.2016 20:41 4,2 C 88 % 1026,5 hPa 0,0 l/m 1,9 km/h (1 Bft) N 10 0 min 0,000 mm 0,0 UV-I 0 W/m 2,4 C 4,2 C 3,2 km/h (1 Bft) 100,00 %
12.03.2016 20:42 4,2 C 89 % 1026,6 hPa 0,0 l/m 1,3 km/h (1 Bft) N 9 0 min 0,000 mm 0,0 UV-I 0 W/m 2,6 C 4,2 C 3,2 km/h (1 Bft) 96,15 %
12.03.2016 20:43 4,2 C 88 % 1026,6 hPa 0,0 l/m 3,1 km/h (1 Bft) N-NO 24 0 min 0,000 mm 0,0 UV-I 0 W/m 2,4 C 4,2 C 4,8 km/h (1 Bft) 100,00 %
12.03.2016 20:44 4,2 C 89 % 1026,6 hPa 0,0 l/m 1,7 km/h (1 Bft) N-NO 24 0 min 0,000 mm 0,0 UV-I 0 W/m 2,6 C 4,2 C 3,2 km/h (1 Bft) 100,00 %
12.03.2016 20:45 4,2 C 88 % 1026,6 hPa 0,0 l/m 3,8 km/h (1 Bft) N-NO 26 0 min 0,000 mm 0,0 UV-I 0 W/m 2,4 C 4,2 C 6,4 km/h (2 Bft) 98,54 %
12.03.2016 20:46 4,2 C 88 % 1026,6 hPa 0,0 l/m 1,9 km/h (1 Bft) N-NO 24 0 min 0,000 mm 0,0 UV-I 0 W/m 2,4 C 4,2 C 3,2 km/h (1 Bft) 100,00 %
12.03.2016 20:47 4,2 C 88 % 1026,6 hPa 0,0 l/m 2,0 km/h (1 Bft) N-NO 24 0 min 0,000 mm 0,0 UV-I 0 W/m 2,4 C 4,2 C 4,8 km/h (1 Bft) 100,00 %
12.03.2016 20:48 4,2 C 88 % 1026,6 hPa 0,0 l/m 1,5 km/h (1 Bft) N-NO 24 0 min 0,000 mm 0,0 UV-I 0 W/m 2,4 C 4,2 C 4,8 km/h (1 Bft) 100,00 %
12.03.2016 20:49 4,2 C 88 % 1026,6 hPa 0,0 l/m 1,9 km/h (1 Bft) N-NO 24 0 min 0,000 mm 0,0 UV-I 0 W/m 2,4 C 4,2 C 4,8 km/h (1 Bft) 100,00 %
12.03.2016 20:50 4,2 C 88 % 1026,6 hPa 0,0 l/m 1,3 km/h (1 Bft) N-NO 18 0 min 0,000 mm 0,0 UV-I 0 W/m 2,4 C 4,2 C 3,2 km/h (1 Bft) 100,00 %
12.03.2016 20:51 4,2 C 89 % 1026,5 hPa 0,0 l/m 1,1 km/h (1 Bft) N-NO 19 0 min 0,000 mm 0,0 UV-I 0 W/m 2,6 C 4,2 C 3,2 km/h (1 Bft) 100,00 %
12.03.2016 20:52 4,2 C 89 % 1026,6 hPa 0,0 l/m 1,9 km/h (1 Bft) N-NO 19 0 min 0,000 mm 0,0 UV-I 0 W/m 2,6 C 4,2 C 3,2 km/h (1 Bft) 100,00 %
12.03.2016 20:53 4,2 C 89 % 1026,6 hPa 0,0 l/m 3,6 km/h (1 Bft) N-NO 22 0 min 0,000 mm 0,0 UV-I 0 W/m 2,6 C 4,2 C 4,8 km/h (1 Bft) 95,83 %
12.03.2016 20:54 4,2 C 88 % 1026,6 hPa 0,0 l/m 3,3 km/h (1 Bft) N-NO 22 0 min 0,000 mm 0,0 UV-I 0 W/m 2,4 C 4,2 C 4,8 km/h (1 Bft) 91,30 %
12.03.2016 20:55 4,2 C 88 % 1026,6 hPa 0,0 l/m 3,9 km/h (1 Bft) N-NO 28 0 min 0,000 mm 0,0 UV-I 0 W/m 2,4 C 4,2 C 4,8 km/h (1 Bft) 100,00 %
12.03.2016 20:56 4,2 C 88 % 1026,6 hPa 0,0 l/m 4,5 km/h (1 Bft) N-NO 26 0 min 0,000 mm 0,0 UV-I 0 W/m 2,4 C 4,2 C 6,4 km/h (2 Bft) 100,00 %
12.03.2016 20:57 4,2 C 88 % 1026,5 hPa 0,0 l/m 2,7 km/h (1 Bft) N-NO 26 0 min 0,000 mm 0,0 UV-I 0 W/m 2,4 C 4,2 C 4,8 km/h (1 Bft) 100,00 %
12.03.2016 20:58 4,2 C 88 % 1026,6 hPa 0,0 l/m 4,1 km/h (1 Bft) N-NO 26 0 min 0,000 mm 0,0 UV-I 0 W/m 2,4 C 4,2 C 4,8 km/h (1 Bft) 100,00 %
12.03.2016 20:59 4,2 C 89 % 1026,6 hPa 0,0 l/m 2,7 km/h (1 Bft) N-NO 26 0 min 0,000 mm 0,0 UV-I 0 W/m 2,6 C 4,2 C 4,8 km/h (1 Bft) 100,00 %
12.03.2016 21:00 4,2 C 89 % 1026,6 hPa 0,0 l/m 2,7 km/h (1 Bft) N-NO 26 0 min 0,000 mm 0,0 UV-I 0 W/m 2,6 C 4,2 C 4,8 km/h (1 Bft) 100,00 %
12.03.2016 21:01 4,2 C 89 % 1026,6 hPa 0,0 l/m 2,9 km/h (1 Bft) N-NO 26 0 min 0,000 mm 0,0 UV-I 0 W/m 2,6 C 4,2 C 3,2 km/h (1 Bft) 95,83 %
12.03.2016 21:02 4,2 C 89 % 1026,7 hPa 0,0 l/m 2,7 km/h (1 Bft) N-NO 26 0 min 0,000 mm 0,0 UV-I 0 W/m 2,6 C 4,2 C 4,8 km/h (1 Bft) 100,00 %
12.03.2016 21:03 4,2 C 89 % 1026,6 hPa 0,0 l/m 4,5 km/h (1 Bft) NO 42 0 min 0,000 mm 0,0 UV-I 0 W/m 2,6 C 4,2 C 6,4 km/h (2 Bft) 100,00 %
12.03.2016 21:04 4,1 C 89 % 1026,7 hPa 0,0 l/m 4,4 km/h (1 Bft) N-NO 29 0 min 0,000 mm 0,0 UV-I 0 W/m 2,5 C 4,1 C 6,4 km/h (2 Bft) 96,30 %
12.03.2016 21:05 4,1 C 89 % 1026,6 hPa 0,0 l/m 4,5 km/h (1 Bft) N-NO 19 0 min 0,000 mm 0,0 UV-I 0 W/m 2,5 C 4,1 C 6,4 km/h (2 Bft) 96,15 %
12.03.2016 21:06 4,1 C 89 % 1026,6 hPa 0,0 l/m 5,6 km/h (1 Bft) N-NO 32 0 min 0,000 mm 0,0 UV-I 0 W/m 2,5 C 4,1 C 6,4 km/h (2 Bft) 100,00 %
12.03.2016 21:07 4,1 C 89 % 1026,7 hPa 0,0 l/m 4,8 km/h (1 Bft) NO 42 0 min 0,000 mm 0,0 UV-I 0 W/m 2,5 C 4,1 C 6,4 km/h (2 Bft) 95,65 %
12.03.2016 21:08 4,1 C 89 % 1026,7 hPa 0,0 l/m 4,0 km/h (1 Bft) NO 52 0 min 0,000 mm 0,0 UV-I 0 W/m 2,5 C 4,1 C 6,4 km/h (2 Bft) 100,00 %
12.03.2016 21:09 4,1 C 89 % 1026,7 hPa 0,0 l/m 3,9 km/h (1 Bft) N-NO 32 0 min 0,000 mm 0,0 UV-I 0 W/m 2,5 C 4,1 C 6,4 km/h (2 Bft) 96,15 %
12.03.2016 21:10 4,1 C 89 % 1026,7 hPa 0,0 l/m 5,0 km/h (1 Bft) NO 34 0 min 0,000 mm 0,0 UV-I 0 W/m 2,5 C 4,1 C 8,0 km/h (2 Bft) 100,00 %
12.03.2016 21:11 4,1 C 89 % 1026,7 hPa 0,0 l/m 5,5 km/h (1 Bft) N-NO 32 0 min 0,000 mm 0,0 UV-I 0 W/m 2,5 C 4,1 C 8,0 km/h (2 Bft) 96,15 %
12.03.2016 21:12 4,1 C 89 % 1026,7 hPa 0,0 l/m 4,8 km/h (1 Bft) N-NO 26 0 min 0,000 mm 0,0 UV-I 0 W/m 2,5 C 4,1 C 6,4 km/h (2 Bft) 95,83 %
12.03.2016 21:13 4,1 C 89 % 1026,7 hPa 0,0 l/m 5,5 km/h (1 Bft) NO 51 0 min 0,000 mm 0,0 UV-I 0 W/m 2,5 C 4,1 C 8,0 km/h (2 Bft) 100,00 %
12.03.2016 21:14 4,1 C 89 % 1026,7 hPa 0,0 l/m 6,3 km/h (2 Bft) NO 36 0 min 0,000 mm 0,0 UV-I 0 W/m 2,5 C 4,1 C 8,0 km/h (2 Bft) 93,33 %
12.03.2016 21:15 4,1 C 89 % 1026,7 hPa 0,0 l/m 3,9 km/h (1 Bft) N-NO 22 0 min 0,000 mm 0,0 UV-I 0 W/m 2,5 C 4,1 C 4,8 km/h (1 Bft) 100,00 %
12.03.2016 21:16 4,1 C 89 % 1026,7 hPa 0,0 l/m 7,2 km/h (2 Bft) NO 37 0 min 0,000 mm 0,0 UV-I 0 W/m 2,5 C 3,4 C 14,5 km/h (3 Bft) 96,55 %
12.03.2016 21:17 4,1 C 90 % 1026,7 hPa 0,0 l/m 9,9 km/h (2 Bft) N-NO 19 0 min 0,000 mm 0,0 UV-I 0 W/m 2,6 C 1,2 C 14,5 km/h (3 Bft) 100,00 %
12.03.2016 21:18 4,1 C 89 % 1026,7 hPa 0,0 l/m 6,6 km/h (2 Bft) N-NO 28 0 min 0,000 mm 0,0 UV-I 0 W/m 2,5 C 3,9 C 9,7 km/h (2 Bft) 96,15 %
12.03.2016 21:19 4,1 C 90 % 1026,7 hPa 0,0 l/m 5,4 km/h (1 Bft) N-NO 17 0 min 0,000 mm 0,0 UV-I 0 W/m 2,6 C 4,1 C 8,0 km/h (2 Bft) 100,00 %
12.03.2016 21:20 4,1 C 90 % 1026,7 hPa 0,0 l/m 5,8 km/h (2 Bft) N-NO 23 0 min 0,000 mm 0,0 UV-I 0 W/m 2,6 C 4,1 C 8,0 km/h (2 Bft) 91,30 %
12.03.2016 21:21 4,1 C 90 % 1026,7 hPa 0,0 l/m 4,7 km/h (1 Bft) NO 40 0 min 0,000 mm 0,0 UV-I 0 W/m 2,6 C 4,1 C 8,0 km/h (2 Bft) 96,30 %
12.03.2016 21:22 4,1 C 90 % 1026,7 hPa 0,0 l/m 4,8 km/h (1 Bft) N-NO 24 0 min 0,000 mm 0,0 UV-I 0 W/m 2,6 C 4,1 C 8,0 km/h (2 Bft) 100,00 %
12.03.2016 21:23 4,1 C 90 % 1026,7 hPa 0,0 l/m 5,1 km/h (1 Bft) N-NO 32 0 min 0,000 mm 0,0 UV-I 0 W/m 2,6 C 4,1 C 6,4 km/h (2 Bft) 96,30 %
12.03.2016 21:24 4,1 C 90 % 1026,7 hPa 0,0 l/m 5,3 km/h (1 Bft) N-NO 27 0 min 0,000 mm 0,0 UV-I 0 W/m 2,6 C 4,1 C 6,4 km/h (2 Bft) 100,00 %
12.03.2016 21:25 4,1 C 90 % 1026,7 hPa 0,0 l/m 4,5 km/h (1 Bft) N-NO 18 0 min 0,000 mm 0,0 UV-I 0 W/m 2,6 C 4,1 C 6,4 km/h (2 Bft) 96,30 %
12.03.2016 21:26 4,1 C 90 % 1026,7 hPa 0,0 l/m 2,9 km/h (1 Bft) N-NO 28 0 min 0,000 mm 0,0 UV-I 0 W/m 2,6 C 4,1 C 4,8 km/h (1 Bft) 100,00 %
12.03.2016 21:27 4,1 C 90 % 1026,7 hPa 0,0 l/m 4,1 km/h (1 Bft) NO 38 0 min 0,000 mm 0,0 UV-I 0 W/m 2,6 C 4,1 C 6,4 km/h (2 Bft) 96,30 %
12.03.2016 21:28 4,1 C 90 % 1026,7 hPa 0,0 l/m 3,4 km/h (1 Bft) NO 38 0 min 0,000 mm 0,0 UV-I 0 W/m 2,6 C 4,1 C 4,8 km/h (1 Bft) 100,00 %
12.03.2016 21:29 4,1 C 90 % 1026,7 hPa 0,0 l/m 4,0 km/h (1 Bft) NO 38 0 min 0,000 mm 0,0 UV-I 0 W/m 2,6 C 4,1 C 4,8 km/h (1 Bft) 95,83 %
12.03.2016 21:30 4,1 C 90 % 1026,7 hPa 0,0 l/m 3,2 km/h (1 Bft) NO 38 0 min 0,000 mm 0,0 UV-I 0 W/m 2,6 C 4,1 C 4,8 km/h (1 Bft) 95,65 %
12.03.2016 21:31 4,1 C 90 % 1026,7 hPa 0,0 l/m 2,7 km/h (1 Bft) NO 38 0 min 0,000 mm 0,0 UV-I 0 W/m 2,6 C 4,1 C 3,2 km/h (1 Bft) 100,00 %
12.03.2016 21:32 4,0 C 90 % 1026,7 hPa 0,0 l/m 2,5 km/h (1 Bft) NO 38 0 min 0,000 mm 0,0 UV-I 0 W/m 2,5 C 4,0 C 4,8 km/h (1 Bft) 95,65 %
12.03.2016 21:33 4,0 C 90 % 1026,7 hPa 0,0 l/m 1,9 km/h (1 Bft) NO 38 0 min 0,000 mm 0,0 UV-I 0 W/m 2,5 C 4,0 C 3,2 km/h (1 Bft) 100,00 %
12.03.2016 21:34 4,1 C 90 % 1026,7 hPa 0,0 l/m 2,6 km/h (1 Bft) NO 38 0 min 0,000 mm 0,0 UV-I 0 W/m 2,6 C 4,1 C 3,2 km/h (1 Bft) 92,31 %
12.03.2016 21:35 4,0 C 91 % 1026,7 hPa 0,0 l/m 1,5 km/h (1 Bft) NO 38 0 min 0,000 mm 0,0 UV-I 0 W/m 2,7 C 4,0 C 3,2 km/h (1 Bft) 100,00 %
12.03.2016 21:36 4,0 C 91 % 1026,7 hPa 0,0 l/m 1,0 km/h (0 Bft) NO 38 0 min 0,000 mm 0,0 UV-I 0 W/m 2,7 C 4,0 C 1,6 km/h (1 Bft) 93,33 %
12.03.2016 21:37 4,0 C 91 % 1026,7 hPa 0,0 l/m 2,1 km/h (1 Bft) NO 38 0 min 0,000 mm 0,0 UV-I 0 W/m 2,7 C 4,0 C 3,2 km/h (1 Bft) 100,00 %
12.03.2016 21:38 3,9 C 91 % 1026,7 hPa 0,0 l/m 2,3 km/h (1 Bft) NO 38 0 min 0,000 mm 0,0 UV-I 0 W/m 2,6 C 3,9 C 3,2 km/h (1 Bft) 100,00 %
12.03.2016 21:39 3,9 C 91 % 1026,7 hPa 0,0 l/m 1,9 km/h (1 Bft) NO 38 0 min 0,000 mm 0,0 UV-I 0 W/m 2,6 C 3,9 C 3,2 km/h (1 Bft) 96,15 %
12.03.2016 21:40 3,9 C 91 % 1026,7 hPa 0,0 l/m 2,5 km/h (1 Bft) NO 46 0 min 0,000 mm 0,0 UV-I 0 W/m 2,6 C 3,9 C 3,2 km/h (1 Bft) 100,00 %
12.03.2016 21:41 3,9 C 91 % 1026,7 hPa 0,0 l/m 0,8 km/h (0 Bft) NO 46 0 min 0,000 mm 0,0 UV-I 0 W/m 2,6 C 3,9 C 1,6 km/h (1 Bft) 100,00 %
12.03.2016 21:42 3,9 C 91 % 1026,6 hPa 0,0 l/m 0,7 km/h (0 Bft) NO 46 0 min 0,000 mm 0,0 UV-I 0 W/m 2,6 C 3,9 C 1,6 km/h (1 Bft) 95,83 %
12.03.2016 21:43 3,9 C 91 % 1026,7 hPa 0,0 l/m 1,6 km/h (1 Bft) NO 46 0 min 0,000 mm 0,0 UV-I 0 W/m 2,6 C 3,9 C 1,6 km/h (1 Bft) 100,00 %
12.03.2016 21:44 3,9 C 91 % 1026,7 hPa 0,0 l/m 0,5 km/h (0 Bft) NO 46 0 min 0,000 mm 0,0 UV-I 0 W/m 2,6 C 3,9 C 1,6 km/h (1 Bft) 100,00 %
12.03.2016 21:45 3,9 C 91 % 1026,7 hPa 0,0 l/m 0,1 km/h (0 Bft) NO 46 0 min 0,000 mm 0,0 UV-I 0 W/m 2,6 C 3,9 C 1,6 km/h (1 Bft) 100,00 %
12.03.2016 21:46 3,9 C 91 % 1026,7 hPa 0,0 l/m 0,0 km/h (0 Bft) NO 46 0 min 0,000 mm 0,0 UV-I 0 W/m 2,6 C 3,9 C 0,0 km/h (0 Bft) 100,00 %
12.03.2016 21:47 3,9 C 91 % 1026,6 hPa 0,0 l/m 0,8 km/h (0 Bft) NO 46 0 min 0,000 mm 0,0 UV-I 0 W/m 2,6 C 3,9 C 1,6 km/h (1 Bft) 100,00 %
12.03.2016 21:48 3,9 C 92 % 1026,6 hPa 0,0 l/m 0,4 km/h (0 Bft) NO 46 0 min 0,000 mm 0,0 UV-I 0 W/m 2,7 C 3,9 C 1,6 km/h (1 Bft) 96,30 %
12.03.2016 21:49 3,9 C 92 % 1026,6 hPa 0,0 l/m 0,0 km/h (0 Bft) NO 46 0 min 0,000 mm 0,0 UV-I 0 W/m 2,7 C 3,9 C 0,0 km/h (0 Bft) 100,00 %
12.03.2016 21:50 3,8 C 92 % 1026,7 hPa 0,0 l/m 1,4 km/h (1 Bft) NO 46 0 min 0,000 mm 0,0 UV-I 0 W/m 2,6 C 3,8 C 1,6 km/h (1 Bft) 100,00 %
12.03.2016 21:51 3,8 C 92 % 1026,7 hPa 0,0 l/m 0,5 km/h (0 Bft) NO 46 0 min 0,000 mm 0,0 UV-I 0 W/m 2,6 C 3,8 C 1,6 km/h (1 Bft) 100,00 %
12.03.2016 21:52 3,8 C 92 % 1026,7 hPa 0,0 l/m 0,0 km/h (0 Bft) NO 46 0 min 0,000 mm 0,0 UV-I 0 W/m 2,6 C 3,8 C 0,0 km/h (0 Bft) 100,00 %
12.03.2016 21:53 3,8 C 92 % 1026,7 hPa 0,0 l/m 0,0 km/h (0 Bft) NO 46 0 min 0,000 mm 0,0 UV-I 0 W/m 2,6 C 3,8 C 0,0 km/h (0 Bft) 100,00 %
12.03.2016 21:54 3,8 C 92 % 1026,7 hPa 0,0 l/m 0,0 km/h (0 Bft) NO 46 0 min 0,000 mm 0,0 UV-I 0 W/m 2,6 C 3,8 C 0,0 km/h (0 Bft) 100,00 %
12.03.2016 21:55 3,8 C 92 % 1026,6 hPa 0,0 l/m 0,3 km/h (0 Bft) NO 46 0 min 0,000 mm 0,0 UV-I 0 W/m 2,6 C 3,8 C 1,6 km/h (1 Bft) 100,00 %
12.03.2016 21:56 3,8 C 92 % 1026,6 hPa 0,0 l/m 0,5 km/h (0 Bft) NO 46 0 min 0,000 mm 0,0 UV-I 0 W/m 2,6 C 3,8 C 1,6 km/h (1 Bft) 100,00 %
12.03.2016 21:57 3,8 C 92 % 1026,6 hPa 0,0 l/m 0,0 km/h (0 Bft) NO 46 0 min 0,000 mm 0,0 UV-I 0 W/m 2,6 C 3,8 C 0,0 km/h (0 Bft) 100,00 %
12.03.2016 21:58 3,8 C 92 % 1026,6 hPa 0,0 l/m 0,0 km/h (0 Bft) NO 46 0 min 0,000 mm 0,0 UV-I 0 W/m 2,6 C 3,8 C 0,0 km/h (0 Bft) 100,00 %
12.03.2016 21:59 3,8 C 92 % 1026,6 hPa 0,0 l/m 0,0 km/h (0 Bft) NO 46 0 min 0,000 mm 0,0 UV-I 0 W/m 2,6 C 3,8 C 0,0 km/h (0 Bft) 100,00 %
12.03.2016 22:00 3,8 C 92 % 1026,6 hPa 0,0 l/m 0,1 km/h (0 Bft) NO 46 0 min 0,000 mm 0,0 UV-I 0 W/m 2,6 C 3,8 C 1,6 km/h (1 Bft) 100,00 %
12.03.2016 22:01 3,8 C 92 % 1026,6 hPa 0,0 l/m 0,0 km/h (0 Bft) NO 46 0 min 0,000 mm 0,0 UV-I 0 W/m 2,6 C 3,8 C 0,0 km/h (0 Bft) 100,00 %
12.03.2016 22:02 3,8 C 92 % 1026,6 hPa 0,0 l/m 0,0 km/h (0 Bft) NO 46 0 min 0,000 mm 0,0 UV-I 0 W/m 2,6 C 3,8 C 0,0 km/h (0 Bft) 100,00 %
12.03.2016 22:03 3,8 C 92 % 1026,7 hPa 0,0 l/m 0,0 km/h (0 Bft) NO 46 0 min 0,000 mm 0,0 UV-I 0 W/m 2,6 C 3,8 C 0,0 km/h (0 Bft) 100,00 %
12.03.2016 22:04 3,8 C 92 % 1026,7 hPa 0,0 l/m 0,0 km/h (0 Bft) NO 46 0 min 0,000 mm 0,0 UV-I 0 W/m 2,6 C 3,8 C 0,0 km/h (0 Bft) 100,00 %
12.03.2016 22:05 3,8 C 92 % 1026,7 hPa 0,0 l/m 0,0 km/h (0 Bft) NO 46 0 min 0,000 mm 0,0 UV-I 0 W/m 2,6 C 3,8 C 0,0 km/h (0 Bft) 100,00 %
12.03.2016 22:06 3,8 C 92 % 1026,6 hPa 0,0 l/m 0,0 km/h (0 Bft) NO 46 0 min 0,000 mm 0,0 UV-I 0 W/m 2,6 C 3,8 C 0,0 km/h (0 Bft) 100,00 %
12.03.2016 22:07 3,7 C 92 % 1026,7 hPa 0,0 l/m 0,0 km/h (0 Bft) NO 46 0 min 0,000 mm 0,0 UV-I 0 W/m 2,5 C 3,7 C 0,0 km/h (0 Bft) 100,00 %
12.03.2016 22:08 3,7 C 92 % 1026,6 hPa 0,0 l/m 0,1 km/h (0 Bft) NO 46 0 min 0,000 mm 0,0 UV-I 0 W/m 2,5 C 3,7 C 1,6 km/h (1 Bft) 100,00 %
12.03.2016 22:09 3,8 C 92 % 1026,6 hPa 0,0 l/m 0,2 km/h (0 Bft) NO 46 0 min 0,000 mm 0,0 UV-I 0 W/m 2,6 C 3,8 C 1,6 km/h (1 Bft) 100,00 %
12.03.2016 22:10 3,8 C 92 % 1026,6 hPa 0,0 l/m 0,1 km/h (0 Bft) NO 46 0 min 0,000 mm 0,0 UV-I 0 W/m 2,6 C 3,8 C 1,6 km/h (1 Bft) 100,00 %
12.03.2016 22:11 3,8 C 92 % 1026,6 hPa 0,0 l/m 0,6 km/h (0 Bft) NO 46 0 min 0,000 mm 0,0 UV-I 0 W/m 2,6 C 3,8 C 1,6 km/h (1 Bft) 100,00 %
12.03.2016 22:12 3,8 C 92 % 1026,6 hPa 0,0 l/m 0,1 km/h (0 Bft) NO 46 0 min 0,000 mm 0,0 UV-I 0 W/m 2,6 C 3,8 C 1,6 km/h (1 Bft) 100,00 %
12.03.2016 22:13 3,8 C 92 % 1026,5 hPa 0,0 l/m 0,1 km/h (0 Bft) NO 46 0 min 0,000 mm 0,0 UV-I 0 W/m 2,6 C 3,8 C 1,6 km/h (1 Bft) 100,00 %
12.03.2016 22:14 3,8 C 92 % 1026,6 hPa 0,2 l/m 0,4 km/h (0 Bft) NO 46 0 min 0,000 mm 0,0 UV-I 0 W/m 2,6 C 3,8 C 1,6 km/h (1 Bft) 100,00 %
12.03.2016 22:15 3,8 C 92 % 1026,5 hPa 0,0 l/m 0,0 km/h (0 Bft) NO 46 0 min 0,000 mm 0,0 UV-I 0 W/m 2,6 C 3,8 C 0,0 km/h (0 Bft) 100,00 %
12.03.2016 22:16 3,7 C 92 % 1026,5 hPa 0,0 l/m 0,0 km/h (0 Bft) NO 46 0 min 0,000 mm 0,0 UV-I 0 W/m 2,5 C 3,7 C 0,0 km/h (0 Bft) 100,00 %
12.03.2016 22:17 3,7 C 92 % 1026,5 hPa 0,0 l/m 0,0 km/h (0 Bft) NO 46 0 min 0,000 mm 0,0 UV-I 0 W/m 2,5 C 3,7 C 0,0 km/h (0 Bft) 100,00 %
12.03.2016 22:18 3,8 C 93 % 1026,5 hPa 0,0 l/m 0,2 km/h (0 Bft) NO 46 0 min 0,000 mm 0,0 UV-I 0 W/m 2,8 C 3,8 C 1,6 km/h (1 Bft) 100,00 %
12.03.2016 22:19 3,7 C 93 % 1026,5 hPa 0,0 l/m 0,0 km/h (0 Bft) NO 46 0 min 0,000 mm 0,0 UV-I 0 W/m 2,7 C 3,7 C 0,0 km/h (0 Bft) 100,00 %
12.03.2016 22:20 3,8 C 93 % 1026,5 hPa 0,0 l/m 0,6 km/h (0 Bft) NO 46 0 min 0,000 mm 0,0 UV-I 0 W/m 2,8 C 3,8 C 1,6 km/h (1 Bft) 100,00 %
12.03.2016 22:21 3,7 C 93 % 1026,5 hPa 0,0 l/m 0,4 km/h (0 Bft) NO 46 0 min 0,000 mm 0,0 UV-I 0 W/m 2,7 C 3,7 C 1,6 km/h (1 Bft) 100,00 %
12.03.2016 22:22 3,7 C 93 % 1026,5 hPa 0,0 l/m 0,3 km/h (0 Bft) NO 46 0 min 0,000 mm 0,0 UV-I 0 W/m 2,7 C 3,7 C 1,6 km/h (1 Bft) 100,00 %
12.03.2016 22:23 3,7 C 93 % 1026,5 hPa 0,0 l/m 0,0 km/h (0 Bft) NO 46 0 min 0,000 mm 0,0 UV-I 0 W/m 2,7 C 3,7 C 0,0 km/h (0 Bft) 100,00 %
12.03.2016 22:24 3,7 C 93 % 1026,5 hPa 0,0 l/m 0,0 km/h (0 Bft) NO 46 0 min 0,000 mm 0,0 UV-I 0 W/m 2,7 C 3,7 C 0,0 km/h (0 Bft) 95,83 %
12.03.2016 22:25 3,7 C 93 % 1026,5 hPa 0,0 l/m 0,0 km/h (0 Bft) NO 46 0 min 0,000 mm 0,0 UV-I 0 W/m 2,7 C 3,7 C 0,0 km/h (0 Bft) 100,00 %
12.03.2016 22:26 3,7 C 93 % 1026,5 hPa 0,0 l/m 0,0 km/h (0 Bft) NO 46 0 min 0,000 mm 0,0 UV-I 0 W/m 2,7 C 3,7 C 0,0 km/h (0 Bft) 100,00 %
12.03.2016 22:27 3,7 C 93 % 1026,5 hPa 0,0 l/m 0,1 km/h (0 Bft) NO 46 0 min 0,000 mm 0,0 UV-I 0 W/m 2,7 C 3,7 C 1,6 km/h (1 Bft) 100,00 %
12.03.2016 22:28 3,7 C 93 % 1026,5 hPa 0,0 l/m 0,3 km/h (0 Bft) NO 46 0 min 0,000 mm 0,0 UV-I 0 W/m 2,7 C 3,7 C 1,6 km/h (1 Bft) 100,00 %
12.03.2016 22:29 3,7 C 93 % 1026,4 hPa 0,0 l/m 1,3 km/h (1 Bft) NO 46 0 min 0,000 mm 0,0 UV-I 0 W/m 2,7 C 3,7 C 1,6 km/h (1 Bft) 100,00 %
12.03.2016 22:30 3,6 C 94 % 1026,4 hPa 0,0 l/m 0,8 km/h (0 Bft) NO 46 0 min 0,000 mm 0,0 UV-I 0 W/m 2,7 C 3,6 C 1,6 km/h (1 Bft) 100,00 %
12.03.2016 22:31 3,7 C 94 % 1026,5 hPa 0,0 l/m 0,1 km/h (0 Bft) NO 46 0 min 0,000 mm 0,0 UV-I 0 W/m 2,8 C 3,7 C 1,6 km/h (1 Bft) 100,00 %
12.03.2016 22:32 3,6 C 94 % 1026,4 hPa 0,0 l/m 1,0 km/h (0 Bft) NO 47 0 min 0,000 mm 0,0 UV-I 0 W/m 2,7 C 3,6 C 3,2 km/h (1 Bft) 100,00 %
12.03.2016 22:33 3,6 C 94 % 1026,5 hPa 0,0 l/m 1,3 km/h (1 Bft) NO 49 0 min 0,000 mm 0,0 UV-I 0 W/m 2,7 C 3,6 C 3,2 km/h (1 Bft) 95,65 %
12.03.2016 22:34 3,6 C 94 % 1026,5 hPa 0,0 l/m 1,0 km/h (0 Bft) NO 49 0 min 0,000 mm 0,0 UV-I 0 W/m 2,7 C 3,6 C 1,6 km/h (1 Bft) 100,00 %
12.03.2016 22:35 3,6 C 94 % 1026,4 hPa 0,0 l/m 1,1 km/h (1 Bft) NO 49 0 min 0,000 mm 0,0 UV-I 0 W/m 2,7 C 3,6 C 1,6 km/h (1 Bft) 100,00 %
12.03.2016 22:36 3,6 C 94 % 1026,4 hPa 0,0 l/m 1,8 km/h (1 Bft) O 92 0 min 0,000 mm 0,0 UV-I 0 W/m 2,7 C 3,6 C 3,2 km/h (1 Bft) 100,00 %
12.03.2016 22:37 3,6 C 94 % 1026,4 hPa 0,0 l/m 1,9 km/h (1 Bft) O 92 0 min 0,000 mm 0,0 UV-I 0 W/m 2,7 C 3,6 C 3,2 km/h (1 Bft) 100,00 %
12.03.2016 22:38 3,6 C 94 % 1026,4 hPa 0,0 l/m 1,9 km/h (1 Bft) O 92 0 min 0,000 mm 0,0 UV-I 0 W/m 2,7 C 3,6 C 3,2 km/h (1 Bft) 100,00 %
12.03.2016 22:39 3,6 C 94 % 1026,4 hPa 0,0 l/m 2,3 km/h (1 Bft) O 92 0 min 0,000 mm 0,0 UV-I 0 W/m 2,7 C 3,6 C 3,2 km/h (1 Bft) 100,00 %
12.03.2016 22:40 3,6 C 94 % 1026,4 hPa 0,0 l/m 0,8 km/h (0 Bft) O 92 0 min 0,000 mm 0,0 UV-I 0 W/m 2,7 C 3,6 C 1,6 km/h (1 Bft) 100,00 %
12.03.2016 22:41 3,6 C 94 % 1026,4 hPa 0,0 l/m 0,5 km/h (0 Bft) O 92 0 min 0,000 mm 0,0 UV-I 0 W/m 2,7 C 3,6 C 1,6 km/h (1 Bft) 100,00 %
12.03.2016 22:42 3,6 C 94 % 1026,4 hPa 0,0 l/m 1,3 km/h (1 Bft) O 92 0 min 0,000 mm 0,0 UV-I 0 W/m 2,7 C 3,6 C 3,2 km/h (1 Bft) 100,00 %
12.03.2016 22:43 3,6 C 94 % 1026,4 hPa 0,0 l/m 0,9 km/h (0 Bft) O 92 0 min 0,000 mm 0,0 UV-I 0 W/m 2,7 C 3,6 C 1,6 km/h (1 Bft) 100,00 %
12.03.2016 22:44 3,6 C 94 % 1026,4 hPa 0,0 l/m 1,5 km/h (1 Bft) O 92 0 min 0,000 mm 0,0 UV-I 0 W/m 2,7 C 3,6 C 3,2 km/h (1 Bft) 100,00 %
12.03.2016 22:45 3,6 C 94 % 1026,4 hPa 0,0 l/m 1,2 km/h (1 Bft) O 92 0 min 0,000 mm 0,0 UV-I 0 W/m 2,7 C 3,6 C 1,6 km/h (1 Bft) 100,00 %
12.03.2016 22:46 3,6 C 94 % 1026,4 hPa 0,0 l/m 1,8 km/h (1 Bft) O 92 0 min 0,000 mm 0,0 UV-I 0 W/m 2,7 C 3,6 C 3,2 km/h (1 Bft) 95,65 %
12.03.2016 22:47 3,6 C 94 % 1026,4 hPa 0,0 l/m 1,4 km/h (1 Bft) O 92 0 min 0,000 mm 0,0 UV-I 0 W/m 2,7 C 3,6 C 1,6 km/h (1 Bft) 100,00 %
12.03.2016 22:48 3,6 C 94 % 1026,4 hPa 0,0 l/m 1,3 km/h (1 Bft) O 92 0 min 0,000 mm 0,0 UV-I 0 W/m 2,7 C 3,6 C 1,6 km/h (1 Bft) 100,00 %
12.03.2016 22:49 3,6 C 94 % 1026,4 hPa 0,0 l/m 1,6 km/h (1 Bft) O 92 0 min 0,000 mm 0,0 UV-I 0 W/m 2,7 C 3,6 C 1,6 km/h (1 Bft) 100,00 %
12.03.2016 22:50 3,6 C 94 % 1026,4 hPa 0,0 l/m 1,9 km/h (1 Bft) O 92 0 min 0,000 mm 0,0 UV-I 0 W/m 2,7 C 3,6 C 3,2 km/h (1 Bft) 100,00 %
12.03.2016 22:51 3,6 C 94 % 1026,4 hPa 0,0 l/m 2,1 km/h (1 Bft) O 92 0 min 0,000 mm 0,0 UV-I 0 W/m 2,7 C 3,6 C 3,2 km/h (1 Bft) 100,00 %
12.03.2016 22:52 3,6 C 94 % 1026,4 hPa 0,0 l/m 2,1 km/h (1 Bft) O 92 0 min 0,000 mm 0,0 UV-I 0 W/m 2,7 C 3,6 C 3,2 km/h (1 Bft) 100,00 %
12.03.2016 22:53 3,6 C 94 % 1026,4 hPa 0,0 l/m 1,5 km/h (1 Bft) O 92 0 min 0,000 mm 0,0 UV-I 0 W/m 2,7 C 3,6 C 3,2 km/h (1 Bft) 100,00 %
12.03.2016 22:54 3,6 C 94 % 1026,4 hPa 0,0 l/m 1,1 km/h (1 Bft) O 92 0 min 0,000 mm 0,0 UV-I 0 W/m 2,7 C 3,6 C 1,6 km/h (1 Bft) 100,00 %
12.03.2016 22:55 3,6 C 94 % 1026,4 hPa 0,0 l/m 0,9 km/h (0 Bft) O 92 0 min 0,000 mm 0,0 UV-I 0 W/m 2,7 C 3,6 C 1,6 km/h (1 Bft) 95,65 %
12.03.2016 22:56 3,6 C 94 % 1026,4 hPa 0,0 l/m 1,3 km/h (1 Bft) O 92 0 min 0,000 mm 0,0 UV-I 0 W/m 2,7 C 3,6 C 1,6 km/h (1 Bft) 100,00 %
12.03.2016 22:57 3,6 C 94 % 1026,5 hPa 0,0 l/m 1,3 km/h (1 Bft) O 92 0 min 0,000 mm 0,0 UV-I 0 W/m 2,7 C 3,6 C 1,6 km/h (1 Bft) 100,00 %
12.03.2016 22:58 3,6 C 94 % 1026,5 hPa 0,0 l/m 2,1 km/h (1 Bft) O 92 0 min 0,000 mm 0,0 UV-I 0 W/m 2,7 C 3,6 C 3,2 km/h (1 Bft) 100,00 %
12.03.2016 22:59 3,6 C 94 % 1026,4 hPa 0,0 l/m 2,4 km/h (1 Bft) O 92 0 min 0,000 mm 0,0 UV-I 0 W/m 2,7 C 3,6 C 3,2 km/h (1 Bft) 100,00 %
12.03.2016 23:00 3,6 C 94 % 1026,4 hPa 0,0 l/m 3,0 km/h (1 Bft) O 92 0 min 0,000 mm 0,0 UV-I 0 W/m 2,7 C 3,6 C 3,2 km/h (1 Bft) 100,00 %
12.03.2016 23:01 3,6 C 94 % 1026,4 hPa 0,0 l/m 1,9 km/h (1 Bft) O 92 0 min 0,000 mm 0,0 UV-I 0 W/m 2,7 C 3,6 C 3,2 km/h (1 Bft) 96,15 %
12.03.2016 23:02 3,6 C 94 % 1026,4 hPa 0,0 l/m 1,2 km/h (1 Bft) O 92 0 min 0,000 mm 0,0 UV-I 0 W/m 2,7 C 3,6 C 1,6 km/h (1 Bft) 100,00 %
12.03.2016 23:03 3,6 C 94 % 1026,4 hPa 0,0 l/m 1,3 km/h (1 Bft) O 92 0 min 0,000 mm 0,0 UV-I 0 W/m 2,7 C 3,6 C 1,6 km/h (1 Bft) 95,65 %
12.03.2016 23:04 3,6 C 94 % 1026,4 hPa 0,0 l/m 1,5 km/h (1 Bft) O 92 0 min 0,000 mm 0,0 UV-I 0 W/m 2,7 C 3,6 C 1,6 km/h (1 Bft) 100,00 %
12.03.2016 23:05 3,6 C 94 % 1026,4 hPa 0,0 l/m 1,0 km/h (0 Bft) O 92 0 min 0,000 mm 0,0 UV-I 0 W/m 2,7 C 3,6 C 1,6 km/h (1 Bft) 91,30 %
12.03.2016 23:06 3,6 C 94 % 1026,4 hPa 0,0 l/m 1,5 km/h (1 Bft) O 92 0 min 0,000 mm 0,0 UV-I 0 W/m 2,7 C 3,6 C 1,6 km/h (1 Bft) 100,00 %
12.03.2016 23:07 3,6 C 94 % 1026,4 hPa 0,0 l/m 1,6 km/h (1 Bft) O 92 0 min 0,000 mm 0,0 UV-I 0 W/m 2,7 C 3,6 C 1,6 km/h (1 Bft) 92,86 %
12.03.2016 23:08 3,6 C 94 % 1026,5 hPa 0,0 l/m 0,9 km/h (0 Bft) O 92 0 min 0,000 mm 0,0 UV-I 0 W/m 2,7 C 3,6 C 1,6 km/h (1 Bft) 100,00 %
12.03.2016 23:09 3,6 C 94 % 1026,4 hPa 0,0 l/m 1,0 km/h (0 Bft) O 92 0 min 0,000 mm 0,0 UV-I 0 W/m 2,7 C 3,6 C 1,6 km/h (1 Bft) 96,15 %
12.03.2016 23:10 3,6 C 94 % 1026,4 hPa 0,0 l/m 0,5 km/h (0 Bft) O 92 0 min 0,000 mm 0,0 UV-I 0 W/m 2,7 C 3,6 C 1,6 km/h (1 Bft) 100,00 %
12.03.2016 23:11 3,6 C 95 % 1026,4 hPa 0,0 l/m 0,6 km/h (0 Bft) O 92 0 min 0,000 mm 0,0 UV-I 0 W/m 2,9 C 3,6 C 1,6 km/h (1 Bft) 96,15 %
12.03.2016 23:12 3,6 C 95 % 1026,4 hPa 0,0 l/m 0,1 km/h (0 Bft) O 92 0 min 0,000 mm 0,0 UV-I 0 W/m 2,9 C 3,6 C 1,6 km/h (1 Bft) 95,83 %
12.03.2016 23:13 3,6 C 95 % 1026,4 hPa 0,0 l/m 0,3 km/h (0 Bft) O 92 0 min 0,000 mm 0,0 UV-I 0 W/m 2,9 C 3,6 C 1,6 km/h (1 Bft) 100,00 %
12.03.2016 23:14 3,6 C 95 % 1026,4 hPa 0,0 l/m 0,7 km/h (0 Bft) O 92 0 min 0,000 mm 0,0 UV-I 0 W/m 2,9 C 3,6 C 1,6 km/h (1 Bft) 96,55 %
12.03.2016 23:15 3,6 C 95 % 1026,4 hPa 0,0 l/m 1,0 km/h (0 Bft) O 92 0 min 0,000 mm 0,0 UV-I 0 W/m 2,9 C 3,6 C 1,6 km/h (1 Bft) 96,15 %
12.03.2016 23:16 3,6 C 95 % 1026,5 hPa 0,0 l/m 0,2 km/h (0 Bft) O 92 0 min 0,000 mm 0,0 UV-I 0 W/m 2,9 C 3,6 C 1,6 km/h (1 Bft) 96,30 %
12.03.2016 23:17 3,6 C 95 % 1026,4 hPa 0,0 l/m 0,0 km/h (0 Bft) O 92 0 min 0,000 mm 0,0 UV-I 0 W/m 2,9 C 3,6 C 0,0 km/h (0 Bft) 100,00 %
12.03.2016 23:18 3,6 C 95 % 1026,4 hPa 0,0 l/m 0,0 km/h (0 Bft) O 92 0 min 0,000 mm 0,0 UV-I 0 W/m 2,9 C 3,6 C 0,0 km/h (0 Bft) 93,33 %
12.03.2016 23:19 3,6 C 95 % 1026,5 hPa 0,0 l/m 0,0 km/h (0 Bft) O 92 0 min 0,000 mm 0,0 UV-I 0 W/m 2,9 C 3,6 C 0,0 km/h (0 Bft) 100,00 %
12.03.2016 23:20 3,6 C 95 % 1026,4 hPa 0,0 l/m 0,0 km/h (0 Bft) O 92 0 min 0,000 mm 0,0 UV-I 0 W/m 2,9 C 3,6 C 0,0 km/h (0 Bft) 96,15 %
12.03.2016 23:21 3,6 C 95 % 1026,4 hPa 0,0 l/m 0,0 km/h (0 Bft) O 92 0 min 0,000 mm 0,0 UV-I 0 W/m 2,9 C 3,6 C 0,0 km/h (0 Bft) 96,67 %
12.03.2016 23:22 3,6 C 95 % 1026,4 hPa 0,0 l/m 0,0 km/h (0 Bft) O 92 0 min 0,000 mm 0,0 UV-I 0 W/m 2,9 C 3,6 C 0,0 km/h (0 Bft) 100,00 %
12.03.2016 23:23 3,6 C 95 % 1026,4 hPa 0,0 l/m 0,1 km/h (0 Bft) O 92 0 min 0,000 mm 0,0 UV-I 0 W/m 2,9 C 3,6 C 1,6 km/h (1 Bft) 96,30 %
12.03.2016 23:24 3,6 C 95 % 1026,4 hPa 0,0 l/m 0,3 km/h (0 Bft) O 92 0 min 0,000 mm 0,0 UV-I 0 W/m 2,9 C 3,6 C 1,6 km/h (1 Bft) 100,00 %
12.03.2016 23:25 3,6 C 95 % 1026,4 hPa 0,0 l/m 0,0 km/h (0 Bft) O 92 0 min 0,000 mm 0,0 UV-I 0 W/m 2,9 C 3,6 C 0,0 km/h (0 Bft) 91,67 %
12.03.2016 23:26 3,6 C 95 % 1026,4 hPa 0,0 l/m 0,0 km/h (0 Bft) O 92 0 min 0,000 mm 0,0 UV-I 0 W/m 2,9 C 3,6 C 0,0 km/h (0 Bft) 95,65 %
12.03.2016 23:27 3,6 C 95 % 1026,4 hPa 0,0 l/m 0,0 km/h (0 Bft) O 92 0 min 0,000 mm 0,0 UV-I 0 W/m 2,9 C 3,6 C 0,0 km/h (0 Bft) 95,83 %
12.03.2016 23:28 3,6 C 95 % 1026,4 hPa 0,0 l/m 0,7 km/h (0 Bft) O 92 0 min 0,000 mm 0,0 UV-I 0 W/m 2,9 C 3,6 C 1,6 km/h (1 Bft) 100,00 %
12.03.2016 23:29 3,6 C 95 % 1026,4 hPa 0,0 l/m 0,1 km/h (0 Bft) O 92 0 min 0,000 mm 0,0 UV-I 0 W/m 2,9 C 3,6 C 1,6 km/h (1 Bft) 95,83 %
12.03.2016 23:30 3,6 C 95 % 1026,3 hPa 0,0 l/m 0,0 km/h (0 Bft) O 92 0 min 0,000 mm 0,0 UV-I 0 W/m 2,9 C 3,6 C 0,0 km/h (0 Bft) 95,65 %
12.03.2016 23:31 3,6 C 95 % 1026,3 hPa 0,0 l/m 0,0 km/h (0 Bft) O 92 0 min 0,000 mm 0,0 UV-I 0 W/m 2,9 C 3,6 C 0,0 km/h (0 Bft) 95,83 %
12.03.2016 23:32 3,6 C 95 % 1026,4 hPa 0,0 l/m 0,0 km/h (0 Bft) O 92 0 min 0,000 mm 0,0 UV-I 0 W/m 2,9 C 3,6 C 0,0 km/h (0 Bft) 95,65 %
12.03.2016 23:33 3,6 C 95 % 1026,3 hPa 0,0 l/m 0,0 km/h (0 Bft) O 92 0 min 0,000 mm 0,0 UV-I 0 W/m 2,9 C 3,6 C 0,0 km/h (0 Bft) 100,00 %
12.03.2016 23:34 3,6 C 95 % 1026,3 hPa 0,0 l/m 0,0 km/h (0 Bft) O 92 0 min 0,000 mm 0,0 UV-I 0 W/m 2,9 C 3,6 C 0,0 km/h (0 Bft) 100,00 %
12.03.2016 23:35 3,5 C 95 % 1026,3 hPa 0,0 l/m 0,0 km/h (0 Bft) O 92 0 min 0,000 mm 0,0 UV-I 0 W/m 2,8 C 3,5 C 0,0 km/h (0 Bft) 97,37 %
12.03.2016 23:36 3,6 C 95 % 1026,3 hPa 0,0 l/m 0,0 km/h (0 Bft) O 92 0 min 0,000 mm 0,0 UV-I 0 W/m 2,9 C 3,6 C 0,0 km/h (0 Bft) 96,15 %
12.03.2016 23:37 3,6 C 95 % 1026,3 hPa 0,0 l/m 0,0 km/h (0 Bft) O 92 0 min 0,000 mm 0,0 UV-I 0 W/m 2,9 C 3,6 C 0,0 km/h (0 Bft) 100,00 %
12.03.2016 23:38 3,5 C 95 % 1026,3 hPa 0,0 l/m 0,0 km/h (0 Bft) O 92 0 min 0,000 mm 0,0 UV-I 0 W/m 2,8 C 3,5 C 0,0 km/h (0 Bft) 96,30 %
12.03.2016 23:39 3,6 C 95 % 1026,3 hPa 0,0 l/m 0,0 km/h (0 Bft) O 92 0 min 0,000 mm 0,0 UV-I 0 W/m 2,9 C 3,6 C 0,0 km/h (0 Bft) 100,00 %
12.03.2016 23:40 3,5 C 95 % 1026,3 hPa 0,0 l/m 0,0 km/h (0 Bft) O 92 0 min 0,000 mm 0,0 UV-I 0 W/m 2,8 C 3,5 C 0,0 km/h (0 Bft) 100,00 %
12.03.2016 23:41 3,5 C 95 % 1026,3 hPa 0,0 l/m 0,0 km/h (0 Bft) O 92 0 min 0,000 mm 0,0 UV-I 0 W/m 2,8 C 3,5 C 0,0 km/h (0 Bft) 92,31 %
12.03.2016 23:42 3,5 C 95 % 1026,3 hPa 0,0 l/m 0,0 km/h (0 Bft) O 92 0 min 0,000 mm 0,0 UV-I 0 W/m 2,8 C 3,5 C 0,0 km/h (0 Bft) 100,00 %
12.03.2016 23:43 3,5 C 95 % 1026,3 hPa 0,0 l/m 0,0 km/h (0 Bft) O 92 0 min 0,000 mm 0,0 UV-I 0 W/m 2,8 C 3,5 C 0,0 km/h (0 Bft) 100,00 %
12.03.2016 23:44 3,5 C 95 % 1026,3 hPa 0,0 l/m 0,0 km/h (0 Bft) O 92 0 min 0,000 mm 0,0 UV-I 0 W/m 2,8 C 3,5 C 0,0 km/h (0 Bft) 100,00 %
12.03.2016 23:45 3,5 C 95 % 1026,3 hPa 0,0 l/m 0,0 km/h (0 Bft) O 92 0 min 0,000 mm 0,0 UV-I 0 W/m 2,8 C 3,5 C 0,0 km/h (0 Bft) 78,57 %
12.03.2016 23:46 3,5 C 95 % 1026,3 hPa 0,0 l/m 0,0 km/h (0 Bft) O 92 0 min 0,000 mm 0,0 UV-I 0 W/m 2,8 C 3,5 C 0,0 km/h (0 Bft) 100,00 %
12.03.2016 23:47 3,5 C 95 % 1026,3 hPa 0,0 l/m 0,0 km/h (0 Bft) O 92 0 min 0,000 mm 0,0 UV-I 0 W/m 2,8 C 3,5 C 0,0 km/h (0 Bft) 95,65 %
12.03.2016 23:48 3,5 C 95 % 1026,3 hPa 0,0 l/m 0,0 km/h (0 Bft) O 92 0 min 0,000 mm 0,0 UV-I 0 W/m 2,8 C 3,5 C 0,0 km/h (0 Bft) 100,00 %
12.03.2016 23:49 3,5 C 95 % 1026,3 hPa 0,0 l/m 0,0 km/h (0 Bft) O 92 0 min 0,000 mm 0,0 UV-I 0 W/m 2,8 C 3,5 C 0,0 km/h (0 Bft) 100,00 %
12.03.2016 23:50 3,5 C 95 % 1026,3 hPa 0,0 l/m 0,1 km/h (0 Bft) O 92 0 min 0,000 mm 0,0 UV-I 0 W/m 2,8 C 3,5 C 1,6 km/h (1 Bft) 100,00 %
12.03.2016 23:51 3,5 C 95 % 1026,3 hPa 0,0 l/m 0,4 km/h (0 Bft) O 92 0 min 0,000 mm 0,0 UV-I 0 W/m 2,8 C 3,5 C 1,6 km/h (1 Bft) 100,00 %
12.03.2016 23:52 3,5 C 95 % 1026,3 hPa 0,0 l/m 0,2 km/h (0 Bft) O 92 0 min 0,000 mm 0,0 UV-I 0 W/m 2,8 C 3,5 C 1,6 km/h (1 Bft) 100,00 %
12.03.2016 23:53 3,5 C 95 % 1026,3 hPa 0,0 l/m 1,0 km/h (0 Bft) O 92 0 min 0,000 mm 0,0 UV-I 0 W/m 2,8 C 3,5 C 1,6 km/h (1 Bft) 100,00 %
12.03.2016 23:54 3,5 C 95 % 1026,3 hPa 0,0 l/m 0,1 km/h (0 Bft) O 92 0 min 0,000 mm 0,0 UV-I 0 W/m 2,8 C 3,5 C 1,6 km/h (1 Bft) 100,00 %
12.03.2016 23:55 3,5 C 95 % 1026,2 hPa 0,0 l/m 0,0 km/h (0 Bft) O 92 0 min 0,000 mm 0,0 UV-I 0 W/m 2,8 C 3,5 C 0,0 km/h (0 Bft) 100,00 %
12.03.2016 23:56 3,5 C 95 % 1026,3 hPa 0,0 l/m 0,0 km/h (0 Bft) O 92 0 min 0,000 mm 0,0 UV-I 0 W/m 2,8 C 3,5 C 0,0 km/h (0 Bft) 100,00 %
12.03.2016 23:57 3,5 C 95 % 1026,3 hPa 0,0 l/m 0,0 km/h (0 Bft) O 92 0 min 0,000 mm 0,0 UV-I 0 W/m 2,8 C 3,5 C 0,0 km/h (0 Bft) 100,00 %
12.03.2016 23:58 3,5 C 95 % 1026,3 hPa 0,0 l/m 0,0 km/h (0 Bft) O 92 0 min 0,000 mm 0,0 UV-I 0 W/m 2,8 C 3,5 C 0,0 km/h (0 Bft) 100,00 %
12.03.2016 23:59 3,4 C 95 % 1026,3 hPa 0,0 l/m 0,0 km/h (0 Bft) O 92 0 min 0,000 mm 0,0 UV-I 0 W/m 2,7 C 3,4 C 0,0 km/h (0 Bft) 100,00 %
_ Min-Zeit 05:39 15:16 02:50 - 01:05 - - - - - - 06:33 11:24 01:05 23:45
Minimum _ 3,4 C 79 % 1024,1 hPa - 0,0 km/h (0 Bft) - - - - - - 2,0 C -1,1 C 0,0 km/h (0 Bft) 78,57 %
_ Max-Zeit 14:36 00:00 21:02 01:53 12:36 - - 00:00 12:01 11:27 13:55 00:00 14:36 12:36 00:00
Maximum _ 5,6 C 96 % 1026,7 hPa 0,2 l/m 14,9 km/h
NO (3 Bft)
- - 0 min 0,051 mm 1,0 UV-I 197 W/m 3,3 C 5,6 C 19,3 km/h
NO (3 Bft)
100,00 %
Durchschnitt _ 4,2 C 89 % 1025,3 hPa #0,4 l/m 3,6 km/h (1 Bft) NO - #0 min. #0,330 mm 0,7 UV-I 67 W/m 2,6 C 4,0 C 5,4 km/h (1 Bft) 98,54 %